[[{"header":{"parameterUnit":"m.s-1","parameterCategory":1,"la1":31.0,"la2":29.5877,"lo1":-88.7671,"lo2":-86.6584,"dy":0.0162,"dx":0.0185,"nx":115,"ny":88,"refTime":"2026-05-07T00:00:00:Z","depth":0,"parameterNumber":2,"parameterNumberName":"U-component_of_WINDS"},"data":[0.0,0.0,0.0,0.0,0.0,0.0,0.0,0.0,0.0,0.0,0.0,0.0,0.0,0.0,0.0,0.0,0.0,0.0,0.0,0.0,0.0,0.0,0.0,0.0,0.0,0.0,0.0,0.0,0.0,0.0,0.0,0.0,0.0,0.0,0.0,0.0,0.0,0.0,0.0,0.0,0.0,0.0,0.0,0.0,0.0,0.0,0.0,0.0,0.0,0.0,0.0,0.0,0.0,0.0,0.0,0.0,0.0,0.0,0.0,0.0,0.0,0.0,0.0,0.0,0.0,0.0,0.0,0.0,0.0,0.0,0.0,0.0,0.0,0.0,0.0,0.0,0.0,0.0,0.0,0.0,0.0,0.0,0.0,0.0,0.0,0.0,0.0,0.0,0.0,0.0,0.0,0.0,0.0,0.0,0.0,0.0,0.0,0.0,0.0,0.0,0.0,0.0,0.0,0.0,0.0,0.0,0.0,0.0,0.0,0.0,0.0,0.0,0.0,0.0,0.0,0.0,0.0,0.0,0.0,0.0,0.0,0.0,0.0,0.0,0.0,0.0,0.0,0.0,0.0,0.0,0.0,0.0,0.0,0.0,0.0,0.0,0.0,0.0,0.0,0.0,0.0,0.0,0.0,0.0,0.0,0.0,0.0,0.0,0.0,0.0,0.0,0.0,0.0,0.0,0.0,0.0,0.0,0.0,0.0,0.0,0.0,0.0,0.0,0.0,0.0,0.0,0.0,0.0,0.0,0.0,0.0,0.0,0.0,0.0,0.0,0.0,0.0,0.0,0.0,0.0,0.0,0.0,0.0,0.0,0.0,0.0,0.0,0.0,0.0,0.0,0.0,0.0,0.0,0.0,0.0,0.0,0.0,0.0,0.0,0.0,0.0,0.0,0.0,0.0,0.0,0.0,0.0,0.0,0.0,0.0,0.0,0.0,0.0,0.0,0.0,0.0,0.0,0.0,0.0,0.0,0.0,0.0,0.0,0.0,0.0,0.0,0.0,0.0,0.0,0.0,0.0,0.0,0.0,0.0,0.0,0.0,0.0,0.0,0.0,0.0,0.0,0.0,0.0,0.0,0.0,0.0,0.0,0.0,0.0,0.0,0.0,0.0,0.0,0.0,0.0,0.0,0.0,0.0,0.0,0.0,0.0,0.0,0.0,0.0,0.0,0.0,0.0,0.0,0.0,0.0,0.0,0.0,0.0,0.0,0.0,0.0,0.0,0.0,0.0,0.0,0.0,0.0,0.0,0.0,0.0,0.0,0.0,0.0,0.0,0.0,0.0,0.0,0.0,0.0,0.0,0.0,0.0,0.0,0.0,0.0,0.0,0.0,0.0,0.0,0.0,0.0,0.0,0.0,0.0,0.0,0.0,0.0,0.0,0.0,0.0,0.0,0.0,0.0,0.0,0.0,0.0,0.0,0.0,0.0,0.0,0.0,0.0,0.0,0.0,0.0,0.0,0.0,0.0,0.0,0.0,0.0,0.0,0.0,0.0,0.0,0.0,0.0,0.0,0.0,0.0,0.0,0.0,0.0,0.0,0.0,0.0,0.0,0.0,0.0,0.0,0.0,0.0,0.0,0.0,0.0,0.0,0.0,0.0,0.0,0.0,0.0,0.0,0.0,0.0,0.0,0.0,0.0,0.0,0.0,0.0,0.0,0.0,0.0,0.0,0.0,0.0,0.0,0.0,0.0,0.0,0.0,0.0,0.0,0.0,0.0,0.0,0.0,0.0,0.0,0.0,0.0,0.0,0.0,0.0,0.0,0.0,0.0,0.0,0.0,0.0,0.0,0.0,0.0,0.0,0.0,0.0,0.0,0.0,0.0,0.0,0.0,0.0,0.0,0.0,0.0,0.0,0.0,0.0,0.0,0.0,0.0,0.0,0.0,0.0,0.0,0.0,0.0,0.0,0.0,0.0,0.0,0.0,0.0,0.0,0.0,0.0,0.0,0.0,0.0,0.0,0.0,0.0,0.0,0.0,0.0,0.0,0.0,0.0,0.0,0.0,0.0,0.0,0.0,0.0,0.0,0.0,0.0,0.0,0.0,0.0,0.0,0.0,0.0,0.0,0.0,0.0,0.0,0.0,0.0,0.0,0.0,0.0,0.0,0.0,0.0,0.0,0.0,0.0,0.0,0.0,0.0,0.0,0.0,0.0,0.0,0.0,0.0,0.0,0.0,0.0,0.0,0.0,0.0,0.0,0.0,0.0,0.0,0.0,0.0,0.0,0.0,0.0,0.0,0.0,0.0,0.0,0.0,0.0,0.0,0.0,0.0,0.0,0.0,0.0,0.0,0.0,0.0,0.0,0.0,0.0,0.0,0.0,0.0,0.0,0.0,0.0,0.0,0.0,0.0,0.0,0.0,0.0,0.0,0.0,0.0,0.0,0.0,0.0,0.0,0.0,0.0,0.0,0.0,0.0,0.0,0.0,0.0,0.0,0.0,0.0,0.0,0.0,0.0,0.0,0.0,0.0,0.0,0.0,0.0,0.0,0.0,0.0,0.0,0.0,0.0,0.0,0.0,0.0,0.0,0.0,0.0,0.0,0.0,0.0,0.0,0.0,0.0,0.0,0.0,0.0,0.0,0.0,0.0,0.0,0.0,0.0,0.0,0.0,0.0,0.0,0.0,0.0,0.0,0.0,0.0,0.0,0.0,0.0,0.0,0.0,0.0,0.0,0.0,0.0,0.0,0.0,0.0,0.0,0.0,0.0,0.0,0.0,0.0,0.0,0.0,0.0,0.0,0.0,0.0,0.0,0.0,0.0,0.0,0.0,0.0,0.0,0.0,0.0,0.0,0.0,0.0,0.0,0.0,0.0,0.0,0.0,0.0,0.0,0.0,0.0,0.0,0.0,0.0,0.0,0.0,0.0,0.0,0.0,0.0,0.0,0.0,0.0,0.0,0.0,0.0,0.0,0.0,0.0,0.0,0.0,0.0,0.0,0.0,0.0,0.0,0.0,0.0,0.0,0.0,0.0,0.0,0.0,0.0,0.0,0.0,0.0,0.0,0.0,0.0,0.0,0.0,0.0,0.0,0.0,0.0,0.0,0.0,0.0,0.0,0.0,0.0,0.0,0.0,0.0,0.0,0.0,0.0,0.0,0.0,0.0,0.0,0.0,0.0,0.0,0.0,0.0,0.0,0.0,0.0,0.0,0.0,0.0,0.0,0.0,0.0,0.0,0.0,0.0,0.0,0.0,0.0,0.0,0.0,0.0,0.0,0.0,0.0,0.0,0.0,0.0,0.0,0.0,0.0,0.0,0.0,0.0,0.0,0.0,0.0,0.0,0.0,0.0,0.0,0.0,0.0,0.0,0.0,0.0,0.0,0.0,0.0,0.0,0.0,0.0,0.0,0.0,0.0,0.0,0.0,0.0,0.0,0.0,0.0,0.0,0.0,0.0,0.0,0.0,0.0,0.0,0.0,0.0,0.0,0.0,0.0,0.0,0.0,0.0,0.0,0.0,0.0,0.0,0.0,0.0,0.0,0.0,0.0,0.0,0.0,0.0,0.0,0.0,0.0,0.0,0.0,0.0,0.0,0.0,0.0,0.0,0.0,0.0,0.0,0.0,0.0,0.0,0.0,0.0,0.0,0.0,0.0,0.0,0.0,0.0,0.0,0.0,0.0,0.0,0.0,0.0,0.0,0.0,0.0,0.0,0.0,0.0,0.0,0.0,0.0,0.0,0.0,0.0,0.0,0.0,0.0,0.0,0.0,0.0,0.0,0.0,0.0,0.0,0.0,0.0,0.0,0.0,0.0,0.0,0.0,0.0,0.0,0.0,0.0,0.0,0.0,0.0,0.0,0.0,0.0,0.0,0.0,0.0,0.0,0.0,0.0,0.0,0.0,0.0,0.0,0.0,0.0,0.0,0.0,0.0,0.0,0.0,0.0,0.0,0.0,0.0,0.0,0.0,0.0,0.0,0.0,0.0,0.0,0.0,0.0,0.0,0.0,0.0,0.0,0.0,0.0,0.0,0.0,0.0,0.0,0.0,0.0,0.0,0.0,0.0,0.0,0.0,0.0,0.0,0.0,0.0,0.0,0.0,0.0,0.0,0.0,0.0,0.0,0.0,0.0,0.0,0.0,0.0,0.0,0.0,0.0,0.0,0.0,0.0,0.0,0.0,0.0,0.0,0.0,0.0,0.0,0.0,0.0,0.0,0.0,0.0,0.0,0.0,0.0,0.0,0.0,0.0,0.0,0.0,0.0,0.0,0.0,0.0,0.0,0.0,0.0,0.0,0.0,0.0,0.0,0.0,0.0,2.7178,0.0,0.0,0.0,0.0,0.0,0.0,0.0,0.0,0.0,0.0,0.0,0.0,0.0,0.0,0.0,0.0,0.0,0.0,0.0,0.0,0.0,0.0,0.0,0.0,0.0,0.0,0.0,0.0,0.0,0.0,0.0,0.0,0.0,0.0,0.0,0.0,0.0,0.0,0.0,0.0,0.0,0.0,0.0,0.0,0.0,0.0,0.0,0.0,0.0,0.0,0.0,0.0,0.0,0.0,0.0,0.0,0.0,0.0,0.0,0.0,0.0,0.0,0.0,0.0,0.0,0.0,0.0,0.0,0.0,0.0,0.0,0.0,0.0,0.0,0.0,0.0,0.0,0.0,0.0,0.0,0.0,0.0,0.0,0.0,0.0,0.0,0.0,0.0,0.0,0.0,0.0,0.0,0.0,0.0,0.0,0.0,0.0,0.0,0.0,0.0,0.0,0.0,0.0,0.0,0.0,0.0,0.0,0.0,0.0,0.0,2.9726,2.9815,2.9004,2.8111,2.7284,0.0,0.0,0.0,0.0,0.0,0.0,0.0,0.0,0.0,0.0,0.0,0.0,0.0,0.0,0.0,0.0,0.0,0.0,0.0,0.0,0.0,0.0,0.0,0.0,0.0,0.0,0.0,0.0,0.0,0.0,0.0,0.0,0.0,0.0,0.0,0.0,0.0,0.0,0.0,0.0,0.0,0.0,0.0,0.0,0.0,0.0,0.0,0.0,0.0,0.0,0.0,0.0,0.0,0.0,0.0,0.0,0.0,0.0,0.0,0.0,0.0,0.0,0.0,0.0,0.0,0.0,0.0,0.0,0.0,0.0,0.0,0.0,0.0,0.0,0.0,0.0,0.0,0.0,0.0,0.0,0.0,0.0,0.0,0.0,0.0,0.0,0.0,0.0,0.0,0.0,0.0,0.0,0.0,0.0,0.0,0.0,0.0,0.0,0.0,0.0,0.0,0.0,0.0,0.0,0.0,0.0,0.0,0.0,0.0,0.0,0.0,0.0,2.9086,2.8263,2.7481,0.0,0.0,0.0,0.0,0.0,0.0,0.0,0.0,0.0,0.0,0.0,0.0,0.0,0.0,0.0,0.0,0.0,0.0,0.0,0.0,0.0,0.0,0.0,0.0,0.0,0.0,0.0,0.0,0.0,0.0,0.0,0.0,0.0,0.0,0.0,0.0,0.0,0.0,0.0,0.0,0.0,0.0,0.0,0.0,0.0,0.0,0.0,0.0,0.0,0.0,0.0,0.0,0.0,0.0,0.0,0.0,0.0,0.0,0.0,0.0,0.0,0.0,0.0,0.0,0.0,0.0,0.0,0.0,0.0,0.0,0.0,0.0,0.0,0.0,0.0,0.0,0.0,0.0,0.0,0.0,0.0,0.0,0.0,0.0,0.0,0.0,0.0,0.0,0.0,0.0,0.0,0.0,0.0,0.0,0.0,0.0,0.0,0.0,0.0,0.0,0.0,0.0,0.0,0.0,0.0,0.0,0.0,0.0,0.0,0.0,2.9756,3.0552,2.9825,0.0,2.8168,0.0,0.0,0.0,0.0,0.0,0.0,0.0,0.0,0.0,0.0,0.0,0.0,0.0,0.0,0.0,0.0,0.0,0.0,0.0,0.0,0.0,0.0,0.0,0.0,0.0,0.0,0.0,0.0,0.0,0.0,0.0,0.0,0.0,0.0,0.0,0.0,0.0,0.0,0.0,0.0,0.0,0.0,0.0,0.0,0.0,0.0,0.0,0.0,0.0,0.0,0.0,0.0,0.0,0.0,0.0,0.0,0.0,0.0,0.0,0.0,0.0,0.0,0.0,0.0,0.0,0.0,0.0,0.0,0.0,0.0,0.0,0.0,0.0,0.0,0.0,0.0,0.0,0.0,0.0,0.0,0.0,0.0,0.0,0.0,0.0,0.0,0.0,0.0,0.0,0.0,0.0,0.0,0.0,0.0,0.0,0.0,0.0,0.0,0.0,0.0,0.0,0.0,0.0,0.0,0.0,0.0,0.0,0.0,0.0,0.0,0.0,3.1088,2.9874,2.9066,0.0,0.0,0.0,0.0,0.0,0.0,0.0,0.0,0.0,0.0,0.0,0.0,0.0,0.0,0.0,0.0,0.0,0.0,0.0,0.0,0.0,0.0,0.0,0.0,0.0,0.0,0.0,0.0,0.0,0.0,0.0,0.0,0.0,0.0,0.0,0.0,0.0,0.0,0.0,0.0,0.0,0.0,0.0,0.0,0.0,0.0,0.0,0.0,0.0,0.0,0.0,0.0,0.0,0.0,0.0,0.0,0.0,0.0,0.0,0.0,0.0,0.0,0.0,0.0,0.0,0.0,0.0,0.0,0.0,0.0,0.0,0.0,0.0,0.0,0.0,0.0,0.0,0.0,0.0,0.0,0.0,0.0,0.0,0.0,0.0,0.0,0.0,0.0,0.0,0.0,0.0,0.0,0.0,0.0,0.0,0.0,0.0,0.0,0.0,0.0,0.0,0.0,0.0,0.0,0.0,0.0,0.0,0.0,0.0,0.0,2.9574,0.0,3.0647,2.9616,2.88,2.8329,0.0,0.0,0.0,0.0,0.0,0.0,0.0,0.0,0.0,0.0,0.0,0.0,0.0,0.0,0.0,0.0,0.0,0.0,0.0,0.0,0.0,0.0,0.0,0.0,0.0,0.0,0.0,0.0,0.0,0.0,0.0,0.0,0.0,0.0,0.0,0.0,0.0,0.0,0.0,0.0,0.0,0.0,0.0,0.0,0.0,0.0,0.0,0.0,0.0,0.0,0.0,0.0,0.0,0.0,0.0,0.0,0.0,0.0,0.0,0.0,0.0,0.0,0.0,0.0,0.0,0.0,0.0,0.0,0.0,0.0,0.0,0.0,0.0,0.0,0.0,0.0,0.0,0.0,0.0,0.0,0.0,0.0,0.0,0.0,0.0,0.0,0.0,0.0,0.0,0.0,0.0,0.0,0.0,0.0,0.0,0.0,0.0,0.0,0.0,0.0,0.0,0.0,0.0,0.0,0.0,0.0,0.0,0.0,0.0,2.9023,2.9097,2.917,2.9057,2.829,0.0,0.0,0.0,0.0,0.0,0.0,0.0,0.0,0.0,0.0,0.0,0.0,0.0,0.0,0.0,0.0,0.0,0.0,0.0,0.0,0.0,0.0,0.0,0.0,0.0,0.0,0.0,0.0,0.0,0.0,0.0,0.0,0.0,0.0,0.0,0.0,0.0,0.0,0.0,0.0,0.0,0.0,0.0,0.0,0.0,0.0,0.0,0.0,0.0,0.0,0.0,0.0,0.0,0.0,0.0,0.0,0.0,0.0,0.0,0.0,0.0,0.0,0.0,0.0,0.0,0.0,0.0,0.0,0.0,0.0,0.0,0.0,0.0,0.0,0.0,0.0,0.0,0.0,0.0,0.0,0.0,0.0,0.0,0.0,0.0,0.0,0.0,0.0,0.0,0.0,0.0,0.0,0.0,0.0,0.0,0.0,0.0,0.0,0.0,0.0,0.0,0.0,0.0,0.0,0.0,0.0,0.0,0.0,0.0,2.8295,2.9249,2.9763,2.976,2.9283,2.8256,0.0,0.0,0.0,0.0,0.0,0.0,0.0,0.0,0.0,0.0,0.0,0.0,0.0,0.0,0.0,0.0,0.0,0.0,0.0,0.0,0.0,0.0,0.0,0.0,0.0,0.0,0.0,0.0,0.0,0.0,0.0,0.0,0.0,0.0,0.0,0.0,0.0,0.0,0.0,0.0,0.0,0.0,0.0,0.0,0.0,0.0,0.0,0.0,0.0,0.0,0.0,0.0,0.0,0.0,0.0,0.0,0.0,0.0,0.0,0.0,0.0,0.0,0.0,0.0,0.0,0.0,0.0,0.0,0.0,0.0,0.0,0.0,0.0,0.0,0.0,0.0,0.0,0.0,0.0,0.0,0.0,0.0,0.0,0.0,0.0,0.0,0.0,0.0,0.0,0.0,0.0,0.0,0.0,0.0,0.0,0.0,0.0,0.0,0.0,0.0,0.0,0.0,0.0,0.0,0.0,0.0,0.0,0.0,0.0,2.8637,0.0,3.0717,0.0,2.9424,2.8253,0.0,0.0,0.0,0.0,0.0,0.0,0.0,0.0,0.0,0.0,0.0,0.0,0.0,0.0,0.0,0.0,0.0,0.0,0.0,0.0,0.0,0.0,0.0,0.0,0.0,0.0,0.0,0.0,0.0,0.0,0.0,0.0,0.0,0.0,0.0,0.0,0.0,0.0,0.0,0.0,0.0,0.0,0.0,0.0,0.0,0.0,0.0,0.0,0.0,0.0,0.0,0.0,0.0,0.0,0.0,0.0,0.0,0.0,0.0,0.0,0.0,0.0,0.0,0.0,0.0,0.0,0.0,0.0,0.0,0.0,0.0,0.0,0.0,0.0,0.0,0.0,0.0,0.0,0.0,0.0,0.0,0.0,0.0,0.0,0.0,0.0,0.0,0.0,0.0,0.0,0.0,0.0,0.0,0.0,0.0,0.0,0.0,0.0,0.0,0.0,0.0,0.0,0.0,0.0,0.0,0.0,0.0,0.0,0.0,3.0243,3.1742,3.1778,3.0283,2.9467,2.829,0.0,0.0,0.0,0.0,0.0,0.0,0.0,0.0,0.0,0.0,0.0,0.0,0.0,0.0,0.0,0.0,0.0,0.0,0.0,0.0,0.0,0.0,0.0,0.0,0.0,0.0,0.0,0.0,0.0,0.0,0.0,0.0,0.0,0.0,0.0,0.0,0.0,0.0,0.0,0.0,0.0,0.0,0.0,0.0,0.0,0.0,0.0,0.0,0.0,0.0,0.0,0.0,0.0,0.0,0.0,0.0,0.0,0.0,0.0,0.0,0.0,0.0,0.0,0.0,0.0,0.0,0.0,0.0,0.0,0.0,0.0,0.0,0.0,0.0,0.0,0.0,0.0,0.0,0.0,0.0,0.0,0.0,0.0,0.0,0.0,0.0,0.0,0.0,0.0,0.0,0.0,0.0,0.0,0.0,0.0,0.0,0.0,0.0,0.0,0.0,0.0,0.0,0.0,0.0,0.0,0.0,0.0,0.0,0.0,3.1892,3.2362,3.2078,3.1054,3.024,2.9069,0.0,0.0,0.0,0.0,0.0,0.0,0.0,0.0,0.0,0.0,0.0,0.0,0.0,0.0,0.0,0.0,0.0,0.0,0.0,0.0,0.0,0.0,0.0,0.0,0.0,0.0,0.0,0.0,0.0,0.0,0.0,0.0,0.0,0.0,0.0,0.0,0.0,0.0,0.0,0.0,0.0,0.0,0.0,0.0,0.0,0.0,0.0,0.0,0.0,0.0,0.0,0.0,0.0,0.0,0.0,0.0,0.0,0.0,0.0,0.0,0.0,0.0,0.0,0.0,0.0,0.0,0.0,0.0,0.0,0.0,0.0,0.0,0.0,0.0,0.0,0.0,0.0,0.0,0.0,0.0,0.0,0.0,0.0,0.0,0.0,0.0,0.0,0.0,0.0,0.0,0.0,0.0,0.0,0.0,0.0,0.0,0.0,0.0,0.0,0.0,0.0,0.0,0.0,0.0,0.0,0.0,0.0,0.0,0.0,3.5268,3.5011,3.4357,3.326,3.1825,3.0353,2.8744,0.0,0.0,0.0,0.0,0.0,0.0,0.0,0.0,0.0,0.0,0.0,0.0,0.0,0.0,0.0,0.0,0.0,0.0,0.0,0.0,0.0,0.0,0.0,0.0,0.0,0.0,0.0,0.0,0.0,0.0,0.0,0.0,0.0,0.0,0.0,0.0,0.0,0.0,0.0,0.0,0.0,0.0,0.0,0.0,0.0,0.0,0.0,0.0,0.0,0.0,0.0,0.0,0.0,0.0,0.0,0.0,0.0,0.0,0.0,0.0,0.0,0.0,0.0,0.0,0.0,0.0,0.0,0.0,0.0,0.0,0.0,0.0,0.0,0.0,0.0,0.0,0.0,0.0,0.0,0.0,0.0,0.0,0.0,0.0,0.0,0.0,0.0,0.0,0.0,0.0,0.0,0.0,0.0,0.0,0.0,0.0,0.0,0.0,0.0,0.0,0.0,0.0,0.0,0.0,0.0,0.0,0.0,0.0,3.9904,3.946,3.8318,3.6523,3.4171,3.2072,0.0,0.0,0.0,0.0,0.0,0.0,0.0,0.0,0.0,0.0,0.0,0.0,0.0,0.0,0.0,0.0,0.0,0.0,0.0,0.0,0.0,0.0,0.0,0.0,0.0,0.0,0.0,0.0,0.0,0.0,0.0,0.0,0.0,0.0,0.0,0.0,0.0,0.0,0.0,0.0,0.0,0.0,0.0,0.0,0.0,0.0,0.0,0.0,0.0,0.0,0.0,0.0,0.0,0.0,0.0,0.0,0.0,0.0,0.0,0.0,0.0,0.0,0.0,0.0,0.0,0.0,0.0,0.0,0.0,0.0,0.0,0.0,0.0,0.0,0.0,0.0,0.0,0.0,0.0,0.0,0.0,0.0,0.0,0.0,0.0,0.0,0.0,0.0,0.0,0.0,0.0,0.0,0.0,0.0,0.0,0.0,0.0,0.0,0.0,0.0,0.0,0.0,0.0,0.0,0.0,0.0,0.0,0.0,0.0,4.0736,4.3484,4.3016,3.9096,3.7158,3.4878,0.0,0.0,0.0,0.0,0.0,0.0,0.0,0.0,0.0,0.0,0.0,0.0,0.0,0.0,0.0,0.0,0.0,0.0,0.0,0.0,0.0,0.0,0.0,0.0,0.0,0.0,0.0,0.0,0.0,0.0,0.0,0.0,0.0,0.0,0.0,0.0,0.0,0.0,0.0,0.0,0.0,0.0,0.0,0.0,0.0,0.0,0.0,0.0,0.0,0.0,0.0,0.0,0.0,0.0,0.0,0.0,0.0,0.0,0.0,0.0,0.0,0.0,0.0,0.0,0.0,0.0,0.0,0.0,0.0,0.0,0.0,0.0,0.0,0.0,0.0,0.0,0.0,0.0,0.0,0.0,0.0,0.0,0.0,0.0,0.0,0.0,0.0,0.0,0.0,0.0,0.0,0.0,0.0,0.0,0.0,0.0,0.0,0.0,0.0,0.0,0.0,0.0,0.0,0.0,0.0,0.0,0.0,0.0,4.0014,4.3085,4.6429,4.6466,4.3016,4.0381,3.7481,0.0,0.0,0.0,0.0,0.0,0.0,0.0,0.0,0.0,0.0,0.0,0.0,0.0,0.0,0.0,0.0,0.0,0.0,0.0,0.0,0.0,0.0,0.0,0.0,0.0,0.0,0.0,0.0,0.0,0.0,0.0,0.0,0.0,0.0,0.0,0.0,0.0,0.0,0.0,0.0,0.0,0.0,0.0,0.0,0.0,0.0,0.0,0.0,0.0,0.0,0.0,0.0,0.0,0.0,0.0,0.0,0.0,0.0,0.0,0.0,0.0,0.0,0.0,0.0,0.0,0.0,0.0,0.0,0.0,0.0,0.0,0.0,0.0,0.0,0.0,0.0,0.0,0.0,0.0,0.0,0.0,0.0,0.0,0.0,0.0,0.0,0.0,0.0,0.0,0.0,0.0,0.0,0.0,0.0,0.0,0.0,0.0,0.0,0.0,0.0,0.0,0.0,0.0,0.0,0.0,0.0,0.0,0.0,4.2001,4.581,4.8504,4.9008,4.7186,4.3484,3.9925,0.0,0.0,0.0,0.0,0.0,0.0,0.0,0.0,0.0,0.0,0.0,0.0,0.0,0.0,0.0,0.0,0.0,0.0,0.0,0.0,0.0,0.0,0.0,0.0,0.0,0.0,0.0,0.0,0.0,0.0,0.0,0.0,0.0,0.0,0.0,0.0,0.0,0.0,0.0,0.0,0.0,0.0,0.0,0.0,0.0,0.0,0.0,0.0,0.0,0.0,0.0,0.0,0.0,0.0,0.0,0.0,0.0,0.0,0.0,0.0,0.0,0.0,0.0,0.0,0.0,0.0,0.0,0.0,0.0,0.0,0.0,0.0,0.0,0.0,0.0,0.0,0.0,0.0,0.0,0.0,0.0,0.0,0.0,0.0,0.0,0.0,0.0,0.0,0.0,0.0,0.0,0.0,0.0,0.0,0.0,0.0,0.0,0.0,0.0,0.0,0.0,0.0,0.0,0.0,0.0,0.0,0.0,0.0,4.313,4.5851,4.9564,5.0398,4.8113,4.5393,4.2135,0.0,0.0,0.0,0.0,0.0,0.0,0.0,0.0,0.0,0.0,0.0,0.0,0.0,0.0,0.0,0.0,0.0,0.0,0.0,0.0,0.0,0.0,0.0,0.0,0.0,0.0,0.0,0.0,0.0,0.0,0.0,0.0,0.0,0.0,0.0,0.0,0.0,0.0,0.0,0.0,0.0,0.0,0.0,0.0,0.0,0.0,0.0,0.0,3.6246,0.0,0.0,0.0,0.0,0.0,0.0,0.0,0.0,0.0,0.0,0.0,0.0,0.0,0.0,0.0,0.0,0.0,0.0,0.0,0.0,0.0,0.0,0.0,0.0,0.0,0.0,0.0,0.0,0.0,0.0,0.0,0.0,0.0,0.0,0.0,0.0,0.0,0.0,0.0,0.0,0.0,0.0,0.0,0.0,0.0,0.0,0.0,0.0,0.0,0.0,0.0,0.0,0.0,0.0,0.0,0.0,0.0,0.0,0.0,4.4778,4.7535,5.0477,5.1358,5.0031,4.8054,4.4745,0.0,0.0,0.0,0.0,0.0,0.0,0.0,0.0,0.0,0.0,0.0,0.0,0.0,0.0,0.0,0.0,0.0,0.0,0.0,0.0,0.0,0.0,0.0,0.0,0.0,0.0,0.0,0.0,0.0,0.0,0.0,0.0,0.0,0.0,0.0,0.0,0.0,0.0,0.0,0.0,0.0,0.0,0.0,0.0,0.0,0.0,0.0,0.0,0.0,0.0,0.0,0.0,0.0,0.0,0.0,0.0,0.0,0.0,0.0,0.0,0.0,0.0,0.0,0.0,0.0,0.0,0.0,0.0,0.0,0.0,0.0,0.0,0.0,0.0,0.0,0.0,0.0,0.0,0.0,0.0,0.0,0.0,0.0,0.0,0.0,0.0,0.0,0.0,0.0,0.0,0.0,0.0,0.0,0.0,0.0,0.0,0.0,0.0,0.0,0.0,0.0,0.0,0.0,0.0,0.0,0.0,0.0,4.3232,4.6686,4.9596,5.1316,5.2055,5.1798,5.0261,4.6847,4.1466,0.0,0.0,0.0,0.0,0.0,0.0,0.0,0.0,0.0,0.0,0.0,0.0,0.0,0.0,0.0,0.0,0.0,0.0,0.0,0.0,0.0,0.0,0.0,0.0,0.0,0.0,0.0,0.0,0.0,0.0,0.0,0.0,0.0,0.0,0.0,0.0,0.0,0.0,3.104,3.4115,0.0,0.0,0.0,0.0,0.0,0.0,0.0,0.0,3.7267,0.0,0.0,0.0,0.0,0.0,0.0,0.0,0.0,0.0,0.0,0.0,0.0,0.0,0.0,0.0,0.0,0.0,0.0,0.0,0.0,0.0,0.0,0.0,0.0,0.0,0.0,0.0,0.0,0.0,0.0,0.0,0.0,0.0,0.0,0.0,0.0,0.0,0.0,0.0,0.0,0.0,0.0,0.0,0.0,0.0,0.0,0.0,0.0,0.0,0.0,0.0,0.0,0.0,0.0,0.0,0.0,4.1662,4.5659,4.8668,5.0545,5.2155,5.2338,5.1022,4.937,4.6507,4.2282,0.0,0.0,0.0,0.0,0.0,0.0,0.0,0.0,0.0,0.0,0.0,0.0,0.0,0.0,0.0,0.0,0.0,0.0,0.0,0.0,0.0,0.0,0.0,0.0,0.0,0.0,0.0,0.0,0.0,0.0,0.0,0.0,0.0,0.0,0.0,0.0,0.0,0.0,0.0,3.7546,3.9281,0.0,0.0,0.0,0.0,0.0,0.0,0.0,0.0,3.6386,0.0,0.0,0.0,0.0,0.0,0.0,0.0,0.0,0.0,0.0,0.0,0.0,0.0,0.0,0.0,0.0,0.0,0.0,0.0,0.0,0.0,0.0,0.0,0.0,0.0,0.0,0.0,0.0,0.0,0.0,0.0,0.0,0.0,0.0,0.0,0.0,0.0,0.0,0.0,0.0,0.0,0.0,0.0,0.0,0.0,0.0,0.0,0.0,0.0,0.0,0.0,0.0,0.0,0.0,0.0,4.28,4.731,5.0173,5.1431,5.2999,5.2852,5.0839,4.8773,4.5796,0.0,0.0,0.0,0.0,0.0,0.0,0.0,0.0,0.0,0.0,0.0,0.0,0.0,0.0,0.0,0.0,0.0,0.0,0.0,0.0,0.0,0.0,0.0,0.0,0.0,0.0,0.0,0.0,0.0,0.0,0.0,0.0,0.0,0.0,0.0,0.0,0.0,0.0,0.0,0.0,3.9702,4.1548,4.0777,0.0,0.0,0.0,0.0,0.0,0.0,3.8218,3.7081,0.0,0.0,0.0,0.0,0.0,0.0,0.0,0.0,0.0,0.0,0.0,0.0,0.0,0.0,0.0,0.0,0.0,0.0,0.0,0.0,0.0,0.0,0.0,0.0,0.0,0.0,0.0,0.0,0.0,0.0,0.0,0.0,0.0,0.0,0.0,0.0,0.0,0.0,0.0,0.0,0.0,0.0,0.0,0.0,0.0,0.0,0.0,0.0,0.0,0.0,0.0,0.0,0.0,0.0,0.0,4.391,4.8636,5.1499,5.2459,5.3739,5.3335,5.1091,4.8627,4.5393,0.0,0.0,0.0,0.0,0.0,0.0,0.0,0.0,0.0,0.0,0.0,0.0,0.0,0.0,0.0,0.0,0.0,0.0,0.0,0.0,0.0,0.0,0.0,0.0,0.0,0.0,0.0,0.0,0.0,0.0,0.0,0.0,0.0,0.0,0.0,0.0,0.0,0.0,0.0,0.0,0.0,4.3515,4.3361,4.2421,0.0,0.0,0.0,0.0,4.1237,4.0206,0.0,0.0,0.0,0.0,0.0,0.0,0.0,0.0,0.0,0.0,0.0,0.0,0.0,0.0,0.0,0.0,0.0,0.0,0.0,0.0,0.0,0.0,0.0,0.0,0.0,0.0,0.0,0.0,0.0,0.0,0.0,0.0,0.0,0.0,0.0,0.0,0.0,0.0,0.0,0.0,0.0,0.0,0.0,0.0,0.0,0.0,0.0,0.0,0.0,0.0,0.0,0.0,0.0,0.0,0.0,0.0,4.5484,4.9747,5.2606,5.4032,5.4331,5.3597,5.1877,4.9444,4.5948,0.0,0.0,0.0,0.0,0.0,0.0,0.0,0.0,0.0,0.0,0.0,0.0,0.0,0.0,0.0,0.0,0.0,0.0,0.0,0.0,0.0,0.0,0.0,0.0,0.0,0.0,0.0,0.0,0.0,0.0,0.0,0.0,0.0,0.0,0.0,0.0,0.0,0.0,0.0,0.0,0.0,4.4851,4.4171,4.5175,4.5742,0.0,0.0,4.3703,4.4584,4.3933,0.0,0.0,0.0,0.0,0.0,0.0,0.0,0.0,0.0,0.0,0.0,0.0,0.0,0.0,0.0,0.0,0.0,0.0,0.0,0.0,0.0,0.0,0.0,0.0,0.0,0.0,0.0,0.0,0.0,0.0,0.0,0.0,0.0,0.0,0.0,0.0,0.0,0.0,0.0,0.0,0.0,0.0,0.0,0.0,0.0,0.0,0.0,0.0,0.0,0.0,0.0,0.0,0.0,0.0,0.0,3.9904,4.5814,5.0802,5.3702,5.4399,5.528,5.4546,5.206,4.9586,4.6026,0.0,0.0,0.0,0.0,0.0,0.0,0.0,0.0,0.0,0.0,0.0,0.0,0.0,0.0,0.0,0.0,0.0,0.0,0.0,0.0,0.0,0.0,0.0,0.0,0.0,0.0,0.0,0.0,0.0,0.0,0.0,0.0,0.0,0.0,0.0,0.0,0.0,0.0,0.0,0.0,0.0,0.0,4.683,4.7434,0.0,0.0,0.0,4.642,4.7661,0.0,0.0,0.0,0.0,0.0,0.0,0.0,0.0,0.0,0.0,0.0,0.0,0.0,0.0,0.0,0.0,0.0,0.0,0.0,0.0,0.0,0.0,0.0,0.0,0.0,0.0,0.0,0.0,0.0,0.0,0.0,0.0,0.0,0.0,0.0,0.0,0.0,0.0,0.0,0.0,0.0,0.0,0.0,0.0,0.0,0.0,0.0,0.0,0.0,0.0,0.0,0.0,0.0,0.0,0.0,0.0,0.0,4.614,5.161,5.4583,5.5023,5.6198,5.5458,5.2679,5.0215,0.0,0.0,0.0,0.0,0.0,0.0,0.0,0.0,0.0,0.0,0.0,0.0,0.0,0.0,0.0,0.0,0.0,0.0,0.0,0.0,0.0,0.0,0.0,0.0,0.0,0.0,0.0,2.2207,0.0,0.0,0.0,0.0,0.0,0.0,0.0,0.0,0.0,0.0,0.0,0.0,0.0,0.0,4.8071,4.9217,4.9654,5.0185,0.0,0.0,4.9507,5.0463,4.9876,4.8318,0.0,0.0,0.0,0.0,0.0,0.0,0.0,0.0,0.0,0.0,0.0,0.0,0.0,0.0,0.0,0.0,0.0,0.0,0.0,0.0,0.0,0.0,0.0,0.0,0.0,0.0,0.0,0.0,0.0,0.0,0.0,0.0,0.0,0.0,0.0,0.0,0.0,0.0,0.0,0.0,0.0,0.0,0.0,0.0,0.0,0.0,0.0,0.0,0.0,0.0,0.0,0.0,0.0,0.0,0.0,4.6929,5.1898,5.5128,5.6559,5.6743,5.5972,5.4252,5.1903,4.8343,0.0,0.0,0.0,0.0,0.0,0.0,0.0,0.0,0.0,0.0,0.0,0.0,0.0,0.0,0.0,0.0,0.0,0.0,0.0,0.0,0.0,0.0,0.0,0.0,0.0,0.0,0.0,0.0,0.0,0.0,0.0,0.0,0.0,0.0,0.0,0.0,0.0,0.0,0.0,0.0,0.0,4.8835,5.0436,5.2073,5.3363,0.0,0.0,5.3819,5.2894,5.2623,5.1148,4.727,0.0,0.0,0.0,0.0,0.0,0.0,0.0,0.0,0.0,0.0,0.0,0.0,0.0,0.0,0.0,0.0,0.0,0.0,0.0,0.0,0.0,0.0,0.0,0.0,0.0,0.0,0.0,0.0,0.0,0.0,0.0,0.0,0.0,0.0,0.0,0.0,0.0,0.0,0.0,0.0,0.0,0.0,0.0,0.0,0.0,0.0,0.0,0.0,0.0,0.0,0.0,0.0,0.0,4.1144,4.7044,5.238,5.5684,5.6774,5.7299,5.6785,5.5181,5.3298,4.9994,0.0,0.0,0.0,0.0,0.0,0.0,0.0,0.0,0.0,0.0,0.0,0.0,0.0,0.0,0.0,0.0,0.0,0.0,0.0,0.0,0.0,0.0,0.0,0.0,0.0,0.0,0.0,0.0,2.5346,2.6007,2.6653,0.0,0.0,0.0,0.0,0.0,0.0,0.0,0.0,0.0,0.0,5.0351,5.3052,5.4809,0.0,0.0,5.6632,5.5921,5.4981,5.3839,5.1886,4.8445,4.5125,0.0,0.0,0.0,0.0,0.0,0.0,0.0,0.0,0.0,0.0,0.0,0.0,0.0,0.0,0.0,0.0,0.0,0.0,0.0,0.0,0.0,0.0,0.0,0.0,0.0,0.0,0.0,0.0,0.0,0.0,0.0,0.0,0.0,0.0,0.0,0.0,0.0,0.0,0.0,0.0,0.0,0.0,0.0,0.0,0.0,0.0,0.0,0.0,0.0,0.0,0.0,0.0,4.1834,4.7624,5.299,5.6087,5.6922,5.7696,5.733,5.5758,5.418,5.1156,0.0,0.0,0.0,0.0,0.0,0.0,0.0,0.0,0.0,0.0,0.0,0.0,0.0,0.0,0.0,0.0,0.0,0.0,0.0,0.0,0.0,0.0,0.0,0.0,0.0,0.0,0.0,0.0,2.7371,2.774,2.8606,0.0,0.0,0.0,0.0,0.0,0.0,0.0,0.0,0.0,0.0,5.2159,5.5268,5.7039,5.8353,5.9187,5.8803,5.7883,5.6516,5.4981,5.2768,4.9477,0.0,0.0,0.0,0.0,0.0,0.0,0.0,0.0,0.0,0.0,0.0,0.0,0.0,0.0,0.0,0.0,0.0,0.0,0.0,0.0,0.0,0.0,0.0,0.0,0.0,0.0,0.0,0.0,0.0,0.0,2.7897,0.0,0.0,0.0,0.0,0.0,0.0,0.0,0.0,0.0,0.0,0.0,0.0,0.0,0.0,0.0,0.0,0.0,0.0,0.0,0.0,0.0,0.0,0.0,4.8888,5.3529,5.6385,5.7158,5.7962,5.758,5.6005,5.443,5.1712,4.771,0.0,0.0,0.0,0.0,0.0,0.0,0.0,0.0,0.0,0.0,0.0,0.0,0.0,0.0,0.0,0.0,0.0,0.0,0.0,0.0,0.0,0.0,0.0,0.0,0.0,0.0,2.8877,2.8947,2.9289,0.0,0.0,0.0,0.0,0.0,0.0,0.0,0.0,0.0,0.0,5.1037,5.4324,5.6736,5.8549,5.9938,6.0655,6.0788,5.993,5.7412,5.6163,5.4254,0.0,0.0,0.0,0.0,0.0,0.0,0.0,0.0,0.0,0.0,0.0,0.0,0.0,0.0,0.0,0.0,0.0,0.0,0.0,0.0,0.0,0.0,0.0,0.0,0.0,0.0,0.0,3.3539,3.307,0.0,0.0,0.0,0.0,0.0,0.0,0.0,0.0,0.0,0.0,0.0,4.3151,4.2986,0.0,0.0,0.0,0.0,0.0,0.0,0.0,0.0,0.0,0.0,0.0,0.0,4.2118,4.8262,5.2761,5.5664,5.6976,5.7261,5.6883,5.5773,5.3761,4.9758,4.3669,0.0,0.0,0.0,0.0,0.0,0.0,0.0,0.0,0.0,0.0,0.0,0.0,0.0,0.0,0.0,0.0,0.0,0.0,0.0,0.0,0.0,0.0,0.0,0.0,0.0,3.0326,0.0,0.0,0.0,0.0,0.0,0.0,0.0,0.0,0.0,0.0,0.0,4.5527,4.9479,5.3283,5.6388,5.8247,6.0372,6.1844,0.0,0.0,0.0,0.0,0.0,0.0,0.0,0.0,0.0,0.0,0.0,0.0,0.0,0.0,5.1235,4.8345,4.7099,4.6007,4.4526,0.0,0.0,0.0,0.0,0.0,0.0,0.0,0.0,0.0,0.0,0.0,0.0,0.0,0.0,3.7479,0.0,3.6569,0.0,0.0,0.0,0.0,0.0,0.0,0.0,0.0,4.5817,4.7044,4.7454,4.7419,4.7647,0.0,4.8021,4.5659,0.0,0.0,0.0,0.0,0.0,0.0,0.0,0.0,4.2997,4.8524,5.2857,5.5525,5.654,5.713,5.6862,5.5749,5.3098,4.8972,4.3282,4.0847,3.7937,0.0,0.0,0.0,0.0,0.0,0.0,0.0,0.0,0.0,0.0,0.0,0.0,0.0,0.0,0.0,0.0,0.0,0.0,0.0,0.0,0.0,0.0,0.0,3.3003,0.0,0.0,0.0,0.0,0.0,0.0,0.0,0.0,0.0,4.2479,4.5457,4.8872,5.2237,5.5768,5.8535,5.9863,0.0,0.0,0.0,0.0,0.0,0.0,0.0,5.6694,5.4886,5.3672,5.3371,5.4676,5.5748,5.664,5.7263,0.0,0.0,5.3643,5.2427,5.1569,5.0081,4.9976,5.0261,5.0765,5.154,5.2462,0.0,0.0,0.0,0.0,0.0,0.0,0.0,0.0,4.1255,4.1192,0.0,3.9989,0.0,0.0,0.0,0.0,0.0,0.0,0.0,0.0,4.8991,5.0487,5.1372,5.1083,5.1511,5.2539,5.2211,5.1459,4.9987,4.331,0.0,0.0,0.0,0.0,0.0,0.0,4.5146,4.9588,5.3749,5.5966,5.6097,5.7471,5.7479,5.5888,5.2541,4.9392,4.6642,4.3895,4.0866,3.7479,3.583,0.0,0.0,0.0,0.0,0.0,0.0,0.0,0.0,0.0,0.0,0.0,0.0,0.0,0.0,0.0,0.0,0.0,0.0,0.0,0.0,3.4981,0.0,0.0,0.0,0.0,0.0,0.0,0.0,0.0,0.0,0.0,4.6955,5.0073,5.3335,5.5563,0.0,0.0,0.0,0.0,6.4176,6.4176,6.4861,6.4524,6.2151,6.108,5.9782,5.759,0.0,0.0,6.113,6.1246,6.1304,6.2023,6.196,6.1111,5.8651,5.756,5.6705,5.5431,5.5238,5.5692,5.6631,5.7263,5.8325,4.9321,0.0,0.0,0.0,0.0,4.4848,4.5502,4.6484,4.6686,4.6945,4.7146,4.6136,0.0,0.0,0.0,0.0,0.0,0.0,4.7665,4.8867,5.1396,5.2866,5.3422,5.4161,5.4522,5.4503,5.4731,5.3947,5.2084,4.8796,4.4981,4.0714,0.0,0.0,0.0,0.0,4.5889,5.0263,5.3428,5.5502,5.6542,5.6994,5.6252,5.4274,5.1851,4.9756,4.8096,4.5613,4.3513,4.1857,3.8847,0.0,0.0,0.0,0.0,0.0,0.0,0.0,0.0,0.0,0.0,0.0,0.0,0.0,0.0,0.0,0.0,0.0,0.0,0.0,3.5833,3.7779,3.8542,0.0,0.0,0.0,0.0,0.0,0.0,0.0,0.0,0.0,5.5157,5.6465,5.7667,0.0,0.0,6.3105,6.3332,6.4794,6.5822,6.5815,0.0,0.0,0.0,6.4414,6.3686,6.302,6.3112,6.3708,6.4832,6.45,6.4119,6.4388,6.434,6.3916,6.286,6.1438,6.0523,6.0441,5.9934,5.9673,6.0593,6.1032,6.1528,5.4695,5.0979,4.936,4.9135,4.9808,4.9835,5.0521,5.1653,5.1653,5.1901,5.2252,5.1011,4.9514,4.7915,4.6958,0.0,0.0,0.0,5.0599,5.1388,5.321,5.4399,5.5019,5.5904,5.6241,5.6085,5.6245,5.5623,5.4269,5.2703,5.0072,4.6435,0.0,0.0,4.3696,4.536,4.7917,5.1398,5.411,5.5919,5.6765,5.6519,5.5708,5.4389,5.2095,5.0465,4.9488,4.7351,4.5622,4.4411,4.1459,3.8536,0.0,0.0,0.0,0.0,0.0,0.0,0.0,0.0,0.0,0.0,0.0,2.6209,0.0,0.0,0.0,0.0,3.3803,3.667,3.9618,4.1042,0.0,0.0,0.0,0.0,0.0,0.0,0.0,5.1551,5.4656,5.755,6.0254,6.1765,6.2401,6.1924,6.3429,6.4684,6.5014,0.0,6.7106,6.7393,6.8134,6.8355,6.7577,6.7056,6.6726,6.6719,6.6719,6.702,6.776,6.7504,6.7203,6.7217,6.719,6.6892,6.5938,6.5341,6.4945,6.4749,6.3892,6.3611,6.4784,6.5024,6.5289,5.9056,5.8195,5.5513,5.4566,5.4846,5.4846,5.5277,5.5927,5.5936,5.6012,5.5962,5.483,5.3601,5.2284,5.0572,0.0,5.0787,5.1832,5.3024,5.4259,5.4669,5.5433,5.6449,5.6911,5.7235,5.7435,5.7148,5.6786,5.6364,5.5193,5.4145,5.3096,4.7871,4.6114,4.786,4.9169,5.0821,5.2826,5.5448,5.6833,5.6867,5.6114,5.5699,5.5665,5.2964,5.1236,5.0705,4.8984,4.7271,4.5611,4.3665,4.1372,3.8779,0.0,0.0,0.0,0.0,0.0,0.0,0.0,0.0,0.0,0.0,0.0,0.0,0.0,0.0,0.0,3.7408,0.0,4.3543,4.4562,0.0,0.0,0.0,4.5007,4.7333,4.9769,5.2491,5.5622,0.0,0.0,6.3086,0.0,6.6923,6.4874,6.5221,6.5955,6.6696,6.751,6.8244,6.8995,6.9779,7.0036,6.9412,6.9215,6.9185,6.9185,6.9148,6.9295,6.9889,6.997,7.0043,6.9889,7.0078,6.966,6.8168,6.8915,6.9692,6.8274,6.7377,6.7193,6.8388,6.8696,6.8856,6.3159,6.2956,6.2245,6.008,5.7112,5.7112,5.7509,5.8201,5.8201,5.8515,5.9007,5.8346,5.7081,5.5416,5.3459,5.2914,5.3487,5.4148,5.4849,5.5545,5.661,5.7636,5.8608,5.948,5.9435,5.8553,5.8699,5.8012,5.6664,5.6153,5.5719,5.5187,5.3206,5.1815,5.1224,5.2074,5.3347,5.4948,5.6165,5.707,5.7586,5.635,5.5699,5.5699,5.2832,5.123,5.1064,4.9228,4.7899,4.7156,4.5384,4.3521,4.1659,3.8879,0.0,0.0,0.0,0.0,0.0,0.0,0.0,0.0,0.0,3.1127,3.3133,0.0,3.5719,0.0,4.0528,4.3612,4.6021,4.7526,0.0,0.0,4.9182,4.9769,5.1557,5.3911,5.6376,5.8951,6.1741,6.4286,6.6256,6.7223,6.7958,6.8538,6.8825,6.9015,6.9236,6.9919,7.0506,7.072,7.1387,7.1835,7.1688,7.1644,7.1615,7.1644,7.113,7.0793,7.0977,7.0513,7.011,7.011,7.0108,7.0085,7.0124,7.0144,7.0512,7.1029,7.022,6.9346,6.975,6.9853,6.9889,6.4613,6.4613,6.4613,6.3159,6.0902,6.0902,6.1095,6.1458,6.0815,6.0723,6.1071,6.0082,5.9089,5.8088,5.6987,5.667,5.697,5.7241,5.7509,5.7814,5.8536,5.9155,5.9664,6.0242,6.015,5.9465,5.961,5.919,5.8252,5.8103,5.7952,5.7832,5.7293,5.6461,5.5302,5.4752,5.5023,5.6172,5.6934,5.7476,5.7823,5.6452,5.5699,5.5631,5.2782,5.1032,5.0736,4.9437,4.8331,4.7596,4.6419,4.5217,4.3889,4.1089,3.8202,0.0,0.0,0.0,0.0,0.0,0.0,0.0,0.0,0.0,0.0,0.0,3.9794,0.0,4.4534,4.7209,4.9576,5.1242,5.2679,5.3885,5.432,5.5018,5.6266,5.8205,6.026,6.2358,6.442,6.6342,6.8024,6.8862,6.9743,7.0991,7.1468,7.1431,7.0807,7.1057,7.1527,7.2232,7.2753,7.3193,7.3479,7.3553,7.3443,7.309,7.2679,7.2268,7.1901,7.1497,7.1174,7.1174,7.1174,7.1248,7.1571,7.1713,7.2065,7.2768,7.2709,7.2165,7.1769,7.1695,7.1769,6.5189,6.5178,6.5189,6.5155,6.5155,6.5087,6.485,6.4512,6.3236,6.2695,6.2594,6.1163,6.0486,6.0394,6.0283,6.0216,6.0114,6.008,6.0148,6.025,6.025,6.0317,6.0385,6.0385,6.0351,6.025,6.025,6.0172,6.0114,6.008,6.008,6.008,6.008,5.9776,5.909,5.7221,5.6486,5.6934,5.7586,5.79,5.7891,5.6452,5.5665,5.5462,5.2731,5.0803,5.0015,4.9345,4.8522,4.7398,4.6934,4.6326,4.5394,4.3013,4.073,0.0,3.7441,0.0,0.0,0.0,0.0,0.0,0.0,0.0,0.0,4.229,4.4195,4.6475,4.883,5.1179,5.3434,5.5097,5.6717,5.8259,5.9092,5.9857,6.0786,6.2285,6.3894,6.5441,6.7033,6.8318,6.9332,7.061,7.1747,7.2635,7.3303,7.323,7.2114,7.1894,7.2408,7.367,7.3861,7.4074,7.461,7.4793,7.4581,7.4001,7.3817,7.3604,7.2966,7.2826,7.2819,7.2826,7.2818,7.2818,7.2789,7.3369,7.3861,7.4125,7.439,7.4434,7.3891,7.3714,7.4074,6.8267,6.8233,6.8267,6.8256,6.8199,6.7557,6.6237,6.458,6.4309,6.4174,6.414,6.325,6.2506,6.1917,6.1332,6.0714,6.0114,6.008,6.0452,6.1095,6.1061,6.14,6.1951,6.1985,6.168,6.1095,6.1095,6.0757,6.008,6.008,6.008,6.008,6.008,6.0013,5.9877,0.0,0.0,0.0,5.7832,5.79,5.7857,5.6452,5.5395,5.4769,5.2461,0.0,4.9255,4.8526,4.7759,4.6952,4.647,0.0,0.0,0.0,0.0,0.0,0.0,0.0,0.0,0.0,0.0,0.0,4.7636,4.742,4.5948,4.7241,4.8945,5.0697,5.2459,5.4216,5.5972,5.7581,5.9165,6.0719,6.1049,6.1747,6.3252,6.4824,6.6182,6.7143,6.8685,7.019,7.1541,7.2121,7.2819,7.414,7.4573,7.4544,7.4243,7.4133,7.4324,7.4654,7.4691,7.4727,7.4867,7.4977,7.5021,7.4691,7.4654,7.4581,7.4397,7.4397,7.4426,7.436,7.4448,7.4374,7.4427,7.4558,7.469,7.4757,7.483,7.4837,7.4691,7.4691,7.4727,6.9079,0.0,6.9079,6.9079,0.0,6.8673,6.7861,6.6745,6.5628,6.4918,6.458,6.4208,6.3825,6.3473,6.3091,6.2709,6.2313,6.2303,6.255,6.2922,6.2922,6.2956,6.2956,6.2922,6.255,6.1839,6.1839,6.1637,6.1231,6.1231,6.1231,6.1231,6.124,6.1061,6.0689,6.0317,5.9539,5.8457,5.8457,5.8254,5.79,5.6824,5.5911,5.5133,0.0,0.0,0.0,0.0,0.0,0.0,0.0,0.0,0.0,0.0,0.0,4.347,4.3981,4.4182,4.3846,4.6013,4.8495,5.0942,5.3119,5.3329,5.0865,5.2197,5.3487,5.4284,5.5825,5.7404,5.9024,6.0266,6.1655,6.3203,6.3766,6.4537,6.5748,6.6923,6.8164,6.9339,7.055,7.1762,7.2936,7.3487,7.414,7.5285,7.5506,7.5645,7.5894,7.5388,7.5021,7.5425,7.5858,7.6078,7.607,7.6078,7.5894,7.5608,7.5498,7.5315,7.4977,7.4903,7.4903,7.4903,7.4897,7.4897,7.4926,7.5196,7.5475,7.5556,7.5821,7.607,7.6078,7.5792,7.5645,6.9485,6.9474,6.9485,6.9485,6.9485,6.935,6.9214,6.8933,0.0,0.0,0.0,6.5053,6.4918,6.4793,6.4783,6.4715,6.4613,6.4613,6.4613,6.4613,6.4613,6.4265,6.368,6.369,6.3386,6.2797,6.2797,6.2797,6.2797,6.2661,6.2627,6.2594,6.2468,6.212,6.1501,6.0825,6.0148,5.9428,5.9293,5.8896,5.8306,5.7442,5.6655,5.5902,5.4465,5.2638,5.0379,5.0312,4.9661,4.8368,4.8271,4.8341,4.8558,4.7734,4.7187,4.7033,4.7624,4.8175,4.8584,5.0392,5.2478,5.4834,5.7364,5.7813,5.5458,5.6449,5.7367,5.7624,5.8976,6.045,6.1887,6.2762,6.393,6.5545,6.6329,6.7033,6.8024,6.8825,6.9883,7.127,7.2158,7.3083,7.4008,7.4698,7.5388,7.6122,7.6497,7.6754,7.7179,7.6335,7.5674,7.6232,7.6738,7.7208,7.7281,7.7208,7.7032,7.6416,7.6306,7.6049,7.5527,7.5307,7.5351,7.5454,7.5335,7.5372,7.541,7.5915,7.628,7.629,7.6812,7.7362,7.7436,7.7003,7.6783,7.0996,7.0985,7.0985,7.0996,7.0962,7.0297,6.9699,6.9011,6.803,6.7523,6.7387,6.6768,6.6136,6.5537,6.5537,6.5189,6.4613,6.4613,6.4613,0.0,6.4613,6.4546,6.4444,6.4444,6.44,6.4309,6.4275,6.4275,6.4241,6.3656,6.3352,6.3284,6.2729,6.2357,6.2255,6.212,6.1714,6.0984,6.0274,5.9911,5.9776,5.8466,5.7383,5.663,5.5218,5.3382,5.1133,5.1074,5.0668,4.9838,4.9203,4.8895,4.8941,4.904,4.8852,4.866,5.0614,5.2067,5.2427,5.485,5.705,5.8784,6.0889,6.1104,5.8792,5.8719,5.9416,6.075,6.1734,6.2689,6.3656,6.4494,6.5595,6.7106,6.7474,6.8098,6.9603,7.0477,7.1307,7.2268,7.3046,7.4118,7.5359,7.5836,7.6269,7.7032,7.77,7.8259,7.8222,7.7582,7.7069,7.7105,7.7208,7.7318,7.7318,7.7318,7.7215,7.7142,7.7069,7.6995,7.6812,7.6767,7.6767,7.6914,7.6796,7.6833,7.6841,7.7017,7.7156,7.7142,7.7362,7.7656,7.8288,7.8295,7.8295,7.1672,7.13,7.1289,7.1289,7.1267,7.0928,7.0635,7.0218,6.9485,6.8921,6.8538,6.8199,6.7624,6.6924,6.688,6.6474,6.5787,6.5787,6.5787,6.5787,6.5797,6.5595,6.5222,6.5199,6.4996,6.4613,6.4613,6.4613,6.458,6.4241,6.4096,6.4062,6.3352,6.299,6.299,6.2594,6.2212,6.1883,6.1163,6.0554,6.0114,5.9438,5.8558,5.7451,5.6706,5.5362,5.3145,5.3036,5.2706,5.1961,5.1615,5.1454,5.1462,5.1637,5.1725,5.1718,5.3264,5.4371,5.4725,5.7463,5.9574,6.065,6.2662,6.3481,6.246,6.2455,6.2829,6.3533,6.3937,6.4677,6.5895,6.6372,6.7247,6.8869,6.9376,7.0146,7.1211,7.2129,7.2892,7.37,7.4507,7.5285,7.5983,7.6864,7.7561,7.8031,7.8736,7.9221,7.9265,7.8927,7.8288,7.7501,7.7318,7.7318,7.7318,7.7318,7.7318,7.7318,7.7318,7.7318,7.7318,7.7318,7.7318,7.7318,7.7318,7.7318,7.7318,7.7693,7.7957,7.8067,7.8442,7.8817,7.9184,7.9551,7.9727,7.2315,7.1808,7.1785,7.1774,7.1785,7.1774,7.1706,7.1503,7.0951,7.0274,6.962,6.9282,6.8741,6.8199,6.8166,6.7861,6.7343,6.714,6.7039,6.7039,6.6869,6.6497,6.5977,6.5943,6.5662,6.5155,6.5077,6.5087,6.5077,6.4952,6.4749,6.458,6.4028,6.3758,6.3758,6.3193,6.2888,6.2864,6.2313,6.1603,6.0655,6.0452,5.981,5.8761,5.8466,5.7509,5.5716,5.5455,5.5015,5.4296,5.4084,5.3983,5.4025,5.4245,5.4473,5.4748,5.5719,5.6519,5.7166,5.9403,6.1114,6.172,6.3847,6.5232,6.5416,6.602,6.6212,6.5919,6.5845,6.6512,6.7877,6.8208,6.8912,7.044,7.1167,7.1894,7.2892,7.3604,7.4294,7.5094,7.5718,7.6166,7.679,7.7781,7.8662,7.9176,7.9698,8.0028,8.0065,8.0073,7.9441,7.8376,7.7847,7.7949,7.7876,7.7913,7.7957,7.7884,7.7921,7.7994,7.7994,7.7921,7.7876,7.7986,7.7949,7.8023,7.7986,7.8405,7.8817,7.889,7.9258,7.9743,8.0028,8.0689,8.0938,7.3353,7.3285,7.3218,7.3285,7.3251,7.3251,7.2868,7.2326,7.2225,7.1785,7.0962,6.9711,6.9113,6.9011,6.8977,6.891,6.8764,6.8132,6.7827,6.7726,6.7106,6.6768,6.6734,6.6734,6.6667,6.6555,6.6565,6.6531,6.643,6.5899,6.5256,6.4681,6.4546,6.4512,6.4478,6.441,6.4377,6.441,6.4343,6.3599,6.2255,6.1535,6.1129,6.0984,6.025,5.9496,5.849,5.7949,5.7248,5.6519,5.5868,5.553,5.5606,5.614,5.653,5.6608,5.788,5.9154,6.0125,6.0928,6.1697,6.247,6.4783,6.6358,6.6757,6.8466,6.8972,6.7887,6.7504,6.8171,6.9639,6.9896,7.0557,7.2048,7.2452,7.2966,7.4324,7.4764,7.5087,7.5909,7.6203,7.6644,7.8002,7.8589,7.925,8.0534,8.0755,8.0893,8.0901,8.0901,8.0661,7.9827,7.9554,7.9515,7.9441,7.9559,7.9331,7.9412,7.9522,7.9368,7.9294,7.9331,7.9515,7.9074,7.9368,7.9331,7.9368,7.9669,7.9669,7.9698,7.9882,8.0102,8.0755,8.146,8.1599,7.3894,7.3488,7.3488,7.3488,7.3488,7.3488,7.3319,7.3082,7.3048,7.2631,7.1954,7.13,7.0567,6.9766,6.9755,6.9519,6.9079,6.8774,6.8605,6.8605,6.8301,6.8155,6.8166,6.8155,6.7929,6.7489,6.7444,6.7252,6.6802,6.6508,6.6193,6.5855,6.5493,6.5266,6.5199,6.4816,6.4613,6.4613,6.4613,6.4309,6.37,6.299,6.2202,6.1366,6.0984,6.0443,5.9733,5.9336,5.9066,5.8761,5.8457,5.8321,5.8321,5.8592,5.8761,5.8795,5.9293,6.0116,6.1102,6.1977,6.2936,6.3991,6.6001,6.7319,6.7701,6.8832,6.9376,6.9311,6.916,6.9779,7.1233,7.1505,7.2165,7.3626,7.4331,7.4874,7.5498,7.6049,7.6665,7.7414,7.7561,7.7965,7.9074,7.9727,8.0461,8.1489,8.1709,8.1672,8.1672,8.1709,8.157,8.1309,8.1219,8.0747,8.0099,7.9792,7.9845,7.9816,7.9816,7.9816,7.989,7.9816,7.9779,7.9853,7.9926,7.9926,7.9706,8.0249,8.0498,8.0571,8.102,8.135,8.1672,8.1966,8.1966,7.4593,7.4131,7.4109,7.4097,7.4097,7.4097,7.3996,7.3781,7.3781,7.3387,7.2732,7.2699,7.2124,7.1154,7.0703,7.0195,6.9722,6.9485,6.9383,6.9383,6.9214,6.9079,6.9079,6.9079,6.8808,6.8301,6.8233,6.785,6.714,6.6859,6.6802,6.67,6.6271,6.6,6.5943,6.5425,6.5212,6.5222,6.5212,6.5121,6.485,6.4377,6.3497,6.2337,6.2009,6.1627,6.1052,6.0655,6.0419,6.0419,6.0216,6.008,6.0114,6.0317,6.0622,6.1028,6.1231,6.1627,6.2329,6.3114,6.4029,6.5179,6.6828,6.8001,6.8511,6.9308,7.0089,7.0577,7.0654,7.1172,7.2351,7.2885,7.3655,7.5012,7.5937,7.6489,7.6827,7.7509,7.8222,7.8817,7.8846,7.9213,8.0021,8.0791,8.1525,8.2003,8.215,8.2186,8.2186,8.215,8.215,8.2186,8.2194,8.1729,8.067,8.0592,8.0469,8.0477,8.0587,8.0616,8.0469,8.0477,8.0477,8.0918,8.0587,8.0514,8.0771,8.1166,8.1305,8.1415,8.1746,8.2121,8.2076,8.2186,8.2186,7.5642,7.5586,7.5574,7.5518,7.5574,7.5506,7.5168,7.4547,7.4547,7.4153,7.3488,7.3466,7.3387,7.3161,7.1887,7.1267,7.1097,7.05,7.0206,7.0105,6.9485,6.9113,6.9079,6.9079,6.9113,6.9045,6.9045,6.8639,6.7861,6.7208,6.6802,6.6836,6.6802,6.6734,6.6734,6.6633,6.6667,6.6565,6.6531,6.6339,6.574,6.5605,6.5199,6.441,6.3768,6.3318,6.3149,6.1999,6.1289,6.1255,6.0689,6.025,6.025,6.0892,6.1931,6.3115,6.3893,6.4343,6.4397,6.4515,6.4862,6.5485,6.7249,6.8379,6.8926,7.0427,7.1425,7.1761,7.1657,7.2057,7.2927,7.3684,7.4624,7.5789,7.672,7.7538,7.8369,7.8964,7.9596,7.9743,7.9816,8.0175,8.0865,8.1636,8.2003,8.215,8.2186,8.2186,8.2186,8.2186,8.2186,8.2186,8.2186,8.215,8.2039,8.1709,8.1782,8.1754,8.157,8.1893,8.2048,8.2121,8.2011,8.1974,8.1754,8.1754,8.2011,8.2084,8.2003,8.2003,8.2003,8.2186,8.2186,8.2186,8.2186,7.5676,7.5676,7.5676,7.5676,7.5676,7.5676,7.5528,7.5337,7.5292,7.4897,7.4289,7.4187,7.395,7.3454,7.2947,7.2428,7.2011,7.1718,7.1345,7.0939,7.0624,7.0522,7.0522,7.0522,7.0229,6.9857,6.98,6.9428,6.8741,6.8402,6.8256,6.8155,6.776,6.7523,6.7421,6.7039,6.6802,6.6802,6.6802,6.6656,6.6464,6.6396,6.6261,6.5956,6.484,6.4197,6.4208,6.369,6.3419,6.3419,6.3115,6.299,6.3024,6.326,6.3632,6.414,6.4444,6.5019,6.5821,6.6024,6.6555,6.7818,6.8737,6.9408,6.9842,7.0663,7.1268,7.1363,7.1803,7.2436,7.3364,7.4162,7.5232,7.6777,7.7686,7.8448,7.9184,7.9669,7.9992,8.0498,8.0983,8.1497,8.1644,8.2048,8.2194,8.2186,8.2186,8.2186,8.2186,8.2186,8.2186,8.2186,8.2186,8.2186,8.2186,8.215,8.215,8.215,8.2113,8.2076,8.2158,8.2194,8.2084,8.2084,8.2186,8.2186,8.2158,8.2158,8.2186,8.2186,8.2186,8.2186,8.2186,8.2186,8.2186,7.5676,7.5676,7.5676,7.5676,7.5676,7.5676,7.5676,7.5676,7.5676,7.5405,7.5021,7.4953,7.4661,7.4266,7.4199,7.3781,7.3105,7.2868,7.236,7.1672,7.1639,7.1537,7.1334,7.1289,7.1041,7.0567,7.0274,6.9936,6.9462,6.9214,6.9113,6.9011,6.8538,6.829,6.8199,6.7783,6.7546,6.7546,6.7546,6.7546,6.7546,6.7546,6.7546,6.7411,6.6576,6.5662,6.503,6.4715,6.4613,6.4613,6.4613,6.4613,6.4613,6.4816,6.5053,6.529,6.555,6.6203,6.7309,6.7546,6.805,6.9194,6.9778,7.0125,7.0283,7.0946,7.1322,7.1549,7.2087,7.2977,7.3753,7.4399,7.554,7.7391,7.8448,7.9154,7.9726,8.0002,8.0499,8.1065,8.1623,8.2047,8.2178,8.2186,8.2186,8.2186,8.2186,8.2186,8.2186,8.2186,8.2186,8.2186,8.2186,8.2186,8.2186,8.2186,8.2186,8.2186,8.2186,8.2186,8.2186,8.2186,8.2186,8.2186,8.2186,8.2186,8.2186,8.2186,8.2186,8.2186,8.2186,8.2186,8.2186,8.2186,8.2186,7.5676,7.5676,7.5676,7.5676,7.5676,7.5676,7.5676,7.5676,7.5676,7.5642,7.554,7.5642,7.554,7.5574,7.5439,7.5202,7.4492,7.3883,7.3184,7.2462,7.2394,7.2056,7.1537,7.1537,7.1537,7.1402,7.0669,7.0353,7.0375,6.9789,6.9451,6.9282,6.9214,6.9113,6.9113,6.8944,6.8977,6.891,6.8842,6.8944,6.9079,6.891,6.8876,6.8944,6.8808,6.7827,6.5909,6.5222,6.4986,6.485,6.4884,6.4715,6.5087,6.5571,6.6112,6.6802,6.7455,6.8199,6.891,6.9079,6.9147,6.963,6.9969,7.0565,7.0823,7.1671,7.2361,7.2463,7.296,7.364,7.4147,7.471,7.5698,7.7454,7.8648,7.942,7.9826,8.0459,8.1098,8.142,8.1706,8.1952,8.2129,8.2186,8.2186,8.2186,8.2296,8.237,8.2406,8.2488,8.2341,8.2276,8.2378,8.2472,8.2333,8.2186,8.2186,8.2186,8.2186,8.2186,8.2186,8.2186,8.2186,8.2186,8.2186,8.2186,8.2186,8.2186,8.2186,8.2186,8.2186,8.2186,8.2186,8.2186,8.2186,7.5676,7.5676,7.5676,7.5676,7.5676,7.5676,7.5676,7.5709,7.5676,7.5676,7.5676,7.5676,7.5676,7.5676,7.5676,7.5574,7.5325,7.5067,7.4368,7.3341,7.3184,7.3048,7.2812,7.2778,7.2845,7.2778,7.2609,7.2439,7.227,7.1684,7.1379,7.121,7.0342,6.9902,6.9868,6.9394,6.9079,6.9079,6.9079,6.9079,6.9079,6.9113,6.9113,6.9079,6.9079,6.8707,6.8098,6.7827,6.7421,6.688,6.7387,6.7692,6.7726,6.7895,6.8132,6.8368,6.8571,6.9045,6.98,7.0353,7.0838,7.1345,7.2033,7.2406,7.2473,7.2857,7.315,7.315,7.3398,7.3808,7.4628,7.5171,7.5982,7.7021,7.7911,7.871,7.9267,7.9789,8.0302,8.0858,8.1248,8.1683,8.2108,8.2251,8.2325,8.237,8.27,8.3022,8.3067,8.3422,8.3553,8.3194,8.3072,8.2875,8.2737,8.2553,8.2443,8.237,8.2296,8.2186,8.2186,8.2186,8.2186,8.2186,8.2186,8.2186,8.2186,8.2186,8.2186,8.2186,8.2186,8.2186,8.2186,8.2186,8.2186,7.5676,7.5676,7.5676,7.5879,7.6115,7.6149,7.6318,7.6487,7.6263,7.6149,7.6115,7.5811,7.5676,7.5676,7.5676,7.5676,7.5676,7.5676,7.5202,7.4356,7.3996,7.3793,7.3522,7.3488,7.3488,7.3488,7.3488,7.3488,7.3454,7.3048,7.2812,7.2563,7.1594,7.1052,7.0939,7.0331,6.9914,6.9925,6.9947,6.9914,6.9914,6.9925,6.9914,6.9914,6.9914,6.9789,6.9586,6.9755,6.9417,6.8639,6.8842,6.9079,6.9079,6.9045,6.9214,6.9519,6.9823,7.0263,7.0984,7.1718,7.2293,7.2812,7.3251,7.3454,7.3534,7.3691,7.3916,7.3894,7.4199,7.4562,7.519,7.5502,7.6028,7.6808,7.7485,7.813,7.8827,7.9367,8.0137,8.0871,8.1532,8.2113,8.2636,8.2943,8.3001,8.3152,8.3499,8.3866,8.394,8.425,8.4137,8.4006,8.3875,8.3593,8.3214,8.2957,8.2729,8.259,8.2443,8.2296,8.2186,8.2186,8.2186,8.2186,8.2186,8.2186,8.2186,8.2186,8.2186,8.2186,8.2186,8.2186,8.2186,8.2186,8.2186,7.5674,7.5686,7.5743,7.6217,7.6826,7.6893,7.7278,7.7751,7.7232,7.6893,7.669,7.6149,7.5777,7.5709,7.5676,7.5676,7.5676,7.5676,7.5642,7.5371,7.4953,7.439,7.3928,7.3894,7.3894,7.3827,7.3793,7.3737,7.3872,7.3657,7.3556,7.3443,7.2766,7.236,7.209,7.1639,7.1233,7.1097,7.1165,7.112,7.112,7.1165,7.1267,7.1267,7.1267,7.1075,7.077,7.1109,7.0725,6.9474,6.9383,6.9485,6.9383,6.9282,6.9823,7.0545,7.1075,7.1639,7.2428,7.3003,7.3443,7.3556,7.3725,7.3624,7.3894,7.4492,7.4886,7.4897,7.5451,7.5857,7.5948,7.5996,7.636,7.6907,7.7514,7.8117,7.8736,7.9236,7.9916,8.1113,8.213,8.2911,8.35,8.3845,8.4106,8.4375,8.4499,8.4646,8.4747,8.4849,8.4778,8.4697,8.466,8.4347,8.396,8.3691,8.3463,8.3398,8.3177,8.2884,8.2663,8.2627,8.2553,8.248,8.2415,8.2341,8.2186,8.2194,8.2186,8.2186,8.2186,8.2186,8.2186,8.2186,8.2223,7.5219,7.5501,7.6234,7.6724,7.6995,7.7481,7.7819,7.7988,7.7819,7.7435,7.6961,7.6702,7.6284,7.5743,7.5743,7.5676,7.5743,7.5709,7.5676,7.5676,7.554,7.5337,7.5168,7.51,7.5067,7.5033,7.4965,7.5146,7.5078,7.4559,7.4322,7.4277,7.3578,7.2935,7.2428,7.2225,7.1819,7.1368,7.1334,7.1368,7.1357,7.1357,7.1605,7.2078,7.2078,7.2259,7.2541,7.2812,7.2259,7.0894,7.0725,7.1007,7.1379,7.1447,7.1718,7.2338,7.2744,7.2935,7.3285,7.3916,7.4277,7.4378,7.4864,7.5134,7.5146,7.5845,7.6251,7.642,7.6961,7.7345,7.7345,7.7345,7.7515,7.7653,7.7976,7.8133,7.8317,7.8679,7.9281,8.0094,8.1031,8.2103,8.3074,8.3738,8.4186,8.4623,8.5097,8.5453,8.5546,8.584,8.5933,8.5597,8.5405,8.5055,8.4742,8.4445,8.427,8.4278,8.4095,8.383,8.3683,8.3618,8.3463,8.3316,8.3186,8.312,8.257,8.2268,8.2231,8.2525,8.2333,8.2406,8.226,8.2231,8.2268,7.5218,7.5959,7.6957,7.7536,7.7874,7.828,7.8619,7.8834,7.8551,7.8247,7.7841,7.7468,7.7109,7.6657,7.6364,7.6217,7.6149,7.5845,7.5676,7.5676,7.5676,7.5642,7.5676,7.5676,7.5676,7.5676,7.5676,7.5676,7.5608,7.527,7.5089,7.492,7.4322,7.3747,7.3409,7.2969,7.2665,7.2326,7.2225,7.2225,7.2214,7.2225,7.2428,7.28,7.2868,7.3105,7.3454,7.3454,7.3048,7.2394,7.2259,7.2428,7.2778,7.2868,7.3048,7.3534,7.3759,7.395,7.4153,7.492,7.5528,7.5709,7.6263,7.6601,7.6724,7.713,7.7367,7.7401,7.7773,7.7954,7.8056,7.8259,7.845,7.8496,7.8733,7.8754,7.8517,7.8854,7.9426,8.0201,8.1116,8.2089,8.3254,8.3891,8.4546,8.524,8.586,8.6129,8.6308,8.6749,8.6895,8.6429,8.6192,8.5952,8.5676,8.5371,8.5123,8.5086,8.5049,8.4784,8.4564,8.449,8.4233,8.4058,8.3965,8.3753,8.3267,8.3047,8.3349,8.3459,8.3002,8.2737,8.27,8.2561,8.2561,7.5363,7.6561,7.7589,7.8422,7.8962,7.9169,7.9532,7.9938,7.9498,7.9114,7.8877,7.836,7.7988,7.7954,7.721,7.6995,7.6961,7.6454,7.6014,7.5912,7.5811,7.5676,7.5676,7.5676,7.5676,7.5676,7.5676,7.5676,7.5676,7.5642,7.5642,7.5461,7.4953,7.4649,7.4277,7.3894,7.3578,7.3353,7.3218,7.3218,7.3218,7.3218,7.3353,7.3578,7.3827,7.386,7.3894,7.386,7.3759,7.3759,7.3635,7.3454,7.3522,7.3624,7.3725,7.3928,7.4424,7.4762,7.5021,7.6082,7.686,7.6961,7.7515,7.7988,7.7853,7.7954,7.8124,7.8111,7.8191,7.8428,7.8496,7.8889,7.916,7.9249,7.9769,7.9769,7.9456,7.9426,8.0009,8.1031,8.1769,8.27,8.362,8.4523,8.5186,8.5373,8.6018,8.6358,8.658,8.6867,8.6978,8.6859,8.6822,8.6904,8.6619,8.6334,8.6077,8.593,8.593,8.5747,8.5408,8.5233,8.4976,8.4801,8.4744,8.4597,8.425,8.4295,8.445,8.423,8.3728,8.3581,8.3499,8.3287,8.3177,7.4721,7.5793,7.7445,7.8388,7.8872,7.9613,8.004,8.0175,8.004,7.9587,7.9181,7.8911,7.8551,7.8022,7.7887,7.7751,7.7751,7.7447,7.7232,7.6589,7.5946,7.5743,7.5709,7.5709,7.5709,7.5743,7.5709,7.5709,7.5743,7.5811,7.5709,7.5676,7.5506,7.5168,7.4649,7.448,7.4052,7.3624,7.3556,7.3624,7.3624,7.3657,7.3894,7.4322,7.4864,7.5134,7.5202,7.5236,7.5248,7.4977,7.4334,7.4063,7.4289,7.4378,7.4627,7.5078,7.5303,7.5743,7.6318,7.6758,7.7198,7.7751,7.8022,7.8022,7.8056,7.8585,7.8809,7.8978,7.9363,7.9545,7.9578,7.9803,7.987,7.9938,8.004,8.0141,7.9984,7.9988,8.0206,8.0508,8.1019,8.1578,8.2324,8.3296,8.4195,8.5247,8.5926,8.642,8.6715,8.6917,8.7006,8.6997,8.7014,8.7014,8.6913,8.6693,8.6582,8.6436,8.6481,8.6518,8.6179,8.6077,8.5857,8.5682,8.5552,8.536,8.5159,8.4869,8.4905,8.4694,8.4535,8.4425,8.4278,8.4022,8.3948,7.404,7.5464,7.7303,7.8335,7.8876,7.9778,8.0209,8.0209,8.0209,7.9959,7.9655,7.9634,7.9397,7.8991,7.8686,7.8517,7.8416,7.8124,7.7582,7.6927,7.642,7.6082,7.5845,7.6082,7.6251,7.6251,7.6296,7.642,7.6623,7.642,7.6318,7.6217,7.5958,7.5506,7.5168,7.5122,7.4931,7.4672,7.4537,7.4537,7.4537,7.4537,7.4627,7.5067,7.5506,7.5676,7.5642,7.6082,7.6217,7.6161,7.5823,7.5349,7.5134,7.5134,7.5506,7.6082,7.6251,7.6623,7.7232,7.7739,7.8145,7.8483,7.88,7.9003,7.9071,7.9431,7.9553,7.9701,7.9938,8.0175,8.0209,8.0175,8.0209,8.0209,8.0209,8.0209,8.0209,8.0209,8.0209,8.0284,8.0622,8.1083,8.1674,8.2405,8.3329,8.4452,8.528,8.5756,8.6483,8.6724,8.6891,8.6934,8.7006,8.7014,8.7014,8.6949,8.6913,8.6839,8.6803,8.6839,8.6693,8.6729,8.6766,8.6489,8.6204,8.6269,8.6105,8.5777,8.5577,8.5758,8.5673,8.538,8.5013,8.4682,8.4756,7.3355,7.5154,7.6907,7.8056,7.879,7.9665,8.0082,8.0145,8.0196,8.0175,8.0175,8.0209,8.004,8.0006,7.9532,7.9295,7.9092,7.8551,7.7942,7.749,7.7198,7.6792,7.6499,7.6792,7.7164,7.7198,7.713,7.7401,7.7536,7.7435,7.7063,7.6961,7.6487,7.6284,7.6115,7.6048,7.6115,7.606,7.606,7.606,7.606,7.606,7.6093,7.6149,7.6229,7.6284,7.6386,7.6724,7.7075,7.7096,7.765,7.7244,7.6466,7.6093,7.6296,7.7029,7.7063,7.7435,7.8077,7.8653,7.9012,7.9215,7.9769,8.0107,8.0107,8.0073,8.0073,8.0107,8.0209,8.0209,8.0209,8.0209,8.0276,8.0378,8.0412,8.0412,8.05,8.0513,8.0615,8.0234,8.0397,8.0703,8.1109,8.1685,8.2643,8.3613,8.439,8.5225,8.5978,8.6547,8.6744,8.6945,8.7006,8.7014,8.7014,8.706,8.706,8.7014,8.7014,8.7014,8.7014,8.6986,8.6949,8.6986,8.6839,8.6803,8.6766,8.6528,8.6528,8.6839,8.6619,8.6114,8.571,8.538,8.5563,7.3046,7.4251,7.5823,7.7004,7.7905,7.8981,7.9567,7.9891,8.0107,8.0209,8.0209,8.0209,8.0209,8.0141,8.0141,8.0006,7.9735,7.9228,7.8775,7.8483,7.8111,7.7616,7.7515,7.7684,7.809,7.845,7.8247,7.8056,7.809,7.7887,7.7807,7.7785,7.7582,7.7481,7.7447,7.7582,7.7413,7.7312,7.7345,7.7379,7.7379,7.7379,7.7379,7.7379,7.7345,7.7413,7.7515,7.7684,7.7819,7.7819,7.7954,7.7853,7.7684,7.7616,7.7684,7.7739,7.7819,7.8145,7.8822,7.9012,7.9464,7.9837,8.0141,8.0175,8.0209,8.0209,8.0242,8.031,8.031,8.0276,8.0209,8.0412,8.0581,8.0898,8.1169,8.1338,8.1752,8.1786,8.138,8.0729,8.0521,8.0529,8.1112,8.1586,8.231,8.3203,8.3928,8.4848,8.5765,8.6277,8.6648,8.6835,8.7014,8.7014,8.7014,8.706,8.7096,8.7023,8.7014,8.7014,8.7014,8.7014,8.7014,8.7014,8.7014,8.6949,8.6949,8.7014,8.6986,8.6949,8.6839,8.6729,8.6436,8.6142,8.6325,7.2108,7.2984,7.4172,7.5295,7.6508,7.7961,7.8849,7.9386,7.9921,8.0209,8.0209,8.0209,8.0209,8.0209,8.0209,8.0209,8.0061,7.987,7.9452,7.908,7.8708,7.8314,7.8191,7.8394,7.8708,7.9046,7.9046,7.9092,7.9092,7.8754,7.8585,7.845,7.8213,7.8022,7.7988,7.7921,7.8056,7.8056,7.8056,7.8056,7.8022,7.8022,7.8022,7.8022,7.8056,7.8022,7.809,7.845,7.8551,7.8653,7.8923,7.9092,7.9092,7.9058,7.8957,7.8653,7.8585,7.8889,7.9486,7.9655,7.987,8.0107,8.0209,8.0209,8.0209,8.0209,8.0412,8.075,8.1211,8.1346,8.1426,8.1291,8.1528,8.1765,8.1866,8.2035,8.2306,8.2428,8.2022,8.1447,8.1554,8.1626,8.1584,8.1969,8.2231,8.2799,8.345,8.4419,8.5452,8.6115,8.6595,8.7414,8.7745,8.7748,8.7647,8.7463,8.7353,8.7206,8.7014,8.7014,8.7014,8.7014,8.7014,8.7014,8.7014,8.7014,8.7014,8.7014,8.7014,8.7014,8.6949,8.6876,8.6949,8.6986,8.7014,7.1261,7.187,7.269,7.3764,7.5108,7.6795,7.7901,7.8644,7.9438,7.9781,7.9857,7.9819,7.9806,7.9857,7.9883,7.9955,8.0031,8.0002,7.9761,7.9486,7.935,7.8991,7.8788,7.8923,7.935,7.9486,7.9756,8.0209,7.9938,7.9553,7.935,7.9228,7.8686,7.8462,7.8563,7.8699,7.8462,7.8428,7.8428,7.8462,7.8428,7.8428,7.8428,7.8428,7.8462,7.853,7.8699,7.9058,7.9295,7.9464,7.9769,8.0141,8.0175,8.0209,7.9938,7.9452,7.9317,7.9667,7.9972,8.0141,8.0107,8.0209,8.0209,8.0276,8.0547,8.075,8.0987,8.1494,8.1934,8.2259,8.2158,8.2327,8.2428,8.2611,8.2644,8.2699,8.2936,8.3105,8.3139,8.2868,8.2834,8.2577,8.2345,8.2147,8.2377,8.2595,8.3255,8.3971,8.502,8.6066,8.6829,8.807,8.8664,8.8705,8.8528,8.8087,8.7867,8.7573,8.7243,8.7014,8.7014,8.7014,8.7023,8.7023,8.7014,8.7014,8.7014,8.7014,8.7014,8.7014,8.7014,8.7014,8.7014,8.7014,8.7014,7.1115,7.1501,7.2186,7.3108,7.4191,7.5707,7.6734,7.7346,7.8243,7.8691,7.8591,7.8664,7.8604,7.8644,7.8902,7.9139,7.9399,7.9678,7.9854,7.9888,7.9938,7.9904,7.9883,8.0006,7.9938,7.9972,8.0141,8.0175,8.0242,8.0141,8.0006,7.9904,7.9837,7.9904,7.9781,7.9646,7.9951,7.9904,7.987,7.9837,7.9803,7.9815,7.9815,7.9803,7.9803,7.9748,7.968,7.987,7.9938,8.0006,8.0107,8.0209,8.0209,8.0209,8.0175,8.0107,8.0073,8.012,8.0209,8.031,8.0344,8.0378,8.0344,8.0581,8.1088,8.1731,8.2103,8.2225,8.2475,8.2611,8.2699,8.253,8.2767,8.3118,8.3389,8.368,8.3971,8.3734,8.3802,8.387,8.3748,8.3206,8.2813,8.259,8.2451,8.2696,8.3087,8.3837,8.4819,8.6111,8.7276,8.8567,8.9439,8.9551,8.9392,8.8933,8.8564,8.8124,8.7757,8.7316,8.728,8.7316,8.706,8.706,8.706,8.7023,8.7014,8.7014,8.7014,8.7014,8.7014,8.7014,8.7014,8.7014,8.7014,7.067,7.1162,7.1437,7.1997,7.2875,7.4052,7.4899,7.5586,7.6443,7.6883,7.6851,7.6851,7.6851,7.6995,7.7374,7.7934,7.8518,7.9014,7.9652,8.0082,8.0205,8.023,8.0175,8.0209,8.0209,8.0412,8.0581,8.0864,8.0729,8.0412,8.0209,8.0276,8.0276,8.039,8.0729,8.039,8.0492,8.0547,8.0458,8.0209,8.0209,8.0209,8.0209,8.0209,8.0242,8.0276,8.0276,8.0209,8.0209,8.0209,8.0209,8.0209,8.0209,8.0209,8.0209,8.0209,8.0627,8.0593,8.031,8.0615,8.075,8.0953,8.1156,8.1663,8.2035,8.2577,8.3016,8.3016,8.3443,8.3578,8.3578,8.3646,8.3815,8.4018,8.3984,8.4187,8.4444,8.4512,8.4444,8.4546,8.4546,8.3937,8.3498,8.3477,8.3436,8.3587,8.3942,8.4514,8.5654,8.701,8.813,8.9194,8.9914,9.0373,9.0127,8.9787,8.9464,8.9069,8.8821,8.8381,8.7867,8.7684,8.7573,8.7243,8.706,8.7023,8.706,8.7014,8.7014,8.7014,8.7014,8.7014,8.7014,8.7014,8.7014,7.0201,7.0873,7.0903,7.1244,7.1838,7.2721,7.3399,7.396,7.4826,7.5208,7.5193,7.5222,7.5208,7.5339,7.5902,7.6659,7.7506,7.8183,7.9068,7.9704,8.0148,8.0308,8.0583,8.0647,8.0775,8.075,8.1325,8.1541,8.1405,8.1169,8.0919,8.075,8.0987,8.1122,8.1304,8.1224,8.119,8.146,8.1122,8.0919,8.0851,8.0851,8.0851,8.0818,8.0737,8.0737,8.0716,8.0547,8.0526,8.0526,8.0276,8.0276,8.0479,8.0593,8.075,8.0919,8.1359,8.1405,8.119,8.1325,8.1541,8.1799,8.2205,8.2611,8.2733,8.3321,8.3795,8.3795,8.412,8.4424,8.458,8.4512,8.4444,8.4444,8.4525,8.458,8.458,8.458,8.458,8.458,8.458,8.458,8.4309,8.4444,8.4492,8.4586,8.4858,8.5186,8.6094,8.7221,8.802,8.8825,8.9814,9.0383,9.0571,9.0328,9.0109,8.9914,8.9658,8.9281,8.8694,8.8445,8.8381,8.794,8.7427,8.7407,8.7591,8.7288,8.7014,8.7014,8.7014,8.7014,8.7014,8.7014,8.7014,6.9782,7.0903,7.0903,7.1083,7.1469,7.217,7.2642,7.2968,7.3661,7.3934,7.3873,7.3965,7.3888,7.4085,7.4548,7.5312,7.6277,7.693,7.8001,7.9057,7.9901,8.0348,8.0842,8.1334,8.1797,8.2064,8.2272,8.2306,8.2374,8.2374,8.2238,8.2238,8.1955,8.2158,8.2293,8.2171,8.2022,8.2205,8.1955,8.1989,8.1989,8.2022,8.2056,8.209,8.2158,8.2225,8.2158,8.1562,8.1236,8.1202,8.0796,8.0716,8.1135,8.1236,8.1426,8.1832,8.2124,8.2205,8.2205,8.2205,8.2327,8.253,8.2949,8.3422,8.3456,8.4086,8.4458,8.439,8.4525,8.4559,8.458,8.458,8.458,8.458,8.458,8.458,8.458,8.458,8.458,8.458,8.458,8.458,8.458,8.458,8.458,8.464,8.4667,8.4951,8.5425,8.6407,8.7161,8.8079,8.9274,9.0051,9.064,9.0564,9.0372,9.0283,9.0118,8.9797,8.9355,8.9226,8.9188,8.883,8.839,8.826,8.8012,8.7647,8.7344,8.7088,8.7014,8.7014,8.7014,8.7014,8.7014,7.0111,7.0889,7.0903,7.0984,7.1129,7.1357,7.155,7.1693,7.1964,7.2075,7.2122,7.2075,7.2075,7.2265,7.2736,7.3537,7.4458,7.5525,7.6633,7.769,7.8616,7.9659,8.0468,8.1283,8.1697,8.24,8.2813,8.3084,8.3084,8.3375,8.3714,8.3578,8.2902,8.28,8.2868,8.3037,8.2868,8.253,8.2462,8.2428,8.2395,8.2395,8.2395,8.2395,8.2395,8.2395,8.2327,8.2124,8.2002,8.19,8.1663,8.1731,8.19,8.1968,8.2171,8.253,8.2834,8.3037,8.3071,8.3118,8.3287,8.3748,8.4018,8.4153,8.4086,8.4458,8.458,8.458,8.458,8.458,8.458,8.458,8.458,8.458,8.4681,8.4749,8.483,8.4931,8.4918,8.5053,8.4783,8.458,8.458,8.458,8.458,8.4593,8.462,8.4739,8.5191,8.5583,8.6368,8.716,8.8329,8.9175,8.977,9.0149,9.0552,9.0513,9.0398,9.019,8.9908,9.0116,8.9996,8.9638,8.9225,8.8895,8.8519,8.8033,8.7593,8.7198,8.7023,8.7014,8.7014,8.7014,8.7014,7.0366,7.0873,7.0903,7.0903,7.0903,7.0903,7.0903,7.0903,7.0967,7.0903,7.0903,7.0903,7.0903,7.1097,7.1775,7.2586,7.3648,7.4655,7.5705,7.6856,7.8044,7.9202,8.0254,8.1274,8.2301,8.2949,8.349,8.3828,8.3849,8.4343,8.4411,8.4153,8.368,8.3578,8.368,8.3795,8.3545,8.3172,8.3071,8.3058,8.3092,8.3139,8.3139,8.3172,8.3206,8.3193,8.3139,8.2936,8.2746,8.2644,8.2509,8.2496,8.2631,8.2767,8.2834,8.3139,8.3443,8.3795,8.3815,8.3883,8.4065,8.4343,8.4492,8.4546,8.458,8.4614,8.458,8.458,8.458,8.4614,8.4695,8.483,8.5046,8.5182,8.5574,8.5709,8.5675,8.5709,8.5642,8.5594,8.5391,8.5439,8.5473,8.554,8.5067,8.4918,8.4627,8.4667,8.4832,8.5204,8.5583,8.6405,8.7268,8.8012,8.871,8.9075,8.9492,8.9983,9.0018,9.0458,9.044,9.0676,9.0859,9.062,9.017,8.9593,8.9079,8.8648,8.7886,8.7124,8.706,8.7014,8.7014,8.7014,8.7014,7.035,7.0873,7.0903,7.0903,7.0903,7.0903,7.0903,7.0903,7.0903,7.0949,7.1009,7.0979,7.1068,7.1269,7.2089,7.2696,7.3362,7.4377,7.5394,7.6415,7.7602,7.9316,8.0793,8.1905,8.2843,8.4204,8.4458,8.439,8.4458,8.4546,8.458,8.4796,8.4661,8.4492,8.458,8.458,8.4546,8.4512,8.4411,8.4309,8.4275,8.4242,8.4221,8.4187,8.4174,8.4106,8.4005,8.3714,8.3524,8.3422,8.3003,8.3037,8.3409,8.3443,8.3714,8.4242,8.4377,8.4525,8.4593,8.458,8.4546,8.4614,8.4728,8.483,8.4728,8.4728,8.4931,8.5168,8.4952,8.4864,8.4965,8.5283,8.5621,8.5858,8.6284,8.642,8.6352,8.6318,8.6217,8.6135,8.6521,8.6792,8.6758,8.6589,8.5878,8.5358,8.4817,8.4674,8.4876,8.5062,8.5464,8.5698,8.6503,8.6957,8.7597,8.8011,8.8457,8.9067,8.9651,9.0132,9.075,9.1132,9.129,9.1428,9.1088,9.0409,8.9822,8.9272,8.8547,8.7822,8.7161,8.7014,8.7014,8.7133,8.728,7.0693,7.0903,7.0903,7.0903,7.0903,7.0903,7.0903,7.0903,7.0932,7.1158,7.1504,7.1564,7.1846,7.2255,7.2484,7.2896,7.323,7.3806,7.4748,7.5103,7.6743,7.8517,8.0199,8.173,8.3084,8.4217,8.458,8.458,8.4546,8.4695,8.4999,8.5283,8.5709,8.5493,8.5067,8.4965,8.5215,8.4695,8.458,8.458,8.458,8.458,8.458,8.458,8.458,8.458,8.458,8.4221,8.4153,8.412,8.3714,8.3883,8.412,8.4153,8.4289,8.458,8.4614,8.4864,8.4999,8.4999,8.4614,8.4762,8.5067,8.5283,8.5384,8.5878,8.6048,8.6048,8.5912,8.5946,8.6298,8.6332,8.6535,8.6521,8.6758,8.6758,8.6724,8.6758,8.669,8.6656,8.6893,8.7028,8.7096,8.7333,8.6825,8.6589,8.6183,8.5608,8.5628,8.5485,8.5611,8.5469,8.5796,8.6131,8.652,8.691,8.7527,8.8196,8.9027,8.9842,9.0496,9.1255,9.1611,9.1611,9.1455,9.1226,9.0455,8.9721,8.9244,8.8629,8.7932,8.7418,8.739,8.761,8.7867,7.0903,7.0903,7.0903,7.0903,7.0903,7.0903,7.0903,7.0903,7.0903,7.1278,7.1803,7.1923,7.2235,7.2757,7.3116,7.3236,7.3343,7.3928,7.4274,7.4491,7.6116,7.8091,7.9759,8.1281,8.2925,8.4136,8.4614,8.458,8.4647,8.4898,8.5439,8.6196,8.6873,8.6487,8.5912,8.5723,8.5554,8.5067,8.4898,8.458,8.458,8.458,8.458,8.458,8.458,8.458,8.458,8.4614,8.4614,8.4614,8.4614,8.4614,8.4614,8.458,8.458,8.4614,8.4965,8.5384,8.579,8.5858,8.5506,8.5134,8.5587,8.577,8.5939,8.6332,8.6656,8.6792,8.6961,8.6927,8.6974,8.6995,8.7265,8.7299,8.7516,8.7516,8.7617,8.7685,8.7651,8.7583,8.755,8.755,8.755,8.7753,8.782,8.7753,8.7651,8.7008,8.6332,8.6034,8.579,8.5562,8.5283,8.5446,8.5643,8.5787,8.6466,8.7325,8.8299,8.9296,9.0302,9.1055,9.1434,9.1812,9.1647,9.1381,9.0758,9.017,8.9767,8.929,8.8666,8.8225,8.7867,8.8161,8.8564,7.0903,7.0903,7.0903,7.0903,7.0903,7.0903,7.0903,7.0903,7.0932,7.1338,7.1953,7.2072,7.2595,7.3103,7.3672,7.3911,7.4001,7.4557,7.4706,7.5252,7.6466,7.8215,7.9906,8.1508,8.3347,8.431,8.4884,8.5202,8.485,8.5689,8.6399,8.6941,8.7651,8.7482,8.7008,8.6501,8.6075,8.5554,8.5148,8.483,8.4661,8.4728,8.483,8.4898,8.4965,8.5053,8.5053,8.5053,8.4884,8.4817,8.4715,8.4647,8.4614,8.458,8.458,8.4864,8.5418,8.6163,8.6738,8.6724,8.6535,8.6095,8.6041,8.5939,8.6176,8.6805,8.738,8.7414,8.7448,8.7279,8.7164,8.7617,8.8023,8.826,8.8578,8.868,8.8815,8.8849,8.8815,8.8781,8.8748,8.8714,8.8646,8.8714,8.8443,8.8511,8.8375,8.8071,8.7326,8.6332,8.6088,8.5682,8.5329,8.4856,8.496,8.5304,8.5759,8.6738,8.7714,8.8719,8.9749,9.0766,9.1331,9.1684,9.1776,9.1546,9.1097,9.0767,9.0436,8.9959,8.9665,8.9143,8.8849,8.9106,8.9445,7.0903,7.0903,7.0903,7.0903,7.0903,7.0903,7.0903,7.0932,7.1368,7.1996,7.2638,7.3103,7.3569,7.4347,7.4527,7.4587,7.4676,7.4766,7.4856,7.5586,7.6771,7.87,8.0592,8.2417,8.4323,8.5554,8.6149,8.6048,8.6352,8.6941,8.7279,8.7753,8.8342,8.8409,8.8172,8.7699,8.6853,8.6041,8.5587,8.5215,8.4999,8.5134,8.527,8.5486,8.5845,8.5966,8.6014,8.6048,8.5912,8.552,8.5452,8.5283,8.4614,8.4627,8.4728,8.5486,8.6163,8.6873,8.7434,8.7198,8.6961,8.7225,8.7293,8.7008,8.7144,8.7516,8.824,8.8206,8.8172,8.8071,8.8071,8.8375,8.8612,8.8748,8.8951,8.9032,8.9134,8.9134,8.9134,8.9134,8.9134,8.9134,8.9134,8.9066,8.8849,8.9032,8.8998,8.8714,8.8139,8.711,8.6582,8.6196,8.5642,8.5202,8.51,8.5327,8.5645,8.6142,8.7122,8.8138,8.9225,9.0191,9.1103,9.1592,9.1739,9.1721,9.1583,9.1289,9.0996,9.1253,9.1033,9.0363,8.9913,9.0097,9.028,7.0903,7.0903,7.0903,7.0903,7.0903,7.0903,7.0903,7.1038,7.1607,7.2282,7.2937,7.3582,7.4287,7.4766,7.4856,7.4856,7.4856,7.4856,7.4886,7.5395,7.706,7.8966,8.1006,8.305,8.4906,8.6265,8.6893,8.669,8.713,8.7617,8.8023,8.8463,8.8951,8.9032,8.8897,8.8477,8.7834,8.6887,8.6176,8.5757,8.5723,8.5723,8.5858,8.6298,8.6758,8.6893,8.6961,8.6961,8.667,8.6196,8.6075,8.579,8.5405,8.5574,8.5878,8.6602,8.7042,8.7719,8.8192,8.8105,8.8003,8.8023,8.826,8.7989,8.7955,8.8226,8.868,8.8931,8.8998,8.9066,8.9066,8.91,8.91,8.91,8.91,8.91,8.9134,8.9134,8.9134,8.9134,8.9134,8.9134,8.9134,8.9134,8.9134,8.9134,8.9134,8.9032,8.8409,8.7482,8.7205,8.7049,8.6311,8.5675,8.5628,8.5655,8.5906,8.6187,8.6546,8.7574,8.867,8.9758,9.0766,9.134,9.1739,9.1703,9.1684,9.173,9.1629,9.1812,9.1812,9.1253,9.084,9.095,9.106,7.0903,7.0903,7.0903,7.0903,7.0903,7.0903,7.0903,7.1009,7.1697,7.2325,7.2984,7.3672,7.4377,7.4826,7.4886,7.4886,7.4886,7.4886,7.4886,7.5078,7.7273,7.9276,8.1277,8.3213,8.5602,8.6643,8.7198,8.7502,8.7414,8.7888,8.8578,8.9052,8.91,8.9134,8.9066,8.8998,8.8511,8.7936,8.6988,8.6366,8.6501,8.6399,8.6278,8.6859,8.713,8.7211,8.7164,8.7144,8.7042,8.6771,8.6569,8.6467,8.6501,8.6859,8.7299,8.7651,8.7922,8.8342,8.8748,8.8781,8.8545,8.8545,8.868,8.8578,8.8578,8.8646,8.9018,8.91,8.9134,8.9134,8.9134,8.9134,8.9134,8.9134,8.9134,8.9134,8.9134,8.9134,8.9134,8.9134,8.9134,8.9134,8.9134,8.9134,8.9134,8.9134,8.9134,8.9134,8.8714,8.7854,8.7659,8.7686,8.7137,8.6507,8.6384,8.6399,8.6399,8.6531,8.6676,8.732,8.8662,8.9652,9.0535,9.1193,9.1858,9.1767,9.1748,9.1803,9.1812,9.1812,9.1812,9.1812,9.1739,9.162,9.1583,7.0903,7.0903,7.0903,7.0903,7.0903,7.0903,7.0903,7.1009,7.2176,7.2744,7.3086,7.4061,7.4706,7.4856,7.4886,7.4886,7.4886,7.4886,7.4886,7.5785,7.7504,7.9698,8.1914,8.4207,8.6464,8.7996,8.8578,8.8395,8.8409,8.868,8.8849,8.91,8.9134,8.9134,8.9134,8.9134,8.8917,8.8612,8.7969,8.7177,8.7042,8.7448,8.7617,8.7922,8.8057,8.8375,8.8409,8.8477,8.8172,8.7786,8.7617,8.7313,8.6927,8.7434,8.7786,8.8057,8.8511,8.8863,8.8998,8.9134,8.8917,8.8917,8.8951,8.8951,8.8984,8.9052,8.9086,8.91,8.9134,8.9134,8.9134,8.9134,8.9134,8.9134,8.9134,8.9134,8.9134,8.9134,8.9134,8.9134,8.9134,8.9134,8.9134,8.9134,8.9134,8.9134,8.9134,8.9066,8.8883,8.8342,8.8059,8.8018,8.7929,8.7508,8.7336,8.708,8.7071,8.7062,8.7201,8.7917,8.8701,8.9719,9.0675,9.1459,9.1972,9.1866,9.1776,9.1803,9.1812,9.1812,9.1812,9.1812,9.1812,9.1739,9.1739,7.0903,7.0903,7.0903,7.0903,7.0903,7.0903,7.0903,7.1158,7.2325,7.2924,7.3103,7.421,7.4886,7.4886,7.4886,7.4886,7.4886,7.4886,7.4886,7.5721,7.7697,8.0,8.2429,8.4858,8.6969,8.8629,8.8988,8.9066,8.9134,8.91,8.91,8.9134,8.9134,8.9134,8.9134,8.9134,8.9134,8.9066,8.8612,8.8226,8.7719,8.7989,8.8274,8.8511,8.8849,8.9134,8.9134,8.91,8.8883,8.8612,8.8477,8.8023,8.782,8.8125,8.8429,8.8612,8.8849,8.9134,8.9134,8.9134,8.9134,8.9134,8.91,8.9052,8.9052,8.91,8.91,8.9134,8.9134,8.9134,8.9134,8.9134,8.9134,8.9134,8.9134,8.9134,8.9134,8.9134,8.9134,8.9134,8.9134,8.9134,8.9134,8.9134,8.9134,8.9134,8.9134,8.9134,8.8931,8.8781,8.8546,8.8371,8.8282,8.8342,8.8244,8.7974,8.7706,8.7722,8.7728,8.8079,8.8685,8.9859,9.0879,9.1491,9.1887,9.1899,9.1811,9.1813,9.1803,9.1812,9.1812,9.1812,9.1812,9.1812,9.1812,7.0903,7.0903,7.0903,7.0903,7.0903,7.0903,7.0903,7.1128,7.2309,7.2924,7.3103,7.4317,7.4826,7.4886,7.4886,7.4886,7.4886,7.4886,7.4886,7.5656,7.7826,8.0046,8.238,8.4824,8.7084,8.8486,8.903,8.9134,8.9134,8.9134,8.9134,8.9134,8.9134,8.9134,8.9134,8.9134,8.9134,8.9134,8.8965,8.9032,8.8781,8.8511,8.8646,8.8883,8.9134,8.9134,8.9134,8.91,8.9086,8.9052,8.8984,8.8646,8.8463,8.8646,8.8815,8.8984,8.8984,8.9134,8.9134,8.9134,8.9134,8.9134,8.9134,8.9134,8.9134,8.9134,8.9134,8.9134,8.9134,8.9134,8.9134,8.9134,8.9134,8.9134,8.9134,8.9134,8.9134,8.9134,8.9134,8.9134,8.9134,8.9134,8.9134,8.9134,8.9134,8.9134,8.9134,8.9134,8.91,8.8998,8.8857,8.8688,8.8592,8.8734,8.8909,8.87,8.8268,8.8242,8.8259,8.8341,8.87,8.9844,9.0806,9.1384,9.1681,9.1713,9.1779,9.1821,9.1822,9.1895,9.1812,9.1812,9.1812,9.1812,9.1812,7.0903,7.0903,7.0903,7.0903,7.0903,7.0903,7.0903,7.1112,7.2325,7.2924,7.3253,7.421,7.4886,7.4886,7.4886,7.4886,7.4886,7.4886,7.4886,7.5382,7.7843,8.0046,8.2489,8.5253,8.7213,8.84,8.9134,8.9134,8.9134,8.9134,8.9134,8.9134,8.9134,8.9134,8.9134,8.9134,8.9134,8.9134,8.9134,8.9134,8.9134,8.8951,8.8984,8.9086,8.9134,8.9134,8.9134,8.9134,8.91,8.91,8.91,8.8984,8.8917,8.8917,8.9066,8.9134,8.9134,8.9134,8.9134,8.9134,8.9134,8.9134,8.9134,8.9134,8.9134,8.9134,8.9134,8.9134,8.9134,8.9134,8.9134,8.9134,8.9134,8.9134,8.9134,8.9134,8.9134,8.9134,8.9134,8.9134,8.9134,8.9134,8.9134,8.9134,8.9134,8.9134,8.9134,8.9134,8.9134,8.9134,8.9134,8.8984,8.8883,8.8984,8.9086,8.9038,8.8795,8.8748,8.8763,8.8831,8.9202,8.9919,9.0707,9.1086,9.1391,9.1506,9.1598,9.2025,9.2087,9.2161,9.1895,9.1812,9.1886,9.2033,9.2253]},{"header":{"parameterUnit":"m.s-1","parameterCategory":1,"la1":31.0,"la2":29.5877,"lo1":-88.7671,"lo2":-86.6584,"dy":0.0162,"dx":0.0185,"nx":115,"ny":88,"refTime":"2026-05-07T00:00:00:Z","depth":0,"parameterNumber":3,"parameterNumberName":"V-component_of_WINDS"},"data":[0.0,0.0,0.0,0.0,0.0,0.0,0.0,0.0,0.0,0.0,0.0,0.0,0.0,0.0,0.0,0.0,0.0,0.0,0.0,0.0,0.0,0.0,0.0,0.0,0.0,0.0,0.0,0.0,0.0,0.0,0.0,0.0,0.0,0.0,0.0,0.0,0.0,0.0,0.0,0.0,0.0,0.0,0.0,0.0,0.0,0.0,0.0,0.0,0.0,0.0,0.0,0.0,0.0,0.0,0.0,0.0,0.0,0.0,0.0,0.0,0.0,0.0,0.0,0.0,0.0,0.0,0.0,0.0,0.0,0.0,0.0,0.0,0.0,0.0,0.0,0.0,0.0,0.0,0.0,0.0,0.0,0.0,0.0,0.0,0.0,0.0,0.0,0.0,0.0,0.0,0.0,0.0,0.0,0.0,0.0,0.0,0.0,0.0,0.0,0.0,0.0,0.0,0.0,0.0,0.0,0.0,0.0,0.0,0.0,0.0,0.0,0.0,0.0,0.0,0.0,0.0,0.0,0.0,0.0,0.0,0.0,0.0,0.0,0.0,0.0,0.0,0.0,0.0,0.0,0.0,0.0,0.0,0.0,0.0,0.0,0.0,0.0,0.0,0.0,0.0,0.0,0.0,0.0,0.0,0.0,0.0,0.0,0.0,0.0,0.0,0.0,0.0,0.0,0.0,0.0,0.0,0.0,0.0,0.0,0.0,0.0,0.0,0.0,0.0,0.0,0.0,0.0,0.0,0.0,0.0,0.0,0.0,0.0,0.0,0.0,0.0,0.0,0.0,0.0,0.0,0.0,0.0,0.0,0.0,0.0,0.0,0.0,0.0,0.0,0.0,0.0,0.0,0.0,0.0,0.0,0.0,0.0,0.0,0.0,0.0,0.0,0.0,0.0,0.0,0.0,0.0,0.0,0.0,0.0,0.0,0.0,0.0,0.0,0.0,0.0,0.0,0.0,0.0,0.0,0.0,0.0,0.0,0.0,0.0,0.0,0.0,0.0,0.0,0.0,0.0,0.0,0.0,0.0,0.0,0.0,0.0,0.0,0.0,0.0,0.0,0.0,0.0,0.0,0.0,0.0,0.0,0.0,0.0,0.0,0.0,0.0,0.0,0.0,0.0,0.0,0.0,0.0,0.0,0.0,0.0,0.0,0.0,0.0,0.0,0.0,0.0,0.0,0.0,0.0,0.0,0.0,0.0,0.0,0.0,0.0,0.0,0.0,0.0,0.0,0.0,0.0,0.0,0.0,0.0,0.0,0.0,0.0,0.0,0.0,0.0,0.0,0.0,0.0,0.0,0.0,0.0,0.0,0.0,0.0,0.0,0.0,0.0,0.0,0.0,0.0,0.0,0.0,0.0,0.0,0.0,0.0,0.0,0.0,0.0,0.0,0.0,0.0,0.0,0.0,0.0,0.0,0.0,0.0,0.0,0.0,0.0,0.0,0.0,0.0,0.0,0.0,0.0,0.0,0.0,0.0,0.0,0.0,0.0,0.0,0.0,0.0,0.0,0.0,0.0,0.0,0.0,0.0,0.0,0.0,0.0,0.0,0.0,0.0,0.0,0.0,0.0,0.0,0.0,0.0,0.0,0.0,0.0,0.0,0.0,0.0,0.0,0.0,0.0,0.0,0.0,0.0,0.0,0.0,0.0,0.0,0.0,0.0,0.0,0.0,0.0,0.0,0.0,0.0,0.0,0.0,0.0,0.0,0.0,0.0,0.0,0.0,0.0,0.0,0.0,0.0,0.0,0.0,0.0,0.0,0.0,0.0,0.0,0.0,0.0,0.0,0.0,0.0,0.0,0.0,0.0,0.0,0.0,0.0,0.0,0.0,0.0,0.0,0.0,0.0,0.0,0.0,0.0,0.0,0.0,0.0,0.0,0.0,0.0,0.0,0.0,0.0,0.0,0.0,0.0,0.0,0.0,0.0,0.0,0.0,0.0,0.0,0.0,0.0,0.0,0.0,0.0,0.0,0.0,0.0,0.0,0.0,0.0,0.0,0.0,0.0,0.0,0.0,0.0,0.0,0.0,0.0,0.0,0.0,0.0,0.0,0.0,0.0,0.0,0.0,0.0,0.0,0.0,0.0,0.0,0.0,0.0,0.0,0.0,0.0,0.0,0.0,0.0,0.0,0.0,0.0,0.0,0.0,0.0,0.0,0.0,0.0,0.0,0.0,0.0,0.0,0.0,0.0,0.0,0.0,0.0,0.0,0.0,0.0,0.0,0.0,0.0,0.0,0.0,0.0,0.0,0.0,0.0,0.0,0.0,0.0,0.0,0.0,0.0,0.0,0.0,0.0,0.0,0.0,0.0,0.0,0.0,0.0,0.0,0.0,0.0,0.0,0.0,0.0,0.0,0.0,0.0,0.0,0.0,0.0,0.0,0.0,0.0,0.0,0.0,0.0,0.0,0.0,0.0,0.0,0.0,0.0,0.0,0.0,0.0,0.0,0.0,0.0,0.0,0.0,0.0,0.0,0.0,0.0,0.0,0.0,0.0,0.0,0.0,0.0,0.0,0.0,0.0,0.0,0.0,0.0,0.0,0.0,0.0,0.0,0.0,0.0,0.0,0.0,0.0,0.0,0.0,0.0,0.0,0.0,0.0,0.0,0.0,0.0,0.0,0.0,0.0,0.0,0.0,0.0,0.0,0.0,0.0,0.0,0.0,0.0,0.0,0.0,0.0,0.0,0.0,0.0,0.0,0.0,0.0,0.0,0.0,0.0,0.0,0.0,0.0,0.0,0.0,0.0,0.0,0.0,0.0,0.0,0.0,0.0,0.0,0.0,0.0,0.0,0.0,0.0,0.0,0.0,0.0,0.0,0.0,0.0,0.0,0.0,0.0,0.0,0.0,0.0,0.0,0.0,0.0,0.0,0.0,0.0,0.0,0.0,0.0,0.0,0.0,0.0,0.0,0.0,0.0,0.0,0.0,0.0,0.0,0.0,0.0,0.0,0.0,0.0,0.0,0.0,0.0,0.0,0.0,0.0,0.0,0.0,0.0,0.0,0.0,0.0,0.0,0.0,0.0,0.0,0.0,0.0,0.0,0.0,0.0,0.0,0.0,0.0,0.0,0.0,0.0,0.0,0.0,0.0,0.0,0.0,0.0,0.0,0.0,0.0,0.0,0.0,0.0,0.0,0.0,0.0,0.0,0.0,0.0,0.0,0.0,0.0,0.0,0.0,0.0,0.0,0.0,0.0,0.0,0.0,0.0,0.0,0.0,0.0,0.0,0.0,0.0,0.0,0.0,0.0,0.0,0.0,0.0,0.0,0.0,0.0,0.0,0.0,0.0,0.0,0.0,0.0,0.0,0.0,0.0,0.0,0.0,0.0,0.0,0.0,0.0,0.0,0.0,0.0,0.0,0.0,0.0,0.0,0.0,0.0,0.0,0.0,0.0,0.0,0.0,0.0,0.0,0.0,0.0,0.0,0.0,0.0,0.0,0.0,0.0,0.0,0.0,0.0,0.0,0.0,0.0,0.0,0.0,0.0,0.0,0.0,0.0,0.0,0.0,0.0,0.0,0.0,0.0,0.0,0.0,0.0,0.0,0.0,0.0,0.0,0.0,0.0,0.0,0.0,0.0,0.0,0.0,0.0,0.0,0.0,0.0,0.0,0.0,0.0,0.0,0.0,0.0,0.0,0.0,0.0,0.0,0.0,0.0,0.0,0.0,0.0,0.0,0.0,0.0,0.0,0.0,0.0,0.0,0.0,0.0,0.0,0.0,0.0,0.0,0.0,0.0,0.0,0.0,0.0,0.0,0.0,0.0,0.0,0.0,0.0,0.0,0.0,0.0,0.0,0.0,0.0,0.0,0.0,0.0,0.0,0.0,0.0,0.0,0.0,0.0,0.0,0.0,0.0,0.0,0.0,0.0,0.0,0.0,0.0,0.0,0.0,0.0,0.0,0.0,0.0,0.0,0.0,0.0,0.0,0.0,0.0,0.0,0.0,0.0,0.0,0.0,0.0,0.0,0.0,0.0,0.0,0.0,0.0,0.0,0.0,0.0,0.0,0.0,0.0,0.0,0.0,0.0,0.0,0.0,0.0,0.0,0.0,0.0,0.0,0.0,0.0,0.0,0.0,0.0,0.0,0.0,0.0,0.0,0.0,0.0,0.0,0.0,0.0,0.0,0.0,0.0,0.0,0.0,0.0,0.0,0.0,0.0,0.0,0.0,0.0,0.0,0.0,0.0,0.0,0.0,0.0,0.0,0.0,0.0,0.0,0.0,0.0,0.0,0.0,0.0,0.0,0.0,0.0,0.0,0.7235,0.0,0.0,0.0,0.0,0.0,0.0,0.0,0.0,0.0,0.0,0.0,0.0,0.0,0.0,0.0,0.0,0.0,0.0,0.0,0.0,0.0,0.0,0.0,0.0,0.0,0.0,0.0,0.0,0.0,0.0,0.0,0.0,0.0,0.0,0.0,0.0,0.0,0.0,0.0,0.0,0.0,0.0,0.0,0.0,0.0,0.0,0.0,0.0,0.0,0.0,0.0,0.0,0.0,0.0,0.0,0.0,0.0,0.0,0.0,0.0,0.0,0.0,0.0,0.0,0.0,0.0,0.0,0.0,0.0,0.0,0.0,0.0,0.0,0.0,0.0,0.0,0.0,0.0,0.0,0.0,0.0,0.0,0.0,0.0,0.0,0.0,0.0,0.0,0.0,0.0,0.0,0.0,0.0,0.0,0.0,0.0,0.0,0.0,0.0,0.0,0.0,0.0,0.0,0.0,0.0,0.0,0.0,0.0,0.0,0.0,0.7991,0.765,0.751,0.7376,0.7295,0.0,0.0,0.0,0.0,0.0,0.0,0.0,0.0,0.0,0.0,0.0,0.0,0.0,0.0,0.0,0.0,0.0,0.0,0.0,0.0,0.0,0.0,0.0,0.0,0.0,0.0,0.0,0.0,0.0,0.0,0.0,0.0,0.0,0.0,0.0,0.0,0.0,0.0,0.0,0.0,0.0,0.0,0.0,0.0,0.0,0.0,0.0,0.0,0.0,0.0,0.0,0.0,0.0,0.0,0.0,0.0,0.0,0.0,0.0,0.0,0.0,0.0,0.0,0.0,0.0,0.0,0.0,0.0,0.0,0.0,0.0,0.0,0.0,0.0,0.0,0.0,0.0,0.0,0.0,0.0,0.0,0.0,0.0,0.0,0.0,0.0,0.0,0.0,0.0,0.0,0.0,0.0,0.0,0.0,0.0,0.0,0.0,0.0,0.0,0.0,0.0,0.0,0.0,0.0,0.0,0.0,0.0,0.0,0.0,0.0,0.0,0.0,0.8109,0.7863,0.7613,0.0,0.0,0.0,0.0,0.0,0.0,0.0,0.0,0.0,0.0,0.0,0.0,0.0,0.0,0.0,0.0,0.0,0.0,0.0,0.0,0.0,0.0,0.0,0.0,0.0,0.0,0.0,0.0,0.0,0.0,0.0,0.0,0.0,0.0,0.0,0.0,0.0,0.0,0.0,0.0,0.0,0.0,0.0,0.0,0.0,0.0,0.0,0.0,0.0,0.0,0.0,0.0,0.0,0.0,0.0,0.0,0.0,0.0,0.0,0.0,0.0,0.0,0.0,0.0,0.0,0.0,0.0,0.0,0.0,0.0,0.0,0.0,0.0,0.0,0.0,0.0,0.0,0.0,0.0,0.0,0.0,0.0,0.0,0.0,0.0,0.0,0.0,0.0,0.0,0.0,0.0,0.0,0.0,0.0,0.0,0.0,0.0,0.0,0.0,0.0,0.0,0.0,0.0,0.0,0.0,0.0,0.0,0.0,0.0,0.0,0.9418,0.9359,0.9065,0.0,0.8469,0.0,0.0,0.0,0.0,0.0,0.0,0.0,0.0,0.0,0.0,0.0,0.0,0.0,0.0,0.0,0.0,0.0,0.0,0.0,0.0,0.0,0.0,0.0,0.0,0.0,0.0,0.0,0.0,0.0,0.0,0.0,0.0,0.0,0.0,0.0,0.0,0.0,0.0,0.0,0.0,0.0,0.0,0.0,0.0,0.0,0.0,0.0,0.0,0.0,0.0,0.0,0.0,0.0,0.0,0.0,0.0,0.0,0.0,0.0,0.0,0.0,0.0,0.0,0.0,0.0,0.0,0.0,0.0,0.0,0.0,0.0,0.0,0.0,0.0,0.0,0.0,0.0,0.0,0.0,0.0,0.0,0.0,0.0,0.0,0.0,0.0,0.0,0.0,0.0,0.0,0.0,0.0,0.0,0.0,0.0,0.0,0.0,0.0,0.0,0.0,0.0,0.0,0.0,0.0,0.0,0.0,0.0,0.0,0.0,0.0,0.0,1.0619,1.0186,0.9893,0.0,0.0,0.0,0.0,0.0,0.0,0.0,0.0,0.0,0.0,0.0,0.0,0.0,0.0,0.0,0.0,0.0,0.0,0.0,0.0,0.0,0.0,0.0,0.0,0.0,0.0,0.0,0.0,0.0,0.0,0.0,0.0,0.0,0.0,0.0,0.0,0.0,0.0,0.0,0.0,0.0,0.0,0.0,0.0,0.0,0.0,0.0,0.0,0.0,0.0,0.0,0.0,0.0,0.0,0.0,0.0,0.0,0.0,0.0,0.0,0.0,0.0,0.0,0.0,0.0,0.0,0.0,0.0,0.0,0.0,0.0,0.0,0.0,0.0,0.0,0.0,0.0,0.0,0.0,0.0,0.0,0.0,0.0,0.0,0.0,0.0,0.0,0.0,0.0,0.0,0.0,0.0,0.0,0.0,0.0,0.0,0.0,0.0,0.0,0.0,0.0,0.0,0.0,0.0,0.0,0.0,0.0,0.0,0.0,0.0,1.0801,0.0,1.1164,1.0798,1.0527,1.0337,0.0,0.0,0.0,0.0,0.0,0.0,0.0,0.0,0.0,0.0,0.0,0.0,0.0,0.0,0.0,0.0,0.0,0.0,0.0,0.0,0.0,0.0,0.0,0.0,0.0,0.0,0.0,0.0,0.0,0.0,0.0,0.0,0.0,0.0,0.0,0.0,0.0,0.0,0.0,0.0,0.0,0.0,0.0,0.0,0.0,0.0,0.0,0.0,0.0,0.0,0.0,0.0,0.0,0.0,0.0,0.0,0.0,0.0,0.0,0.0,0.0,0.0,0.0,0.0,0.0,0.0,0.0,0.0,0.0,0.0,0.0,0.0,0.0,0.0,0.0,0.0,0.0,0.0,0.0,0.0,0.0,0.0,0.0,0.0,0.0,0.0,0.0,0.0,0.0,0.0,0.0,0.0,0.0,0.0,0.0,0.0,0.0,0.0,0.0,0.0,0.0,0.0,0.0,0.0,0.0,0.0,0.0,0.0,0.0,1.06,1.0626,1.0653,1.0621,1.0332,0.0,0.0,0.0,0.0,0.0,0.0,0.0,0.0,0.0,0.0,0.0,0.0,0.0,0.0,0.0,0.0,0.0,0.0,0.0,0.0,0.0,0.0,0.0,0.0,0.0,0.0,0.0,0.0,0.0,0.0,0.0,0.0,0.0,0.0,0.0,0.0,0.0,0.0,0.0,0.0,0.0,0.0,0.0,0.0,0.0,0.0,0.0,0.0,0.0,0.0,0.0,0.0,0.0,0.0,0.0,0.0,0.0,0.0,0.0,0.0,0.0,0.0,0.0,0.0,0.0,0.0,0.0,0.0,0.0,0.0,0.0,0.0,0.0,0.0,0.0,0.0,0.0,0.0,0.0,0.0,0.0,0.0,0.0,0.0,0.0,0.0,0.0,0.0,0.0,0.0,0.0,0.0,0.0,0.0,0.0,0.0,0.0,0.0,0.0,0.0,0.0,0.0,0.0,0.0,0.0,0.0,0.0,0.0,0.0,1.0316,1.0664,1.0851,1.0859,1.0685,1.031,0.0,0.0,0.0,0.0,0.0,0.0,0.0,0.0,0.0,0.0,0.0,0.0,0.0,0.0,0.0,0.0,0.0,0.0,0.0,0.0,0.0,0.0,0.0,0.0,0.0,0.0,0.0,0.0,0.0,0.0,0.0,0.0,0.0,0.0,0.0,0.0,0.0,0.0,0.0,0.0,0.0,0.0,0.0,0.0,0.0,0.0,0.0,0.0,0.0,0.0,0.0,0.0,0.0,0.0,0.0,0.0,0.0,0.0,0.0,0.0,0.0,0.0,0.0,0.0,0.0,0.0,0.0,0.0,0.0,0.0,0.0,0.0,0.0,0.0,0.0,0.0,0.0,0.0,0.0,0.0,0.0,0.0,0.0,0.0,0.0,0.0,0.0,0.0,0.0,0.0,0.0,0.0,0.0,0.0,0.0,0.0,0.0,0.0,0.0,0.0,0.0,0.0,0.0,0.0,0.0,0.0,0.0,0.0,0.0,1.0405,0.0,1.1199,0.0,1.0755,1.0318,0.0,0.0,0.0,0.0,0.0,0.0,0.0,0.0,0.0,0.0,0.0,0.0,0.0,0.0,0.0,0.0,0.0,0.0,0.0,0.0,0.0,0.0,0.0,0.0,0.0,0.0,0.0,0.0,0.0,0.0,0.0,0.0,0.0,0.0,0.0,0.0,0.0,0.0,0.0,0.0,0.0,0.0,0.0,0.0,0.0,0.0,0.0,0.0,0.0,0.0,0.0,0.0,0.0,0.0,0.0,0.0,0.0,0.0,0.0,0.0,0.0,0.0,0.0,0.0,0.0,0.0,0.0,0.0,0.0,0.0,0.0,0.0,0.0,0.0,0.0,0.0,0.0,0.0,0.0,0.0,0.0,0.0,0.0,0.0,0.0,0.0,0.0,0.0,0.0,0.0,0.0,0.0,0.0,0.0,0.0,0.0,0.0,0.0,0.0,0.0,0.0,0.0,0.0,0.0,0.0,0.0,0.0,0.0,0.0,1.1017,1.1582,1.1596,1.1022,1.0752,1.0332,0.0,0.0,0.0,0.0,0.0,0.0,0.0,0.0,0.0,0.0,0.0,0.0,0.0,0.0,0.0,0.0,0.0,0.0,0.0,0.0,0.0,0.0,0.0,0.0,0.0,0.0,0.0,0.0,0.0,0.0,0.0,0.0,0.0,0.0,0.0,0.0,0.0,0.0,0.0,0.0,0.0,0.0,0.0,0.0,0.0,0.0,0.0,0.0,0.0,0.0,0.0,0.0,0.0,0.0,0.0,0.0,0.0,0.0,0.0,0.0,0.0,0.0,0.0,0.0,0.0,0.0,0.0,0.0,0.0,0.0,0.0,0.0,0.0,0.0,0.0,0.0,0.0,0.0,0.0,0.0,0.0,0.0,0.0,0.0,0.0,0.0,0.0,0.0,0.0,0.0,0.0,0.0,0.0,0.0,0.0,0.0,0.0,0.0,0.0,0.0,0.0,0.0,0.0,0.0,0.0,0.0,0.0,0.0,0.0,1.1627,1.1819,1.1686,1.1303,1.1025,1.0589,0.0,0.0,0.0,0.0,0.0,0.0,0.0,0.0,0.0,0.0,0.0,0.0,0.0,0.0,0.0,0.0,0.0,0.0,0.0,0.0,0.0,0.0,0.0,0.0,0.0,0.0,0.0,0.0,0.0,0.0,0.0,0.0,0.0,0.0,0.0,0.0,0.0,0.0,0.0,0.0,0.0,0.0,0.0,0.0,0.0,0.0,0.0,0.0,0.0,0.0,0.0,0.0,0.0,0.0,0.0,0.0,0.0,0.0,0.0,0.0,0.0,0.0,0.0,0.0,0.0,0.0,0.0,0.0,0.0,0.0,0.0,0.0,0.0,0.0,0.0,0.0,0.0,0.0,0.0,0.0,0.0,0.0,0.0,0.0,0.0,0.0,0.0,0.0,0.0,0.0,0.0,0.0,0.0,0.0,0.0,0.0,0.0,0.0,0.0,0.0,0.0,0.0,0.0,0.0,0.0,0.0,0.0,0.0,0.0,1.2858,1.2765,1.2505,1.2095,1.1583,1.1057,1.0453,0.0,0.0,0.0,0.0,0.0,0.0,0.0,0.0,0.0,0.0,0.0,0.0,0.0,0.0,0.0,0.0,0.0,0.0,0.0,0.0,0.0,0.0,0.0,0.0,0.0,0.0,0.0,0.0,0.0,0.0,0.0,0.0,0.0,0.0,0.0,0.0,0.0,0.0,0.0,0.0,0.0,0.0,0.0,0.0,0.0,0.0,0.0,0.0,0.0,0.0,0.0,0.0,0.0,0.0,0.0,0.0,0.0,0.0,0.0,0.0,0.0,0.0,0.0,0.0,0.0,0.0,0.0,0.0,0.0,0.0,0.0,0.0,0.0,0.0,0.0,0.0,0.0,0.0,0.0,0.0,0.0,0.0,0.0,0.0,0.0,0.0,0.0,0.0,0.0,0.0,0.0,0.0,0.0,0.0,0.0,0.0,0.0,0.0,0.0,0.0,0.0,0.0,0.0,0.0,0.0,0.0,0.0,0.0,1.4512,1.4362,1.3958,1.3293,1.2448,1.1703,0.0,0.0,0.0,0.0,0.0,0.0,0.0,0.0,0.0,0.0,0.0,0.0,0.0,0.0,0.0,0.0,0.0,0.0,0.0,0.0,0.0,0.0,0.0,0.0,0.0,0.0,0.0,0.0,0.0,0.0,0.0,0.0,0.0,0.0,0.0,0.0,0.0,0.0,0.0,0.0,0.0,0.0,0.0,0.0,0.0,0.0,0.0,0.0,0.0,0.0,0.0,0.0,0.0,0.0,0.0,0.0,0.0,0.0,0.0,0.0,0.0,0.0,0.0,0.0,0.0,0.0,0.0,0.0,0.0,0.0,0.0,0.0,0.0,0.0,0.0,0.0,0.0,0.0,0.0,0.0,0.0,0.0,0.0,0.0,0.0,0.0,0.0,0.0,0.0,0.0,0.0,0.0,0.0,0.0,0.0,0.0,0.0,0.0,0.0,0.0,0.0,0.0,0.0,0.0,0.0,0.0,0.0,0.0,0.0,1.4852,1.5867,1.567,1.4218,1.349,1.2673,0.0,0.0,0.0,0.0,0.0,0.0,0.0,0.0,0.0,0.0,0.0,0.0,0.0,0.0,0.0,0.0,0.0,0.0,0.0,0.0,0.0,0.0,0.0,0.0,0.0,0.0,0.0,0.0,0.0,0.0,0.0,0.0,0.0,0.0,0.0,0.0,0.0,0.0,0.0,0.0,0.0,0.0,0.0,0.0,0.0,0.0,0.0,0.0,0.0,0.0,0.0,0.0,0.0,0.0,0.0,0.0,0.0,0.0,0.0,0.0,0.0,0.0,0.0,0.0,0.0,0.0,0.0,0.0,0.0,0.0,0.0,0.0,0.0,0.0,0.0,0.0,0.0,0.0,0.0,0.0,0.0,0.0,0.0,0.0,0.0,0.0,0.0,0.0,0.0,0.0,0.0,0.0,0.0,0.0,0.0,0.0,0.0,0.0,0.0,0.0,0.0,0.0,0.0,0.0,0.0,0.0,0.0,0.0,1.4552,1.5708,1.6913,1.6927,1.567,1.4685,1.363,0.0,0.0,0.0,0.0,0.0,0.0,0.0,0.0,0.0,0.0,0.0,0.0,0.0,0.0,0.0,0.0,0.0,0.0,0.0,0.0,0.0,0.0,0.0,0.0,0.0,0.0,0.0,0.0,0.0,0.0,0.0,0.0,0.0,0.0,0.0,0.0,0.0,0.0,0.0,0.0,0.0,0.0,0.0,0.0,0.0,0.0,0.0,0.0,0.0,0.0,0.0,0.0,0.0,0.0,0.0,0.0,0.0,0.0,0.0,0.0,0.0,0.0,0.0,0.0,0.0,0.0,0.0,0.0,0.0,0.0,0.0,0.0,0.0,0.0,0.0,0.0,0.0,0.0,0.0,0.0,0.0,0.0,0.0,0.0,0.0,0.0,0.0,0.0,0.0,0.0,0.0,0.0,0.0,0.0,0.0,0.0,0.0,0.0,0.0,0.0,0.0,0.0,0.0,0.0,0.0,0.0,0.0,0.0,1.5261,1.6673,1.7609,1.7822,1.7233,1.5867,1.4568,0.0,0.0,0.0,0.0,0.0,0.0,0.0,0.0,0.0,0.0,0.0,0.0,0.0,0.0,0.0,0.0,0.0,0.0,0.0,0.0,0.0,0.0,0.0,0.0,0.0,0.0,0.0,0.0,0.0,0.0,0.0,0.0,0.0,0.0,0.0,0.0,0.0,0.0,0.0,0.0,0.0,0.0,0.0,0.0,0.0,0.0,0.0,0.0,0.0,0.0,0.0,0.0,0.0,0.0,0.0,0.0,0.0,0.0,0.0,0.0,0.0,0.0,0.0,0.0,0.0,0.0,0.0,0.0,0.0,0.0,0.0,0.0,0.0,0.0,0.0,0.0,0.0,0.0,0.0,0.0,0.0,0.0,0.0,0.0,0.0,0.0,0.0,0.0,0.0,0.0,0.0,0.0,0.0,0.0,0.0,0.0,0.0,0.0,0.0,0.0,0.0,0.0,0.0,0.0,0.0,0.0,0.0,0.0,1.5698,1.6674,1.8009,1.8343,1.7541,1.6564,1.5349,0.0,0.0,0.0,0.0,0.0,0.0,0.0,0.0,0.0,0.0,0.0,0.0,0.0,0.0,0.0,0.0,0.0,0.0,0.0,0.0,0.0,0.0,0.0,0.0,0.0,0.0,0.0,0.0,0.0,0.0,0.0,0.0,0.0,0.0,0.0,0.0,0.0,0.0,0.0,0.0,0.0,0.0,0.0,0.0,0.0,0.0,0.0,0.0,0.6779,0.0,0.0,0.0,0.0,0.0,0.0,0.0,0.0,0.0,0.0,0.0,0.0,0.0,0.0,0.0,0.0,0.0,0.0,0.0,0.0,0.0,0.0,0.0,0.0,0.0,0.0,0.0,0.0,0.0,0.0,0.0,0.0,0.0,0.0,0.0,0.0,0.0,0.0,0.0,0.0,0.0,0.0,0.0,0.0,0.0,0.0,0.0,0.0,0.0,0.0,0.0,0.0,0.0,0.0,0.0,0.0,0.0,0.0,0.0,1.6312,1.7301,1.8356,1.8677,1.821,1.7475,1.6286,0.0,0.0,0.0,0.0,0.0,0.0,0.0,0.0,0.0,0.0,0.0,0.0,0.0,0.0,0.0,0.0,0.0,0.0,0.0,0.0,0.0,0.0,0.0,0.0,0.0,0.0,0.0,0.0,0.0,0.0,0.0,0.0,0.0,0.0,0.0,0.0,0.0,0.0,0.0,0.0,0.0,0.0,0.0,0.0,0.0,0.0,0.0,0.0,0.0,0.0,0.0,0.0,0.0,0.0,0.0,0.0,0.0,0.0,0.0,0.0,0.0,0.0,0.0,0.0,0.0,0.0,0.0,0.0,0.0,0.0,0.0,0.0,0.0,0.0,0.0,0.0,0.0,0.0,0.0,0.0,0.0,0.0,0.0,0.0,0.0,0.0,0.0,0.0,0.0,0.0,0.0,0.0,0.0,0.0,0.0,0.0,0.0,0.0,0.0,0.0,0.0,0.0,0.0,0.0,0.0,0.0,0.0,1.5762,1.7007,1.8036,1.8677,1.893,1.8837,1.8263,1.7022,1.5131,0.0,0.0,0.0,0.0,0.0,0.0,0.0,0.0,0.0,0.0,0.0,0.0,0.0,0.0,0.0,0.0,0.0,0.0,0.0,0.0,0.0,0.0,0.0,0.0,0.0,0.0,0.0,0.0,0.0,0.0,0.0,0.0,0.0,0.0,0.0,0.0,0.0,0.0,0.5499,0.6054,0.0,0.0,0.0,0.0,0.0,0.0,0.0,0.0,0.6624,0.0,0.0,0.0,0.0,0.0,0.0,0.0,0.0,0.0,0.0,0.0,0.0,0.0,0.0,0.0,0.0,0.0,0.0,0.0,0.0,0.0,0.0,0.0,0.0,0.0,0.0,0.0,0.0,0.0,0.0,0.0,0.0,0.0,0.0,0.0,0.0,0.0,0.0,0.0,0.0,0.0,0.0,0.0,0.0,0.0,0.0,0.0,0.0,0.0,0.0,0.0,0.0,0.0,0.0,0.0,0.0,1.5164,1.6632,1.7729,1.8397,1.8999,1.9066,1.8571,1.7969,1.6927,1.5402,0.0,0.0,0.0,0.0,0.0,0.0,0.0,0.0,0.0,0.0,0.0,0.0,0.0,0.0,0.0,0.0,0.0,0.0,0.0,0.0,0.0,0.0,0.0,0.0,0.0,0.0,0.0,0.0,0.0,0.0,0.0,0.0,0.0,0.0,0.0,0.0,0.0,0.0,0.0,0.662,0.6904,0.0,0.0,0.0,0.0,0.0,0.0,0.0,0.0,0.6447,0.0,0.0,0.0,0.0,0.0,0.0,0.0,0.0,0.0,0.0,0.0,0.0,0.0,0.0,0.0,0.0,0.0,0.0,0.0,0.0,0.0,0.0,0.0,0.0,0.0,0.0,0.0,0.0,0.0,0.0,0.0,0.0,0.0,0.0,0.0,0.0,0.0,0.0,0.0,0.0,0.0,0.0,0.0,0.0,0.0,0.0,0.0,0.0,0.0,0.0,0.0,0.0,0.0,0.0,0.0,1.5578,1.7234,1.8277,1.8704,1.9306,1.9253,1.8504,1.7782,1.6711,0.0,0.0,0.0,0.0,0.0,0.0,0.0,0.0,0.0,0.0,0.0,0.0,0.0,0.0,0.0,0.0,0.0,0.0,0.0,0.0,0.0,0.0,0.0,0.0,0.0,0.0,0.0,0.0,0.0,0.0,0.0,0.0,0.0,0.0,0.0,0.0,0.0,0.0,0.0,0.0,0.6989,0.7314,0.719,0.0,0.0,0.0,0.0,0.0,0.0,0.6857,0.6559,0.0,0.0,0.0,0.0,0.0,0.0,0.0,0.0,0.0,0.0,0.0,0.0,0.0,0.0,0.0,0.0,0.0,0.0,0.0,0.0,0.0,0.0,0.0,0.0,0.0,0.0,0.0,0.0,0.0,0.0,0.0,0.0,0.0,0.0,0.0,0.0,0.0,0.0,0.0,0.0,0.0,0.0,0.0,0.0,0.0,0.0,0.0,0.0,0.0,0.0,0.0,0.0,0.0,0.0,0.0,1.5955,1.7702,1.8744,1.9077,1.9559,1.9412,1.8611,1.7729,1.6564,0.0,0.0,0.0,0.0,0.0,0.0,0.0,0.0,0.0,0.0,0.0,0.0,0.0,0.0,0.0,0.0,0.0,0.0,0.0,0.0,0.0,0.0,0.0,0.0,0.0,0.0,0.0,0.0,0.0,0.0,0.0,0.0,0.0,0.0,0.0,0.0,0.0,0.0,0.0,0.0,0.0,0.7857,0.7829,0.754,0.0,0.0,0.0,0.0,0.8132,0.7702,0.0,0.0,0.0,0.0,0.0,0.0,0.0,0.0,0.0,0.0,0.0,0.0,0.0,0.0,0.0,0.0,0.0,0.0,0.0,0.0,0.0,0.0,0.0,0.0,0.0,0.0,0.0,0.0,0.0,0.0,0.0,0.0,0.0,0.0,0.0,0.0,0.0,0.0,0.0,0.0,0.0,0.0,0.0,0.0,0.0,0.0,0.0,0.0,0.0,0.0,0.0,0.0,0.0,0.0,0.0,0.0,1.6541,1.8076,1.9131,1.9666,1.9758,1.9491,1.885,1.7996,1.6752,0.0,0.0,0.0,0.0,0.0,0.0,0.0,0.0,0.0,0.0,0.0,0.0,0.0,0.0,0.0,0.0,0.0,0.0,0.0,0.0,0.0,0.0,0.0,0.0,0.0,0.0,0.0,0.0,0.0,0.0,0.0,0.0,0.0,0.0,0.0,0.0,0.0,0.0,0.0,0.0,0.0,0.8782,0.8598,0.8334,0.7821,0.0,0.0,0.9514,1.0229,0.974,0.0,0.0,0.0,0.0,0.0,0.0,0.0,0.0,0.0,0.0,0.0,0.0,0.0,0.0,0.0,0.0,0.0,0.0,0.0,0.0,0.0,0.0,0.0,0.0,0.0,0.0,0.0,0.0,0.0,0.0,0.0,0.0,0.0,0.0,0.0,0.0,0.0,0.0,0.0,0.0,0.0,0.0,0.0,0.0,0.0,0.0,0.0,0.0,0.0,0.0,0.0,0.0,0.0,0.0,0.0,1.4512,1.6661,1.849,1.9546,1.98,2.012,1.9853,1.8916,1.8063,1.6766,0.0,0.0,0.0,0.0,0.0,0.0,0.0,0.0,0.0,0.0,0.0,0.0,0.0,0.0,0.0,0.0,0.0,0.0,0.0,0.0,0.0,0.0,0.0,0.0,0.0,0.0,0.0,0.0,0.0,0.0,0.0,0.0,0.0,0.0,0.0,0.0,0.0,0.0,0.0,0.0,0.0,0.0,1.0021,1.0001,0.0,0.0,0.0,1.1292,1.3624,0.0,0.0,0.0,0.0,0.0,0.0,0.0,0.0,0.0,0.0,0.0,0.0,0.0,0.0,0.0,0.0,0.0,0.0,0.0,0.0,0.0,0.0,0.0,0.0,0.0,0.0,0.0,0.0,0.0,0.0,0.0,0.0,0.0,0.0,0.0,0.0,0.0,0.0,0.0,0.0,0.0,0.0,0.0,0.0,0.0,0.0,0.0,0.0,0.0,0.0,0.0,0.0,0.0,0.0,0.0,0.0,0.0,1.6794,1.8784,1.9867,2.0027,2.0454,2.0202,1.9157,1.8277,0.0,0.0,0.0,0.0,0.0,0.0,0.0,0.0,0.0,0.0,0.0,0.0,0.0,0.0,0.0,0.0,0.0,0.0,0.0,0.0,0.0,0.0,0.0,0.0,0.0,0.0,0.0,0.737,0.0,0.0,0.0,0.0,0.0,0.0,0.0,0.0,0.0,0.0,0.0,0.0,0.0,0.0,1.161,1.1688,1.1878,1.114,0.0,0.0,1.3251,1.6854,1.5621,1.3884,0.0,0.0,0.0,0.0,0.0,0.0,0.0,0.0,0.0,0.0,0.0,0.0,0.0,0.0,0.0,0.0,0.0,0.0,0.0,0.0,0.0,0.0,0.0,0.0,0.0,0.0,0.0,0.0,0.0,0.0,0.0,0.0,0.0,0.0,0.0,0.0,0.0,0.0,0.0,0.0,0.0,0.0,0.0,0.0,0.0,0.0,0.0,0.0,0.0,0.0,0.0,0.0,0.0,0.0,0.0,1.7139,1.8905,2.0082,2.0603,2.067,2.0389,1.9746,1.8891,1.7595,0.0,0.0,0.0,0.0,0.0,0.0,0.0,0.0,0.0,0.0,0.0,0.0,0.0,0.0,0.0,0.0,0.0,0.0,0.0,0.0,0.0,0.0,0.0,0.0,0.0,0.0,0.0,0.0,0.0,0.0,0.0,0.0,0.0,0.0,0.0,0.0,0.0,0.0,0.0,0.0,0.0,1.3043,1.3558,1.3786,1.2827,0.0,0.0,1.5671,1.9366,1.7783,1.5607,1.4128,0.0,0.0,0.0,0.0,0.0,0.0,0.0,0.0,0.0,0.0,0.0,0.0,0.0,0.0,0.0,0.0,0.0,0.0,0.0,0.0,0.0,0.0,0.0,0.0,0.0,0.0,0.0,0.0,0.0,0.0,0.0,0.0,0.0,0.0,0.0,0.0,0.0,0.0,0.0,0.0,0.0,0.0,0.0,0.0,0.0,0.0,0.0,0.0,0.0,0.0,0.0,0.0,0.0,1.4988,1.7166,1.9065,2.0267,2.0699,2.0855,2.0668,2.005,1.9399,1.8196,0.0,0.0,0.0,0.0,0.0,0.0,0.0,0.0,0.0,0.0,0.0,0.0,0.0,0.0,0.0,0.0,0.0,0.0,0.0,0.0,0.0,0.0,0.0,0.0,0.0,0.0,0.0,0.0,0.9053,0.8939,0.8604,0.0,0.0,0.0,0.0,0.0,0.0,0.0,0.0,0.0,0.0,1.5409,1.6061,1.6593,0.0,0.0,1.5922,1.7884,2.0028,1.9165,1.7645,1.5989,1.4323,0.0,0.0,0.0,0.0,0.0,0.0,0.0,0.0,0.0,0.0,0.0,0.0,0.0,0.0,0.0,0.0,0.0,0.0,0.0,0.0,0.0,0.0,0.0,0.0,0.0,0.0,0.0,0.0,0.0,0.0,0.0,0.0,0.0,0.0,0.0,0.0,0.0,0.0,0.0,0.0,0.0,0.0,0.0,0.0,0.0,0.0,0.0,0.0,0.0,0.0,0.0,0.0,1.5602,1.785,1.9895,2.1092,2.1424,2.1697,2.156,2.0968,2.0392,1.9222,0.0,0.0,0.0,0.0,0.0,0.0,0.0,0.0,0.0,0.0,0.0,0.0,0.0,0.0,0.0,0.0,0.0,0.0,0.0,0.0,0.0,0.0,0.0,0.0,0.0,0.0,0.0,0.0,0.9886,0.9781,0.9667,0.0,0.0,0.0,0.0,0.0,0.0,0.0,0.0,0.0,0.0,1.7326,1.8124,1.874,1.8995,1.8697,1.9,1.9543,2.0378,2.0028,1.9027,1.7203,0.0,0.0,0.0,0.0,0.0,0.0,0.0,0.0,0.0,0.0,0.0,0.0,0.0,0.0,0.0,0.0,0.0,0.0,0.0,0.0,0.0,0.0,0.0,0.0,0.0,0.0,0.0,0.0,0.0,0.0,1.0154,0.0,0.0,0.0,0.0,0.0,0.0,0.0,0.0,0.0,0.0,0.0,0.0,0.0,0.0,0.0,0.0,0.0,0.0,0.0,0.0,0.0,0.0,0.0,1.935,2.1525,2.2799,2.3075,2.3381,2.3282,2.2698,2.2008,2.0811,1.8929,0.0,0.0,0.0,0.0,0.0,0.0,0.0,0.0,0.0,0.0,0.0,0.0,0.0,0.0,0.0,0.0,0.0,0.0,0.0,0.0,0.0,0.0,0.0,0.0,0.0,0.0,1.0546,1.0581,1.0669,0.0,0.0,0.0,0.0,0.0,0.0,0.0,0.0,0.0,0.0,1.686,1.8606,1.9519,1.9892,2.0419,2.133,2.095,2.0562,2.0542,2.032,1.9513,0.0,0.0,0.0,0.0,0.0,0.0,0.0,0.0,0.0,0.0,0.0,0.0,0.0,0.0,0.0,0.0,0.0,0.0,0.0,0.0,0.0,0.0,0.0,0.0,0.0,0.0,0.0,1.3338,1.3142,0.0,0.0,0.0,0.0,0.0,0.0,0.0,0.0,0.0,0.0,0.0,1.6753,1.642,0.0,0.0,0.0,0.0,0.0,0.0,0.0,0.0,0.0,0.0,0.0,0.0,1.7743,2.0564,2.325,2.4892,2.5404,2.5532,2.5419,2.5032,2.4077,2.1829,1.8186,0.0,0.0,0.0,0.0,0.0,0.0,0.0,0.0,0.0,0.0,0.0,0.0,0.0,0.0,0.0,0.0,0.0,0.0,0.0,0.0,0.0,0.0,0.0,0.0,0.0,1.1019,0.0,0.0,0.0,0.0,0.0,0.0,0.0,0.0,0.0,0.0,0.0,1.4477,1.6346,1.8509,2.0158,2.0877,2.1546,2.2071,0.0,0.0,0.0,0.0,0.0,0.0,0.0,0.0,0.0,0.0,0.0,0.0,0.0,0.0,1.4043,1.4622,1.4287,1.3437,1.1918,0.0,0.0,0.0,0.0,0.0,0.0,0.0,0.0,0.0,0.0,0.0,0.0,0.0,0.0,1.6662,0.0,1.5818,0.0,0.0,0.0,0.0,0.0,0.0,0.0,0.0,1.9626,2.0136,1.9869,1.9234,1.8769,0.0,1.779,1.6745,0.0,0.0,0.0,0.0,0.0,0.0,0.0,0.0,1.9439,2.229,2.5194,2.6857,2.7272,2.7576,2.7503,2.7022,2.5505,2.2901,1.9186,1.7339,1.5279,0.0,0.0,0.0,0.0,0.0,0.0,0.0,0.0,0.0,0.0,0.0,0.0,0.0,0.0,0.0,0.0,0.0,0.0,0.0,0.0,0.0,0.0,0.0,1.2002,0.0,0.0,0.0,0.0,0.0,0.0,0.0,0.0,0.0,1.4123,1.5196,1.656,1.8066,1.992,2.1341,2.1807,0.0,0.0,0.0,0.0,0.0,0.0,0.0,2.046,1.9369,1.8219,1.739,1.7157,1.7394,1.7943,1.8935,0.0,0.0,1.7689,1.7876,1.7364,1.5088,1.4051,1.3306,1.2598,1.2552,1.2731,0.0,0.0,0.0,0.0,0.0,0.0,0.0,0.0,2.0471,2.051,0.0,1.9235,0.0,0.0,0.0,0.0,0.0,0.0,0.0,0.0,2.2861,2.3626,2.3293,2.2112,2.1303,2.0845,1.9635,1.9192,1.9329,1.6774,0.0,0.0,0.0,0.0,0.0,0.0,2.1761,2.4505,2.7276,2.8689,2.8776,2.952,2.9505,2.8669,2.6375,2.4107,2.1982,1.973,1.7294,1.474,1.3698,0.0,0.0,0.0,0.0,0.0,0.0,0.0,0.0,0.0,0.0,0.0,0.0,0.0,0.0,0.0,0.0,0.0,0.0,0.0,0.0,1.2732,0.0,0.0,0.0,0.0,0.0,0.0,0.0,0.0,0.0,0.0,1.6369,1.7272,1.8479,1.9795,0.0,0.0,0.0,0.0,2.3319,2.3319,2.3607,2.3505,2.2602,2.2231,2.1685,2.0624,0.0,0.0,1.9421,1.9826,2.0401,2.096,2.0656,2.0485,2.1022,2.1503,2.1113,1.8749,1.7582,1.6911,1.6356,1.6133,1.6398,2.6884,0.0,0.0,0.0,0.0,2.2975,2.3326,2.3893,2.4013,2.4194,2.4314,2.3113,0.0,0.0,0.0,0.0,0.0,0.0,2.21,2.3488,2.552,2.616,2.5642,2.4897,2.4097,2.3258,2.22,2.1847,2.2058,2.1201,1.969,1.765,0.0,0.0,0.0,0.0,2.4191,2.6866,2.9387,3.0963,3.1584,3.1816,3.1382,3.0278,2.8281,2.6404,2.4688,2.2231,1.9816,1.7458,1.5634,0.0,0.0,0.0,0.0,0.0,0.0,0.0,0.0,0.0,0.0,0.0,0.0,0.0,0.0,0.0,0.0,0.0,0.0,0.0,1.302,1.3727,1.4028,0.0,0.0,0.0,0.0,0.0,0.0,0.0,0.0,0.0,1.9888,2.029,2.0758,0.0,0.0,2.2949,2.3012,2.3563,2.3937,2.3955,0.0,0.0,0.0,2.3465,2.318,2.284,2.2699,2.2658,2.2759,2.2761,2.2784,2.2959,2.2863,2.2771,2.2821,2.3066,2.2836,2.1701,2.0308,1.9102,1.8652,1.855,1.8664,3.0964,2.7841,2.6975,2.6817,2.7132,2.7164,2.7538,2.8155,2.8155,2.8272,2.8444,2.7123,2.5604,2.3922,2.2319,0.0,0.0,0.0,2.5366,2.6573,2.8311,2.8905,2.8394,2.7683,2.6901,2.6041,2.4932,2.4601,2.5036,2.5155,2.4405,2.2773,0.0,0.0,2.2822,2.4436,2.6356,2.8619,3.0887,3.2285,3.2773,3.2652,3.2183,3.1421,2.953,2.7883,2.6574,2.4257,2.1944,1.9628,1.7598,1.557,0.0,0.0,0.0,0.0,0.0,0.0,0.0,0.0,0.0,0.0,0.0,0.9539,0.0,0.0,0.0,0.0,1.2314,1.3347,1.4383,1.4925,0.0,0.0,0.0,0.0,0.0,0.0,0.0,1.8715,1.9893,2.0964,2.1987,2.2519,2.2712,2.2539,2.3086,2.3523,2.3643,0.0,2.4404,2.4529,2.4778,2.4858,2.4596,2.4427,2.4307,2.4325,2.4325,2.4414,2.4663,2.4569,2.4481,2.4444,2.4289,2.4078,2.3959,2.4227,2.4282,2.3687,2.2606,2.1748,2.1696,2.1717,2.1786,3.4118,3.3578,3.2051,3.1504,3.1645,3.1645,3.1914,3.235,3.2335,3.2359,3.2289,3.0962,2.9559,2.8056,2.5594,0.0,2.586,2.7324,2.8659,2.9902,3.1088,3.1562,3.135,3.042,2.9636,2.8989,2.7719,2.739,2.7987,2.8483,2.8884,2.9017,2.5621,2.46,2.6054,2.708,2.837,2.9983,3.1852,3.2812,3.2832,3.2418,3.2198,3.2179,3.0214,2.8748,2.7854,2.5942,2.3811,2.1512,1.967,1.7601,1.5276,0.0,0.0,0.0,0.0,0.0,0.0,0.0,0.0,0.0,0.0,0.0,0.0,0.0,0.0,0.0,1.3604,0.0,1.5821,1.6219,0.0,0.0,0.0,1.6367,1.7286,1.813,1.9105,2.021,0.0,0.0,2.3,0.0,2.4337,2.3572,2.3759,2.4026,2.4275,2.4551,2.4818,2.5155,2.5398,2.5491,2.5264,2.5235,2.5203,2.5203,2.5189,2.5243,2.5438,2.5445,2.5472,2.5438,2.5031,2.4689,2.4685,2.5147,2.5409,2.485,2.4461,2.4394,2.4765,2.4834,2.4849,3.6465,3.6348,3.5937,3.4687,3.2953,3.2953,3.3203,3.3645,3.3645,3.3805,3.4046,3.3158,3.1661,2.9737,2.7755,2.7362,2.829,2.9209,3.0208,3.1286,3.2417,3.2983,3.3011,3.2568,3.1831,3.0826,2.9949,2.9578,2.9635,3.0015,3.0489,3.0966,3.0026,2.939,2.9166,2.9725,3.0568,3.1624,3.2406,3.2949,3.3226,3.2554,3.2198,3.2198,3.0445,2.9392,2.913,2.7376,2.5653,2.4124,2.2166,1.9891,1.7322,1.5659,0.0,0.0,0.0,0.0,0.0,0.0,0.0,0.0,0.0,1.1329,1.21,0.0,1.299,0.0,1.4739,1.586,1.6779,1.7327,0.0,0.0,1.7916,1.813,1.8813,1.9655,2.0537,2.1456,2.2472,2.3359,2.4115,2.4426,2.4693,2.4925,2.505,2.5098,2.5178,2.547,2.5684,2.5784,2.6005,2.6146,2.6092,2.6099,2.6066,2.6099,2.5911,2.581,2.5877,2.5665,2.5518,2.5518,2.5409,2.5357,2.548,2.5878,2.6122,2.5962,2.5558,2.5218,2.5365,2.5424,2.5438,3.7305,3.7305,3.7305,3.6465,3.514,3.514,3.5273,3.5505,3.5134,3.5059,3.5237,3.4449,3.3431,3.2261,3.1264,3.1111,3.1619,3.2015,3.2495,3.3064,3.369,3.4024,3.4079,3.3931,3.3535,3.2919,3.2492,3.2284,3.2207,3.2394,3.2663,3.3033,3.2953,3.2598,3.1949,3.1651,3.1807,3.2472,3.2871,3.3184,3.3363,3.2613,3.2198,3.2159,3.0531,2.95,2.9311,2.8041,2.6739,2.5391,2.3763,2.1795,1.9455,1.7468,1.5459,0.0,0.0,0.0,0.0,0.0,0.0,0.0,0.0,0.0,0.0,0.0,1.4472,0.0,1.6182,1.7168,1.809,1.8651,1.9157,1.9613,1.9788,2.0042,2.0496,2.1221,2.197,2.2716,2.3447,2.4106,2.4738,2.5064,2.5384,2.5838,2.6012,2.5999,2.5772,2.5885,2.6078,2.6312,2.648,2.664,2.6767,2.6794,2.6754,2.658,2.6453,2.6326,2.6192,2.6045,2.5905,2.5905,2.5905,2.5932,2.6072,2.6479,2.6765,2.6665,2.6486,2.6266,2.6099,2.6073,2.6099,3.7637,3.7654,3.7637,3.7617,3.7617,3.7578,3.7441,3.7246,3.6487,3.6174,3.6116,3.5312,3.4922,3.4847,3.4805,3.4766,3.4707,3.4687,3.4726,3.4785,3.4785,3.4824,3.4863,3.4863,3.4844,3.4785,3.4785,3.4762,3.4707,3.4687,3.4687,3.4687,3.4687,3.4512,3.4137,3.3078,3.2633,3.2871,3.3226,3.3386,3.3402,3.2613,3.2179,3.2061,3.0464,2.935,2.884,2.8203,2.7278,2.6003,2.4889,2.343,2.1515,1.9404,1.7315,0.0,1.4407,0.0,0.0,0.0,0.0,0.0,0.0,0.0,0.0,1.5379,1.6086,1.6901,1.7742,1.8596,1.9481,2.0054,2.0626,2.1187,2.1526,2.1823,2.2124,2.2689,2.3295,2.3839,2.4377,2.4845,2.5256,2.5743,2.6158,2.646,2.668,2.6653,2.6292,2.6212,2.6399,2.6814,2.686,2.6961,2.7202,2.7269,2.7168,2.6934,2.6867,2.6767,2.658,2.6507,2.6526,2.6507,2.6414,2.6414,2.6493,2.6954,2.7203,2.7048,2.7122,2.7115,2.6894,2.6807,2.6961,3.9414,3.9394,3.9414,3.9433,3.9375,3.9004,3.8242,3.7285,3.7129,3.7051,3.7031,3.6541,3.6111,3.5725,3.541,3.5075,3.4707,3.4687,3.4902,3.5273,3.5254,3.5449,3.5745,3.5764,3.5589,3.5273,3.5273,3.5078,3.4687,3.4687,3.4687,3.4687,3.4687,3.4648,3.457,0.0,0.0,0.0,3.3347,3.3386,3.3383,3.2613,3.2022,3.1621,3.0307,0.0,2.8437,2.7981,2.7435,2.6801,2.5825,0.0,0.0,0.0,0.0,0.0,0.0,0.0,0.0,0.0,0.0,0.0,1.7367,1.7274,1.6752,1.7194,1.7769,1.8437,1.9077,1.9733,2.0389,2.0993,2.1553,2.2081,2.2201,2.2455,2.3002,2.3594,2.4088,2.4417,2.4978,2.5525,2.6039,2.6272,2.6526,2.7008,2.7188,2.7155,2.7068,2.7028,2.7075,2.7195,2.7208,2.7222,2.7296,2.7336,2.7329,2.7208,2.7195,2.7168,2.7101,2.7101,2.7135,2.7088,2.673,2.6589,2.702,2.7229,2.7323,2.7255,2.7282,2.7262,2.7208,2.7208,2.7222,3.9883,0.0,3.9883,3.9883,0.0,3.9648,3.918,3.8535,3.7891,3.748,3.7285,3.707,3.6873,3.6623,3.6426,3.6228,3.5976,3.5993,3.6113,3.6328,3.6328,3.6348,3.6348,3.6328,3.6113,3.5703,3.5703,3.5586,3.5351,3.5351,3.5351,3.5351,3.5335,3.5254,3.5039,3.4824,3.4375,3.375,3.375,3.3633,3.3386,3.2828,3.23,3.1851,0.0,0.0,0.0,0.0,0.0,0.0,0.0,0.0,0.0,0.0,0.0,1.934,1.8853,1.8174,1.712,1.7691,1.8418,1.9126,1.9547,1.9427,1.8545,1.8998,1.9451,1.9774,2.0336,2.0911,2.1483,2.1954,2.2479,2.3023,2.3189,2.347,2.391,2.4337,2.481,2.5237,2.5678,2.6119,2.6547,2.6747,2.7008,2.7402,2.7482,2.7556,2.767,2.7462,2.7329,2.7476,2.7657,2.7737,2.7758,2.7737,2.767,2.7542,2.7502,2.7436,2.7336,2.7309,2.7309,2.7309,2.7098,2.7098,2.7248,2.7532,2.768,2.757,2.7643,2.7758,2.7737,2.7609,2.7556,4.0117,4.0136,4.0117,4.0117,4.0117,4.0039,3.9961,3.9823,0.0,0.0,0.0,3.7559,3.748,3.7385,3.7402,3.7363,3.7305,3.7305,3.7305,3.7305,3.7305,3.7127,3.6812,3.6795,3.6619,3.6233,3.6233,3.6233,3.6233,3.6155,3.6135,3.6116,3.6021,3.5842,3.5508,3.5117,3.4726,3.4333,3.4254,3.4004,3.362,3.3164,3.273,3.2316,3.1445,3.0391,2.9068,2.9029,2.8672,2.7943,2.7641,2.7281,2.6812,2.5464,2.3978,2.2434,2.2002,2.1449,2.0607,2.0841,2.1103,2.1307,2.1358,2.1042,2.0202,2.0563,2.0898,2.0991,2.1502,2.2021,2.2525,2.2863,2.3308,2.3897,2.4142,2.4377,2.4738,2.505,2.5457,2.5984,2.6286,2.66,2.6914,2.7188,2.7462,2.773,2.7843,2.7936,2.8138,2.7831,2.759,2.777,2.7978,2.8173,2.82,2.8173,2.8085,2.7837,2.7797,2.7703,2.7536,2.7456,2.7449,2.751,2.7606,2.762,2.7517,2.7842,2.8094,2.7838,2.8005,2.8205,2.8232,2.8051,2.797,4.1015,4.1035,4.1035,4.1015,4.0996,4.0586,4.0215,3.9844,3.9277,3.8984,3.8906,3.8573,3.8184,3.7814,3.7814,3.7637,3.7305,3.7305,3.7305,0.0,3.7305,3.7266,3.7207,3.7207,3.7205,3.7129,3.7109,3.7109,3.709,3.6775,3.6599,3.656,3.6194,3.5979,3.592,3.5842,3.5608,3.5231,3.4821,3.459,3.4512,3.3734,3.3109,3.2695,3.186,3.082,2.9559,2.9506,2.9272,2.8756,2.8372,2.8123,2.8043,2.7393,2.6438,2.5213,2.5511,2.5395,2.4551,2.4798,2.4455,2.3323,2.286,2.2278,2.1435,2.1408,2.1662,2.2111,2.2489,2.2836,2.3149,2.3474,2.3875,2.4404,2.4538,2.4764,2.5312,2.5651,2.5998,2.6326,2.6587,2.6954,2.7428,2.7602,2.7783,2.8085,2.8305,2.8484,2.847,2.8286,2.8098,2.8112,2.8173,2.8213,2.8213,2.8213,2.8152,2.8125,2.8098,2.8072,2.8005,2.8012,2.8012,2.8066,2.8047,2.806,2.8039,2.8127,2.8202,2.8125,2.8205,2.8312,2.8519,2.8497,2.8497,4.1406,4.1191,4.1211,4.1211,4.1172,4.0976,4.0781,4.0566,4.0117,3.9766,3.957,3.9375,3.9043,3.8614,3.8613,3.8379,3.8006,3.8006,3.8006,3.8006,3.7988,3.7871,3.7656,3.7619,3.7502,3.7305,3.7305,3.7305,3.7285,3.709,3.7029,3.701,3.6599,3.6367,3.6367,3.6116,3.5918,3.5706,3.5312,3.4961,3.4707,3.4316,3.3809,3.3148,3.2719,3.1923,3.0684,3.0639,3.043,3.0,2.9819,2.9707,2.9693,2.9308,2.8672,2.7789,2.8042,2.7947,2.7247,2.6967,2.6291,2.5064,2.4348,2.3735,2.312,2.2906,2.2907,2.3144,2.3291,2.3541,2.3963,2.4137,2.4476,2.5045,2.5251,2.5531,2.5919,2.6253,2.6553,2.6847,2.7141,2.7402,2.7655,2.7976,2.823,2.8425,2.8657,2.881,2.8801,2.8703,2.8519,2.828,2.8213,2.8213,2.8213,2.8213,2.8213,2.8213,2.8213,2.8213,2.8213,2.8213,2.8213,2.8213,2.8213,2.8213,2.8213,2.8326,2.8398,2.8438,2.8551,2.8663,2.8796,2.893,2.9018,4.1777,4.1484,4.1445,4.1465,4.1445,4.1465,4.1426,4.1308,4.0938,4.0547,4.0195,4.0,3.9687,3.9375,3.9355,3.918,3.8905,3.8788,3.8729,3.8729,3.8631,3.8416,3.8068,3.8048,3.791,3.7617,3.7596,3.7578,3.7596,3.75,3.7383,3.7285,3.699,3.6834,3.6834,3.6484,3.6309,3.6272,3.5976,3.5566,3.5019,3.4902,3.4531,3.3926,3.3734,3.3203,3.2168,3.1997,3.1743,3.1348,3.1245,3.1187,3.1191,3.1043,3.0721,3.0309,3.0489,3.0408,2.9938,2.9154,2.8194,2.7037,2.6019,2.5285,2.4804,2.4417,2.412,2.4013,2.3986,2.4209,2.4684,2.4805,2.5039,2.5638,2.5925,2.6212,2.6553,2.6767,2.7041,2.7355,2.7583,2.7722,2.7949,2.831,2.8631,2.8818,2.8983,2.9103,2.9117,2.9095,2.889,2.8503,2.8358,2.8419,2.8393,2.8406,2.8398,2.8371,2.8385,2.8412,2.8412,2.8385,2.8393,2.8433,2.8419,2.8446,2.8433,2.8537,2.8663,2.8689,2.8823,2.8975,2.9103,2.9344,2.9459,4.2324,4.2285,4.2246,4.2285,4.2265,4.2265,4.207,4.1758,4.1699,4.1445,4.0996,4.0273,3.9902,3.9844,3.9824,3.9785,3.9726,3.9336,3.916,3.9101,3.8768,3.8573,3.8553,3.8553,3.8514,3.8474,3.8456,3.8436,3.8377,3.8047,3.7676,3.7344,3.7266,3.7246,3.7226,3.7187,3.7168,3.7187,3.7148,3.6719,3.592,3.5527,3.5293,3.5231,3.4785,3.4372,3.3769,3.3457,3.3031,3.2652,3.2296,3.2101,3.2124,3.2372,3.2555,3.2498,3.3186,3.3553,3.3178,3.2268,3.1034,2.963,2.8126,2.7,2.6317,2.5684,2.5104,2.4772,2.4569,2.4791,2.5325,2.5419,2.5659,2.6246,2.6393,2.658,2.7075,2.7235,2.7376,2.7629,2.7736,2.7896,2.839,2.8604,2.8845,2.9312,2.9392,2.9468,2.9446,2.9446,2.9308,2.8857,2.8808,2.8916,2.889,2.8908,2.885,2.8855,2.8895,2.8863,2.8836,2.885,2.8916,2.8756,2.8863,2.885,2.8863,2.8948,2.8948,2.8983,2.905,2.913,2.9392,2.9624,2.97,4.2636,4.2402,4.2402,4.2402,4.2402,4.2402,4.2304,4.2167,4.2148,4.1933,4.1543,4.1191,4.0742,4.0254,4.0273,4.0137,3.9883,3.9707,3.9609,3.9609,3.9434,3.9374,3.9355,3.9374,3.9219,3.8965,3.8964,3.8828,3.8592,3.8398,3.8241,3.8045,3.7812,3.7658,3.7619,3.7422,3.7305,3.7305,3.7305,3.7129,3.6777,3.6367,3.5935,3.543,3.5231,3.4919,3.4508,3.4258,3.4101,3.3926,3.375,3.3672,3.3672,3.3828,3.3926,3.3945,3.4254,3.4468,3.4394,3.3782,3.2981,3.1948,3.0471,2.9249,2.8454,2.7548,2.6914,2.6758,2.5836,2.5398,2.5971,2.6026,2.6266,2.6821,2.7054,2.7275,2.7502,2.7703,2.7951,2.8177,2.823,2.8377,2.8756,2.9018,2.9285,2.9659,2.974,2.9726,2.9726,2.974,2.9664,2.9468,2.9486,2.9414,2.9253,2.9067,2.9037,2.9001,2.9001,2.9001,2.9028,2.9001,2.8988,2.9015,2.9041,2.9041,2.8961,2.9183,2.9299,2.9325,2.9464,2.9584,2.9726,2.9833,2.9833,4.3066,4.2773,4.2733,4.2753,4.2753,4.2753,4.2695,4.2598,4.2598,4.2343,4.1992,4.1973,4.1641,4.1055,4.082,4.0527,4.0254,4.0117,4.0059,4.0059,3.9961,3.9883,3.9883,3.9883,3.9726,3.9434,3.9394,3.9198,3.8788,3.865,3.8592,3.8534,3.8262,3.8105,3.8048,3.7773,3.7674,3.7656,3.7674,3.7598,3.7441,3.7168,3.666,3.6013,3.5801,3.5603,3.527,3.5019,3.4883,3.4883,3.4766,3.4687,3.4707,3.4824,3.5,3.5234,3.5351,3.5446,3.5556,3.5278,3.4833,3.4088,3.2911,3.1913,3.1087,3.0159,2.9728,2.9777,2.8568,2.7901,2.7006,2.7024,2.7196,2.758,2.778,2.7863,2.7963,2.8259,2.847,2.8663,2.8698,2.8831,2.9125,2.9406,2.9673,2.9847,2.99,2.9913,2.9913,2.99,2.99,2.9913,2.9891,2.9798,2.9511,2.9383,2.9263,2.9242,2.9282,2.9317,2.9263,2.9242,2.9242,2.9402,2.9282,2.9255,2.9348,2.9517,2.9593,2.9633,2.9753,2.9864,2.9873,2.9913,2.9913,4.3672,4.3612,4.3633,4.3573,4.3633,4.3594,4.3398,4.3067,4.3067,4.2812,4.2402,4.2362,4.2343,4.2187,4.1504,4.1172,4.1074,4.0703,4.0508,4.045,4.0117,3.9902,3.9883,3.9883,3.9902,3.9863,3.9863,3.9629,3.918,3.8827,3.8592,3.8612,3.8592,3.8553,3.8553,3.8495,3.8514,3.8456,3.8436,3.8301,3.7931,3.7853,3.7619,3.7187,3.6816,3.658,3.6482,3.5818,3.5407,3.5388,3.5039,3.4785,3.4785,3.5156,3.5779,3.6462,3.6912,3.7148,3.7133,3.7084,3.6791,3.6159,3.5522,3.4958,3.4131,3.3545,3.3259,3.3463,3.3129,3.1964,2.9511,2.877,2.8505,2.8407,2.8256,2.8293,2.8524,2.8716,2.8921,2.8975,2.9001,2.9157,2.9432,2.9713,2.9847,2.99,2.9913,2.9913,2.9913,2.9913,2.9913,2.9913,2.9913,2.99,2.986,2.974,2.9766,2.9731,2.9664,2.9806,2.9838,2.9864,2.9824,2.9811,2.9731,2.9731,2.9824,2.9851,2.9847,2.9847,2.9847,2.9913,2.9913,2.9913,2.9913,4.3691,4.3691,4.3691,4.3691,4.3691,4.3691,4.3634,4.3496,4.3497,4.3242,4.2891,4.2832,4.2695,4.2382,4.2089,4.1816,4.1602,4.1406,4.1191,4.0957,4.08,4.0742,4.0742,4.0742,4.0547,4.0332,4.0274,4.0059,3.9687,3.9492,3.9433,3.9374,3.9121,3.8984,3.8926,3.8729,3.8592,3.8592,3.8592,3.8532,3.8397,3.8358,3.828,3.8104,3.7459,3.7088,3.707,3.6795,3.6638,3.6638,3.6462,3.6367,3.6387,3.6523,3.6738,3.7031,3.7207,3.7539,3.8026,3.8143,3.816,3.815,3.754,3.6954,3.6382,3.581,3.5387,3.5459,3.5628,3.4866,3.3531,3.1528,3.0062,2.9761,2.9021,2.865,2.8796,2.8948,2.909,2.9299,2.945,2.9637,2.9691,2.9838,2.9891,2.9913,2.9913,2.9913,2.9913,2.9913,2.9913,2.9913,2.9913,2.9913,2.9913,2.99,2.99,2.99,2.9887,2.9873,2.9878,2.9891,2.9851,2.9851,2.9913,2.9913,2.9878,2.9878,2.9913,2.9913,2.9913,2.9913,2.9913,2.9913,2.9913,4.3691,4.3691,4.3691,4.3691,4.3691,4.3691,4.3691,4.3691,4.3691,4.3535,4.3341,4.3302,4.3105,4.2851,4.2812,4.2598,4.2207,4.207,4.1777,4.1406,4.1387,4.1328,4.1211,4.1211,4.1016,4.0742,4.0547,4.0352,4.0079,3.9961,3.9902,3.9844,3.957,3.9452,3.9375,3.9159,3.9022,3.9022,3.9022,3.9022,3.9022,3.9022,3.9022,3.8944,3.8437,3.791,3.7521,3.7363,3.7305,3.7305,3.7305,3.7305,3.7305,3.7422,3.7559,3.7695,3.7869,3.8223,3.8885,3.9022,3.9165,3.9447,3.9128,3.8746,3.8459,3.822,3.8097,3.8169,3.8405,3.8395,3.7402,3.5288,3.3165,3.1908,3.0531,2.989,3.0032,3.0186,3.0197,3.0133,3.0087,3.0066,2.9936,2.9913,2.9913,2.9913,2.9913,2.9913,2.9913,2.9913,2.9913,2.9913,2.9913,2.9913,2.9913,2.9913,2.9913,2.9913,2.9913,2.9913,2.9913,2.9913,2.9913,2.9913,2.9913,2.9913,2.9913,2.9913,2.9913,2.9913,2.9913,2.9913,2.9913,2.9913,2.9913,4.3691,4.3691,4.3691,4.3691,4.3691,4.3691,4.3691,4.3691,4.3691,4.3672,4.3613,4.3672,4.3613,4.3633,4.3555,4.3418,4.3008,4.2656,4.2226,4.1836,4.1797,4.1601,4.1328,4.1328,4.1328,4.125,4.0801,4.0567,4.0606,4.0293,4.0098,4.0,3.9961,3.9902,3.9902,3.9805,3.9824,3.9785,3.9746,3.9805,3.9883,3.9785,3.9766,3.9805,3.9726,3.916,3.8029,3.7656,3.7519,3.7441,3.7461,3.7363,3.7578,3.7834,3.8146,3.8592,3.8945,3.9375,3.9785,3.9883,3.9922,4.01,4.0295,4.0433,4.0453,4.0938,4.1305,4.1285,4.1595,4.1743,4.0836,3.9463,3.7356,3.4535,3.3056,3.2416,3.2455,3.2558,3.2329,3.1509,3.0981,3.0437,3.007,2.9913,2.9913,2.9913,2.9953,2.998,2.9993,2.9998,2.9944,2.9895,2.9958,3.0043,2.9967,2.9913,2.9913,2.9913,2.9913,2.9913,2.9913,2.9913,2.9913,2.9913,2.9913,2.9913,2.9913,2.9913,2.9913,2.9913,2.9913,2.9913,2.9913,2.9913,2.9913,4.3691,4.3691,4.3691,4.3691,4.3691,4.3691,4.3691,4.3711,4.3691,4.3691,4.3691,4.3691,4.3691,4.3691,4.3691,4.3633,4.3517,4.334,4.2909,4.2344,4.2226,4.2148,4.2011,4.1992,4.2031,4.1992,4.1894,4.1797,4.1699,4.1387,4.1211,4.1113,4.0586,4.0332,4.0313,4.004,3.9883,3.9883,3.9883,3.9883,3.9883,3.9902,3.9902,3.9883,3.9883,3.9668,3.9316,3.916,3.8926,3.8613,3.8906,3.9082,3.9101,3.9199,3.9336,3.9473,3.959,3.9863,4.0274,4.0644,4.0898,4.1191,4.1562,4.1777,4.1816,4.2011,4.2207,4.2207,4.2323,4.2238,4.19,4.108,3.9475,3.7228,3.5892,3.5172,3.5266,3.4952,3.406,3.2925,3.2056,3.1151,3.024,2.9962,2.9989,2.998,3.01,3.0243,3.0234,3.0286,3.0153,2.9998,3.0107,3.019,3.0114,3.0047,3.0007,2.998,2.9953,2.9913,2.9913,2.9913,2.9913,2.9913,2.9913,2.9913,2.9913,2.9913,2.9913,2.9913,2.9913,2.9913,2.9913,2.9913,2.9913,4.3691,4.3691,4.3691,4.3808,4.3945,4.3965,4.4062,4.416,4.4003,4.3965,4.3945,4.3769,4.3691,4.3691,4.3691,4.3691,4.3691,4.3691,4.3418,4.293,4.2695,4.2577,4.2421,4.2402,4.2402,4.2402,4.2402,4.2402,4.2382,4.2148,4.2011,4.1894,4.1309,4.0996,4.0957,4.0605,4.039,4.0371,4.041,4.039,4.039,4.0371,4.039,4.039,4.039,4.0293,4.0176,4.0273,4.0078,3.9629,3.9746,3.9883,3.9883,3.9863,3.9961,4.0137,4.0312,4.0566,4.0957,4.1406,4.1738,4.2011,4.2265,4.2382,4.2401,4.2519,4.2676,4.2636,4.2812,4.2886,4.2811,4.2418,4.1549,4.0759,3.8764,3.7896,3.7889,3.73,3.6283,3.5111,3.3954,3.2526,3.1282,3.0574,3.0415,3.0342,3.0417,3.0551,3.0578,3.0639,3.0493,3.0394,3.0528,3.0503,3.0287,3.0194,3.0136,3.006,3.0007,2.9953,2.9913,2.9913,2.9913,2.9913,2.9913,2.9913,2.9913,2.9913,2.9913,2.9913,2.9913,2.9913,2.9913,2.9913,2.9913,4.3773,4.3752,4.373,4.4004,4.4355,4.4394,4.4588,4.4862,4.459,4.4394,4.4277,4.3965,4.375,4.3711,4.3691,4.3691,4.3691,4.3691,4.3672,4.3516,4.3302,4.2949,4.2656,4.2636,4.2636,4.2597,4.2577,4.2518,4.2596,4.2499,4.2441,4.2402,4.2012,4.1777,4.1621,4.1387,4.1152,4.1074,4.1113,4.1113,4.1113,4.1113,4.1172,4.1172,4.1172,4.1035,4.0859,4.1055,4.0859,4.0136,4.0059,4.0117,4.0059,4.0,4.0312,4.0703,4.1035,4.1387,4.1816,4.2148,4.2402,4.2441,4.2538,4.248,4.2636,4.3008,4.3263,4.3242,4.3534,4.3768,4.3766,4.3683,4.3754,4.39,4.1677,4.0449,4.0443,3.9803,3.887,3.7716,3.6325,3.4608,3.2734,3.1949,3.1368,3.0866,3.0755,3.0808,3.0872,3.0935,3.1014,3.101,3.0997,3.083,3.0637,3.0461,3.0404,3.0354,3.0274,3.0167,3.0087,3.0074,3.0047,3.002,2.9971,2.9944,2.9913,2.9891,2.9913,2.9913,2.9913,2.9913,2.9913,2.9913,2.9927,4.4473,4.4224,4.4208,4.4297,4.4453,4.4705,4.4901,4.4998,4.4901,4.4707,4.4433,4.4256,4.4043,4.373,4.373,4.3691,4.373,4.3711,4.3691,4.3691,4.3613,4.3496,4.3398,4.3359,4.334,4.332,4.3281,4.3358,4.3319,4.3047,4.291,4.2911,4.248,4.2109,4.1816,4.1699,4.1465,4.123,4.1211,4.123,4.125,4.125,4.1367,4.1641,4.1641,4.1719,4.1855,4.2011,4.1719,4.0957,4.0859,4.0996,4.1211,4.125,4.1406,4.1738,4.1972,4.2109,4.2285,4.2676,4.2911,4.2969,4.3223,4.3379,4.3358,4.3789,4.4023,4.4121,4.4433,4.4627,4.4627,4.4627,4.4725,4.472,4.3836,4.3394,4.3384,4.297,4.1933,4.0618,3.8894,3.677,3.4623,3.3196,3.2263,3.1324,3.1052,3.1102,3.1189,3.1296,3.1383,3.1393,3.1349,3.1168,3.1001,3.0788,3.0698,3.0675,3.0608,3.0537,3.0484,3.0434,3.0404,3.035,3.0251,3.0202,3.0002,2.9918,2.9904,3.0011,2.9967,2.9993,2.994,2.9904,2.9918,4.584,4.5444,4.4908,4.4766,4.4961,4.5195,4.5391,4.5486,4.5351,4.5176,4.4941,4.4726,4.4491,4.4258,4.4061,4.4004,4.3965,4.3789,4.3691,4.3691,4.3691,4.3672,4.3691,4.3691,4.3691,4.3691,4.3691,4.3691,4.3652,4.3457,4.338,4.3282,4.291,4.2578,4.2383,4.2129,4.1953,4.1758,4.1699,4.1699,4.1719,4.1699,4.1816,4.2031,4.207,4.2207,4.2382,4.2382,4.2148,4.1797,4.1719,4.1816,4.1992,4.207,4.2148,4.2401,4.2558,4.2695,4.2812,4.3282,4.3634,4.3711,4.4003,4.4198,4.4297,4.4531,4.4668,4.4687,4.4902,4.4979,4.5037,4.5154,4.5293,4.5291,4.5428,4.5469,4.5332,4.4585,4.38,4.2616,4.1108,3.9127,3.6389,3.5098,3.3597,3.2348,3.1808,3.1641,3.1494,3.1654,3.1708,3.1618,3.1584,3.1443,3.1289,3.1099,3.0982,3.0969,3.0955,3.0885,3.0805,3.0778,3.0684,3.0595,3.0509,3.0406,3.0255,3.0175,3.0259,3.0299,3.0185,3.0114,3.01,3.0024,3.0024,4.7608,4.7089,4.576,4.5419,4.5733,4.5766,4.5918,4.6152,4.5898,4.5705,4.5568,4.5213,4.4998,4.4979,4.4549,4.4453,4.4433,4.4141,4.3887,4.3828,4.3769,4.3691,4.3691,4.3691,4.3691,4.3691,4.3691,4.3691,4.3691,4.3672,4.3672,4.3595,4.3302,4.3126,4.2911,4.2636,4.248,4.2324,4.2246,4.2246,4.2246,4.2246,4.2324,4.248,4.2597,4.2616,4.2636,4.2616,4.2558,4.2558,4.246,4.2382,4.2421,4.248,4.2538,4.2656,4.2969,4.3164,4.3341,4.3926,4.4375,4.4433,4.4725,4.4998,4.492,4.4979,4.5076,4.5098,4.5115,4.5252,4.5291,4.5547,4.5703,4.5783,4.6055,4.6055,4.5816,4.5396,4.4922,4.4369,4.3077,4.1261,3.9271,3.7384,3.5749,3.3629,3.2939,3.2261,3.1887,3.1671,3.1711,3.1695,3.1681,3.1684,3.1554,3.1423,3.133,3.1276,3.1276,3.1209,3.1112,3.1022,3.0929,3.0839,3.0766,3.0713,3.0639,3.0629,3.0659,3.0579,3.0474,3.0421,3.0417,3.0314,3.0274,4.9604,4.846,4.714,4.6405,4.6199,4.6168,4.6211,4.6289,4.6211,4.5979,4.5744,4.5588,4.5351,4.5018,4.494,4.4862,4.4862,4.4686,4.459,4.4219,4.3848,4.373,4.3711,4.3711,4.3711,4.373,4.3711,4.3711,4.373,4.3769,4.3711,4.3691,4.3594,4.3398,4.3126,4.3028,4.2754,4.248,4.2441,4.248,4.248,4.2499,4.2636,4.291,4.3223,4.3379,4.3418,4.3437,4.3417,4.3261,4.289,4.2734,4.2891,4.2969,4.3086,4.3319,4.3476,4.373,4.4062,4.4316,4.457,4.4862,4.5018,4.5018,4.5037,4.5371,4.5529,4.5627,4.582,4.5896,4.5916,4.6074,4.6113,4.6152,4.6211,4.6269,4.615,4.6065,4.5842,4.5549,4.4794,4.3604,4.1833,3.9954,3.7927,3.5501,3.4037,3.3092,3.2421,3.1877,3.1748,3.1772,3.1724,3.1724,3.166,3.158,3.154,3.1487,3.1476,3.149,3.1393,3.133,3.1249,3.1159,3.1059,3.1016,3.0996,3.0995,3.1008,3.0904,3.0768,3.0728,3.0675,3.0581,3.0555,5.2326,5.1021,4.907,4.7857,4.7189,4.6583,4.6308,4.6308,4.6308,4.6194,4.6018,4.5976,4.584,4.5605,4.543,4.5332,4.5273,4.5076,4.4764,4.4414,4.4121,4.3926,4.3789,4.3926,4.4023,4.4023,4.4022,4.4121,4.4238,4.4121,4.4062,4.4004,4.3827,4.3594,4.3398,4.3399,4.3262,4.3085,4.3007,4.3007,4.3007,4.3007,4.3086,4.334,4.3594,4.3691,4.3672,4.3926,4.4004,4.3944,4.3749,4.3475,4.3379,4.3379,4.3594,4.3926,4.4023,4.4238,4.459,4.4883,4.5117,4.5312,4.5467,4.5584,4.5623,4.5859,4.5959,4.6016,4.6152,4.6289,4.6308,4.6289,4.6308,4.6308,4.6308,4.6308,4.6308,4.6308,4.6308,4.6177,4.5585,4.4599,4.3256,4.1846,3.9885,3.7352,3.5624,3.4566,3.2927,3.2398,3.1948,3.183,3.1748,3.1724,3.1724,3.1674,3.166,3.1634,3.162,3.1634,3.158,3.1594,3.1607,3.1453,3.1323,3.1373,3.1366,3.1353,3.1333,3.1293,3.1183,3.1076,3.0942,3.0822,3.0849,5.5058,5.3793,5.1115,4.9488,4.846,4.7161,4.6527,4.6418,4.633,4.6289,4.6289,4.6308,4.6211,4.6191,4.5918,4.5781,4.5664,4.5351,4.5,4.4767,4.457,4.4336,4.4139,4.4336,4.4551,4.457,4.4531,4.4687,4.4766,4.4707,4.4492,4.4433,4.416,4.4043,4.3945,4.3906,4.3945,4.3885,4.3885,4.3885,4.3885,4.3885,4.3905,4.3965,4.3983,4.4043,4.4101,4.4297,4.4471,4.4512,4.4803,4.4569,4.412,4.3905,4.4022,4.4473,4.4492,4.4707,4.5078,4.541,4.5646,4.5764,4.6055,4.625,4.625,4.623,4.623,4.625,4.6308,4.6308,4.6308,4.6308,4.6348,4.6406,4.6426,4.6426,4.6506,4.6484,4.6543,4.6265,4.598,4.5282,4.4469,4.3319,4.1289,3.9379,3.7683,3.5957,3.4329,3.2979,3.2567,3.1914,3.1748,3.1724,3.1724,3.1714,3.1714,3.1724,3.1724,3.1724,3.1724,3.1687,3.1674,3.1687,3.1634,3.162,3.1607,3.1574,3.1574,3.1634,3.1554,3.1343,3.1196,3.1076,3.1142,5.6494,5.5163,5.2846,5.118,4.987,4.8222,4.7249,4.6854,4.6483,4.6308,4.6308,4.6308,4.6308,4.6269,4.6269,4.6191,4.6035,4.5742,4.551,4.5312,4.5098,4.4783,4.4725,4.4822,4.5057,4.5293,4.5176,4.5037,4.5057,4.494,4.4922,4.4881,4.4764,4.4705,4.4686,4.4764,4.4666,4.4608,4.4627,4.4647,4.4647,4.4647,4.4647,4.4647,4.4627,4.4666,4.4725,4.4822,4.4901,4.4901,4.4979,4.492,4.4822,4.4783,4.4822,4.4883,4.4901,4.5117,4.5508,4.5646,4.5879,4.6094,4.6269,4.6289,4.6308,4.6308,4.6328,4.6367,4.6367,4.6348,4.6308,4.6426,4.6523,4.6677,4.6833,4.6931,4.7229,4.7249,4.7014,4.6579,4.6314,4.6143,4.5512,4.4818,4.3391,4.1739,4.0172,3.7999,3.5882,3.4421,3.3369,3.2547,3.1724,3.1724,3.1724,3.1714,3.1727,3.1701,3.1724,3.1724,3.1724,3.1724,3.1724,3.1724,3.1724,3.1674,3.1674,3.1724,3.1687,3.1674,3.1634,3.1594,3.1487,3.138,3.1447,5.7937,5.6829,5.5073,5.346,5.1849,4.9637,4.8289,4.7553,4.6726,4.6308,4.6308,4.6308,4.6308,4.6308,4.6308,4.6308,4.6252,4.6113,4.59,4.5686,4.5471,4.5215,4.5115,4.5232,4.5471,4.5666,4.5666,4.5664,4.5664,4.5469,4.5371,4.5293,4.5156,4.5018,4.4998,4.4959,4.5037,4.5037,4.5037,4.5037,4.5018,4.5018,4.5018,4.5018,4.5037,4.5018,4.5057,4.5293,4.5351,4.541,4.5566,4.5664,4.5664,4.5644,4.5586,4.541,4.5371,4.5547,4.592,4.6018,4.6113,4.625,4.6308,4.6308,4.6308,4.6308,4.6426,4.6621,4.6917,4.6995,4.7012,4.6933,4.707,4.7207,4.7266,4.7363,4.7519,4.762,4.7386,4.7053,4.7026,4.6978,4.6895,4.614,4.5347,4.4054,4.2549,4.0322,3.7795,3.636,3.5097,3.3336,3.2453,3.1992,3.1928,3.1861,3.1821,3.1767,3.1724,3.1724,3.1724,3.1724,3.1724,3.1724,3.1724,3.1724,3.1724,3.1724,3.1724,3.1724,3.1674,3.1647,3.1674,3.1687,3.1724,5.9037,5.8232,5.7015,5.5554,5.379,5.1282,4.9658,4.8696,4.7466,4.6965,4.6834,4.69,4.6922,4.6834,4.6791,4.6745,4.6614,4.651,4.6224,4.592,4.5842,4.5605,4.5488,4.5566,4.5842,4.592,4.6076,4.6308,4.6152,4.5959,4.5842,4.5742,4.543,4.5271,4.533,4.5408,4.5271,4.5252,4.5252,4.5271,4.5252,4.5252,4.5252,4.5252,4.5271,4.5311,4.5408,4.5644,4.5781,4.5879,4.6055,4.6269,4.6289,4.6308,4.6152,4.59,4.5822,4.5996,4.6172,4.6269,4.625,4.6308,4.6308,4.6348,4.6504,4.6621,4.6758,4.7051,4.7305,4.7522,4.7464,4.7561,4.762,4.7695,4.7715,4.7776,4.7913,4.8011,4.803,4.7874,4.7855,4.7676,4.7452,4.7248,4.637,4.5901,4.4443,4.3074,4.0695,3.8911,3.7276,3.4775,3.3343,3.256,3.2249,3.2088,3.2008,3.1901,3.1781,3.1724,3.1724,3.1724,3.1701,3.1701,3.1724,3.1724,3.1724,3.1724,3.1724,3.1724,3.1724,3.1724,3.1724,3.1724,3.1724,5.9212,5.8745,5.7839,5.667,5.5244,5.3011,5.1514,5.059,4.9338,4.8695,4.8782,4.8738,4.876,4.8696,4.8351,4.7964,4.7531,4.7139,4.6686,4.6239,4.6152,4.6133,4.6091,4.6191,4.6152,4.6172,4.6269,4.6289,4.6328,4.6269,4.6191,4.6133,4.6094,4.6133,4.6033,4.5955,4.613,4.6133,4.6113,4.6094,4.6074,4.6052,4.6052,4.6074,4.6074,4.6013,4.5974,4.6113,4.6152,4.6191,4.625,4.6308,4.6308,4.6308,4.6289,4.625,4.623,4.6228,4.6308,4.6367,4.6387,4.6406,4.6387,4.6523,4.6816,4.7187,4.7402,4.7503,4.7617,4.7695,4.7776,4.7679,4.7815,4.7988,4.8144,4.8343,4.8542,4.8405,4.8444,4.8483,4.8382,4.8069,4.7812,4.7653,4.7424,4.6996,4.6382,4.4929,4.3218,4.113,3.8886,3.6262,3.4165,3.3315,3.2729,3.2506,3.2262,3.2102,3.1968,3.1808,3.1794,3.1808,3.1714,3.1714,3.1714,3.1701,3.1724,3.1724,3.1724,3.1724,3.1724,3.1724,3.1724,3.1724,3.1724,5.9135,5.9217,5.8823,5.8075,5.6968,5.5234,5.4013,5.3049,5.1805,5.122,5.1199,5.1199,5.1199,5.1052,5.0548,4.9679,4.8826,4.8094,4.7182,4.6527,4.6394,4.635,4.6289,4.6308,4.6308,4.6426,4.6523,4.6658,4.6579,4.6426,4.6308,4.6348,4.6348,4.6384,4.6579,4.6384,4.6443,4.6504,4.6423,4.6308,4.6308,4.6308,4.6308,4.6308,4.6328,4.6348,4.6348,4.6308,4.6308,4.6308,4.6308,4.6308,4.6308,4.6308,4.6308,4.6308,4.6521,4.6501,4.6367,4.6543,4.6621,4.6738,4.6855,4.7148,4.7363,4.7676,4.793,4.793,4.8206,4.8284,4.8284,4.8323,4.8421,4.8538,4.8519,4.8636,4.8815,4.8855,4.8815,4.8874,4.8874,4.8522,4.8268,4.8226,4.8141,4.7956,4.7492,4.6546,4.4499,4.2144,3.9844,3.7402,3.5531,3.4014,3.3445,3.3013,3.2645,3.2474,3.2356,3.2195,3.2008,3.1941,3.1901,3.1781,3.1714,3.1701,3.1714,3.1724,3.1724,3.1724,3.1724,3.1724,3.1724,3.1724,3.1724,5.8905,5.9502,5.9527,5.9056,5.8271,5.7039,5.6099,5.5292,5.4115,5.3583,5.3604,5.3563,5.3583,5.3398,5.2594,5.1555,5.0273,4.936,4.8305,4.7478,4.7034,4.7069,4.7142,4.7032,4.6812,4.6621,4.6953,4.7048,4.697,4.6833,4.6719,4.6621,4.6758,4.6836,4.6911,4.6894,4.6875,4.7031,4.6836,4.6719,4.668,4.668,4.668,4.666,4.6643,4.6643,4.6601,4.6504,4.6462,4.6462,4.6348,4.6348,4.6465,4.6501,4.6621,4.6719,4.6973,4.697,4.6875,4.6953,4.7048,4.7226,4.7461,4.7695,4.7796,4.8105,4.8379,4.8379,4.8597,4.8773,4.8894,4.8855,4.8815,4.8815,4.8832,4.8894,4.8894,4.8894,4.8894,4.8894,4.8894,4.8894,4.8737,4.8815,4.8812,4.8805,4.8409,4.7829,4.5927,4.3487,4.1572,3.9344,3.703,3.5404,3.4484,3.3913,3.3383,3.2893,3.2799,3.2578,3.2364,3.2246,3.2195,3.2035,3.1848,3.1787,3.1853,3.177,3.1724,3.1724,3.1724,3.1724,3.1724,3.1724,3.1724,5.8554,5.9527,5.9527,5.9251,5.8784,5.7922,5.7266,5.6849,5.5949,5.5587,5.5604,5.5547,5.5584,5.5322,5.4629,5.3503,5.2118,5.1221,5.0443,4.9731,4.9114,4.8907,4.8695,4.8329,4.7852,4.7469,4.75,4.7519,4.7558,4.7558,4.748,4.748,4.7346,4.7464,4.7542,4.7441,4.7386,4.7461,4.7346,4.7366,4.7366,4.7386,4.7405,4.7425,4.7464,4.7503,4.7464,4.709,4.6872,4.6853,4.6618,4.6601,4.6814,4.6872,4.7012,4.7246,4.7444,4.7461,4.7461,4.7461,4.7561,4.7679,4.7891,4.8164,4.8183,4.8578,4.8792,4.8753,4.8832,4.8851,4.8894,4.8894,4.8894,4.8894,4.8894,4.8894,4.8894,4.8894,4.8894,4.8894,4.8894,4.8894,4.8894,4.8894,4.8894,4.8867,4.8821,4.8246,4.7321,4.5251,4.3694,4.1629,3.8904,3.707,3.5818,3.5048,3.4239,3.3699,3.347,3.31,3.2716,3.2614,3.2489,3.2332,3.2171,3.207,3.1952,3.1928,3.1845,3.1751,3.1724,3.1724,3.1724,3.1724,3.1724,5.883,5.9483,5.9527,5.9431,5.9256,5.892,5.8687,5.8511,5.8178,5.804,5.7981,5.804,5.804,5.774,5.7083,5.5982,5.4751,5.4214,5.3255,5.2402,5.1788,5.1115,5.0496,4.9475,4.8635,4.7904,4.7812,4.7969,4.7969,4.8167,4.8363,4.8284,4.7894,4.7835,4.7874,4.7972,4.7874,4.7679,4.764,4.762,4.76,4.76,4.76,4.76,4.76,4.76,4.7561,4.7444,4.7344,4.7285,4.7148,4.7187,4.7285,4.7324,4.7441,4.7679,4.7855,4.7972,4.7991,4.7988,4.8086,4.8382,4.8538,4.8617,4.8578,4.8792,4.8894,4.8894,4.8894,4.8894,4.8894,4.8894,4.8894,4.8894,4.8952,4.8991,4.9007,4.9066,4.9089,4.9167,4.9011,4.8894,4.8894,4.8894,4.8894,4.8871,4.8824,4.8617,4.774,4.6953,4.541,4.3783,4.1189,3.9325,3.8047,3.6623,3.5186,3.4745,3.439,3.3945,3.3587,3.2911,3.2784,3.2625,3.2503,3.2382,3.2273,3.2123,3.1962,3.1791,3.1701,3.1724,3.1724,3.1724,3.1724,5.9012,5.9502,5.9527,5.9527,5.9527,5.9527,5.9527,5.9527,5.945,5.9527,5.9527,5.9527,5.9527,5.9295,5.8904,5.7964,5.6993,5.6513,5.5891,5.5106,5.4236,5.3234,5.1993,5.0755,4.9604,4.8435,4.8203,4.8398,4.8441,4.8757,4.8796,4.8617,4.8343,4.8284,4.8343,4.8379,4.8265,4.805,4.7991,4.8014,4.8033,4.803,4.803,4.805,4.8069,4.8092,4.803,4.7913,4.7773,4.7715,4.7637,4.7659,4.7737,4.7815,4.7855,4.803,4.8206,4.8379,4.8421,4.846,4.8535,4.8757,4.8812,4.8874,4.8894,4.8913,4.8894,4.8894,4.8894,4.8913,4.8929,4.9007,4.9101,4.918,4.9437,4.9515,4.9496,4.9515,4.9476,4.948,4.9363,4.9359,4.9379,4.9418,4.9144,4.9089,4.889,4.8821,4.8455,4.7717,4.6953,4.5339,4.348,4.1862,4.0457,3.9165,3.7901,3.6928,3.6427,3.5319,3.4717,3.3874,3.3154,3.3011,3.2875,3.2748,3.256,3.2375,3.2069,3.1764,3.1714,3.1724,3.1724,3.1724,3.1724,5.9031,5.9502,5.9527,5.9527,5.9527,5.9527,5.9527,5.9527,5.9527,5.9533,5.9583,5.9558,5.9633,5.9637,5.969,5.9197,5.8682,5.8535,5.8311,5.7747,5.6673,5.528,5.3666,5.2242,5.0518,4.9229,4.8792,4.8753,4.8792,4.8874,4.8894,4.8988,4.891,4.8812,4.8894,4.8894,4.8874,4.8855,4.8796,4.8737,4.8718,4.8698,4.8656,4.8636,4.8659,4.862,4.8561,4.8363,4.8223,4.8164,4.7952,4.7972,4.8187,4.8206,4.8363,4.8698,4.8776,4.8832,4.8871,4.8894,4.8874,4.8913,4.8949,4.9007,4.8949,4.8949,4.9066,4.9203,4.9109,4.9027,4.9086,4.9238,4.9433,4.957,4.9848,4.9926,4.9887,4.9867,4.9809,4.9793,4.9984,5.0141,5.0121,5.0023,4.9613,4.9343,4.9031,4.8887,4.8849,4.8525,4.7893,4.6742,4.5151,4.4098,4.2724,4.1773,4.0633,3.9568,3.8228,3.6874,3.5433,3.4215,3.3679,3.3418,3.321,3.3018,3.2804,3.2603,3.231,3.2019,3.1778,3.1724,3.1724,3.1741,3.1794,5.9351,5.9527,5.9527,5.9527,5.9527,5.9527,5.9527,5.9527,5.9552,5.9709,5.9966,6.0016,6.0286,6.0529,6.062,6.0492,6.0333,6.074,6.0699,6.0445,5.912,5.7275,5.5377,5.3235,5.132,4.9515,4.8894,4.8894,4.8874,4.8929,4.9105,4.9238,4.9515,4.9422,4.9144,4.9086,4.9199,4.8929,4.8894,4.8894,4.8894,4.8894,4.8894,4.8894,4.8894,4.8894,4.8894,4.8656,4.8617,4.8597,4.8363,4.846,4.8597,4.8617,4.8695,4.8894,4.8913,4.9027,4.9105,4.9105,4.8913,4.8968,4.9144,4.9238,4.9297,4.9613,4.9711,4.9711,4.9633,4.9652,4.9824,4.9844,4.9961,4.9984,5.0121,5.0121,5.0102,5.0121,5.0082,5.0063,5.0199,5.0278,5.0317,5.0453,5.016,5.0023,4.9789,4.9457,4.9344,4.92,4.8745,4.7804,4.6644,4.5857,4.495,4.4104,4.2867,4.1566,3.9754,3.7876,3.6391,3.4773,3.3825,3.3372,3.3343,3.3288,3.3007,3.2739,3.2565,3.2313,3.2059,3.1872,3.1834,3.1915,3.2008,5.9527,5.9527,5.9527,5.9527,5.9527,5.9527,5.9527,5.9527,5.9527,5.9809,6.0217,6.0317,6.0613,6.1085,6.1386,6.1486,6.1542,6.1999,6.2255,6.2056,6.0681,5.8313,5.601,5.399,5.1503,4.9653,4.8913,4.8894,4.8933,4.9046,4.9359,4.9766,5.0156,4.9965,4.9633,4.9492,4.9394,4.9144,4.9046,4.8894,4.8894,4.8894,4.8894,4.8894,4.8894,4.8894,4.8894,4.8913,4.8913,4.8913,4.8913,4.8913,4.8913,4.8894,4.8894,4.8913,4.9086,4.9297,4.9531,4.957,4.9398,4.9183,4.9414,4.9488,4.9586,4.9844,5.0063,5.0141,5.0238,5.0219,5.0215,5.0258,5.0414,5.0434,5.0527,5.0527,5.0586,5.0625,5.0605,5.0566,5.0547,5.0547,5.0547,5.0664,5.0703,5.0664,5.0605,5.0234,4.9844,4.9578,4.9375,4.8594,4.7975,4.7364,4.6925,4.6579,4.5222,4.3628,4.1439,3.9146,3.6972,3.5295,3.43,3.3389,3.3385,3.3317,3.3089,3.2875,3.2728,3.2554,3.2326,3.2166,3.2008,3.2115,3.2262,5.9527,5.9527,5.9527,5.9527,5.9527,5.9527,5.9527,5.9527,5.9552,5.9859,6.0342,6.0442,6.0914,6.1341,6.1818,6.2019,6.2094,6.2526,6.2651,6.224,6.0994,5.8539,5.6276,5.4141,5.186,4.9973,4.907,4.9222,4.905,4.9473,4.9883,5.0195,5.0605,5.0508,5.0234,4.9941,4.9664,4.9394,4.916,4.9007,4.891,4.8949,4.9007,4.9046,4.9086,4.9167,4.9167,4.9167,4.907,4.9031,4.8972,4.8933,4.8913,4.8894,4.8894,4.9027,4.9316,4.9746,5.0078,5.0102,4.9961,4.9707,4.9644,4.9586,4.9722,5.0117,5.0449,5.0469,5.0488,5.0391,5.0356,5.0586,5.082,5.0957,5.1109,5.1167,5.1245,5.1265,5.1245,5.1226,5.1206,5.1187,5.1148,5.1187,5.103,5.1069,5.0991,5.0816,5.0386,4.9844,4.964,4.9406,4.8924,4.8806,4.8467,4.8018,4.6958,4.5123,4.2663,4.0344,3.8096,3.5925,3.4574,3.3739,3.3489,3.332,3.3185,3.3064,3.2944,3.277,3.2663,3.25,3.2393,3.2487,3.2583,5.9527,5.9527,5.9527,5.9527,5.9527,5.9527,5.9527,5.9552,5.9885,6.0412,6.0984,6.1341,6.1697,6.235,6.2501,6.2551,6.2626,6.2701,6.2777,6.2204,6.1237,5.8868,5.6726,5.468,5.2435,5.071,4.9769,4.9711,4.9887,5.0195,5.0391,5.0664,5.0972,5.1011,5.0874,5.0601,5.0113,4.9644,4.9414,4.9199,4.9105,4.9183,4.9261,4.9355,4.9594,4.9695,4.9691,4.9711,4.9633,4.9375,4.9336,4.9238,4.8913,4.889,4.8949,4.9355,4.9746,5.0156,5.0512,5.0375,5.0238,5.0328,5.0367,5.0234,5.0312,5.0527,5.0913,5.0894,5.0874,5.0816,5.0816,5.0991,5.1128,5.1206,5.1323,5.1338,5.1397,5.1397,5.1397,5.1397,5.1397,5.1397,5.1397,5.1358,5.1265,5.1338,5.1319,5.1187,5.0855,5.0293,4.9957,4.9766,4.9476,4.9222,4.9164,4.8769,4.781,4.6498,4.4032,4.1598,3.9405,3.7243,3.5171,3.3989,3.3589,3.3412,3.3334,3.3227,3.312,3.3213,3.3133,3.2917,3.2781,3.2848,3.2915,5.9527,5.9527,5.9527,5.9527,5.9527,5.9527,5.9527,5.9608,6.0085,6.0618,6.1235,6.1743,6.23,6.2701,6.2777,6.2777,6.2777,6.2777,6.2802,6.2497,6.1502,5.9034,5.6952,5.5067,5.283,5.1195,5.0199,5.0082,5.0336,5.0586,5.082,5.1074,5.1323,5.1338,5.126,5.105,5.0679,5.0132,4.9722,4.9512,4.9492,4.9492,4.957,4.9824,5.0121,5.0199,5.0238,5.0238,5.0039,4.9766,4.9664,4.9531,4.934,4.9437,4.9613,5.0,5.0254,5.0644,5.0918,5.0835,5.0777,5.082,5.0957,5.0801,5.0781,5.0937,5.1167,5.128,5.1319,5.1358,5.1358,5.1377,5.1377,5.1377,5.1377,5.1377,5.1397,5.1397,5.1397,5.1397,5.1397,5.1397,5.1397,5.1397,5.1397,5.1397,5.1397,5.1338,5.1011,5.0508,5.0284,5.0163,4.9801,4.9496,4.95,4.9453,4.8541,4.7314,4.5323,4.2949,4.0731,3.8274,3.5925,3.4549,3.3589,3.3462,3.3399,3.3387,3.3322,3.3389,3.3389,3.3213,3.3091,3.3131,3.3171,5.9527,5.9527,5.9527,5.9527,5.9527,5.9527,5.9527,5.9583,6.0161,6.0688,6.124,6.1818,6.2375,6.2752,6.2802,6.2802,6.2802,6.2802,6.2802,6.2754,6.1673,5.9468,5.7043,5.5175,5.3263,5.1323,5.0375,5.0551,5.0469,5.0742,5.1109,5.1382,5.1377,5.1397,5.1358,5.1319,5.1069,5.0738,5.0191,4.9863,4.9941,4.9883,4.9781,5.018,5.0336,5.0351,5.0356,5.0312,5.0254,5.0098,4.998,4.9922,4.9941,5.018,5.0434,5.0605,5.0762,5.0972,5.1206,5.1226,5.1089,5.1089,5.1167,5.1109,5.1109,5.1148,5.1362,5.1377,5.1397,5.1397,5.1397,5.1397,5.1397,5.1397,5.1397,5.1397,5.1397,5.1397,5.1397,5.1397,5.1397,5.1397,5.1397,5.1397,5.1397,5.1397,5.1397,5.1397,5.1187,5.0723,5.0514,5.0466,5.0245,5.0008,5.022,5.004,4.9256,4.7903,4.6329,4.4762,4.2855,3.9886,3.6607,3.5263,3.4059,3.3627,3.345,3.3414,3.3389,3.3389,3.3389,3.3389,3.3362,3.3347,3.3334,5.9527,5.9527,5.9527,5.9527,5.9527,5.9527,5.9527,5.9583,6.0563,6.104,6.1361,6.2144,6.2651,6.2777,6.2802,6.2802,6.2802,6.2802,6.2802,6.2576,6.1822,5.9751,5.729,5.5868,5.38,5.2028,5.1109,5.1035,5.1011,5.1167,5.1265,5.1377,5.1397,5.1397,5.1397,5.1397,5.1304,5.1128,5.0757,5.0332,5.0254,5.0488,5.0586,5.0762,5.084,5.0991,5.1011,5.105,5.0874,5.0683,5.0586,5.041,5.0219,5.0512,5.0683,5.084,5.1069,5.124,5.1319,5.1397,5.1304,5.1304,5.1323,5.1323,5.1343,5.1382,5.1401,5.1377,5.1397,5.1397,5.1397,5.1397,5.1397,5.1397,5.1397,5.1397,5.1397,5.1397,5.1397,5.1397,5.1397,5.1397,5.1397,5.1397,5.1397,5.1397,5.1397,5.1358,5.1284,5.0972,5.0681,5.0594,5.067,5.0618,5.0837,5.0656,4.9891,4.9195,4.7902,4.6408,4.4891,4.1628,3.8314,3.6084,3.4645,3.4148,3.3716,3.3414,3.3389,3.3389,3.3389,3.3389,3.3389,3.3362,3.3362,5.9527,5.9527,5.9527,5.9527,5.9527,5.9527,5.9527,5.9709,6.0688,6.119,6.1341,6.227,6.2802,6.2802,6.2802,6.2802,6.2802,6.2802,6.2802,6.2593,6.1768,5.9739,5.7986,5.6299,5.3949,5.2109,5.1571,5.1358,5.1397,5.1377,5.1377,5.1397,5.1397,5.1397,5.1397,5.1397,5.1397,5.1358,5.1128,5.0937,5.0644,5.0801,5.0933,5.1069,5.1265,5.1397,5.1397,5.1377,5.1284,5.1128,5.105,5.082,5.0703,5.0879,5.1055,5.1128,5.1265,5.1397,5.1397,5.1397,5.1397,5.1397,5.1377,5.1382,5.1382,5.1377,5.1377,5.1397,5.1397,5.1397,5.1397,5.1397,5.1397,5.1397,5.1397,5.1397,5.1397,5.1397,5.1397,5.1397,5.1397,5.1397,5.1397,5.1397,5.1397,5.1397,5.1397,5.1397,5.128,5.1226,5.0929,5.0764,5.0841,5.0972,5.114,5.0984,5.051,4.9852,4.9287,4.7761,4.5951,4.2981,4.0106,3.778,3.5848,3.4617,3.4184,3.3729,3.3414,3.3389,3.3389,3.3389,3.3389,3.3389,3.3389,5.9527,5.9527,5.9527,5.9527,5.9527,5.9527,5.9527,5.9684,6.0708,6.119,6.1341,6.2325,6.2752,6.2802,6.2802,6.2802,6.2802,6.2802,6.2802,6.2609,6.2044,5.9807,5.7851,5.621,5.3988,5.235,5.1499,5.1397,5.1397,5.1397,5.1397,5.1397,5.1397,5.1397,5.1397,5.1397,5.1397,5.1397,5.1299,5.1338,5.1226,5.1069,5.1148,5.1284,5.1397,5.1397,5.1397,5.1377,5.1401,5.1382,5.1343,5.1148,5.1074,5.1148,5.1245,5.1343,5.1343,5.1397,5.1397,5.1397,5.1397,5.1397,5.1397,5.1397,5.1397,5.1397,5.1397,5.1397,5.1397,5.1397,5.1397,5.1397,5.1397,5.1397,5.1397,5.1397,5.1397,5.1397,5.1397,5.1397,5.1397,5.1397,5.1397,5.1397,5.1397,5.1397,5.1397,5.1397,5.1377,5.1319,5.1173,5.1075,5.1084,5.123,5.1396,5.1211,5.0865,5.0754,5.0094,4.8748,4.71,4.4703,4.2163,3.9439,3.7625,3.6185,3.4715,3.3932,3.3704,3.3504,3.3389,3.3389,3.3389,3.3389,3.3389,5.9527,5.9527,5.9527,5.9527,5.9527,5.9527,5.9527,5.9703,6.0688,6.119,6.1466,6.227,6.2802,6.2802,6.2802,6.2802,6.2802,6.2802,6.2802,6.2695,6.2023,5.9807,5.7491,5.5629,5.4002,5.2495,5.1397,5.1397,5.1397,5.1397,5.1397,5.1397,5.1397,5.1397,5.1397,5.1397,5.1397,5.1397,5.1397,5.1397,5.1397,5.1323,5.1343,5.1401,5.1397,5.1397,5.1397,5.1397,5.1377,5.1377,5.1377,5.1343,5.1304,5.1304,5.1358,5.1397,5.1397,5.1397,5.1397,5.1397,5.1397,5.1397,5.1397,5.1397,5.1397,5.1397,5.1397,5.1397,5.1397,5.1397,5.1397,5.1397,5.1397,5.1397,5.1397,5.1397,5.1397,5.1397,5.1397,5.1397,5.1397,5.1397,5.1397,5.1397,5.1397,5.1397,5.1397,5.1397,5.1397,5.1397,5.1397,5.1343,5.1284,5.1343,5.1401,5.1406,5.1201,5.1206,5.1022,4.9875,4.8559,4.6965,4.4455,4.2022,3.9619,3.7845,3.637,3.4837,3.4001,3.38,3.3504,3.3389,3.3415,3.3469,3.3549]}]]